[[{"header":{"parameterUnit":"m.s-1","parameterCategory":1,"la1":30.6,"la2":28.766,"lo1":-90.7593,"lo2":-88.6598,"dy":0.0162,"dx":0.0183,"nx":116,"ny":114,"refTime":"2023-05-18T00:00:00:Z","depth":0,"parameterNumber":2,"parameterNumberName":"U-component_of_WINDS"},"data":[0.0,0.0,0.0,0.0,0.0,0.0,0.0,0.0,0.0,0.0,0.0,0.0,0.0,0.0,0.0,0.0,0.0,0.0,0.0,0.0,0.0,0.0,0.0,0.0,0.0,0.0,0.0,0.0,0.0,0.0,0.0,0.0,0.0,0.0,0.0,0.0,0.0,0.0,0.0,0.0,0.0,0.0,0.0,0.0,0.0,0.0,0.0,0.0,0.0,0.0,0.0,0.0,0.0,0.0,0.0,0.0,0.0,0.0,0.0,0.0,0.0,0.0,0.0,0.0,0.0,0.0,0.0,0.0,0.0,0.0,0.0,0.0,0.0,0.0,0.0,0.0,0.0,0.0,0.0,0.0,0.0,0.0,0.0,0.0,0.0,0.0,0.0,0.0,0.0,0.0,0.0,0.0,0.0,0.0,0.0,0.0,0.0,0.0,0.0,0.0,0.0,0.0,0.0,0.0,0.0,0.0,0.0,0.0,0.0,0.0,0.0,0.0,0.0,0.0,0.0,0.0,0.0,0.0,0.0,0.0,0.0,0.0,0.0,0.0,0.0,0.0,0.0,0.0,0.0,0.0,0.0,0.0,0.0,0.0,0.0,0.0,0.0,0.0,0.0,0.0,0.0,0.0,0.0,0.0,0.0,0.0,0.0,0.0,0.0,0.0,0.0,0.0,0.0,0.0,0.0,0.0,0.0,0.0,0.0,0.0,0.0,0.0,0.0,0.0,0.0,0.0,0.0,0.0,0.0,0.0,0.0,0.0,0.0,0.0,0.0,0.0,0.0,0.0,0.0,0.0,0.0,0.0,0.0,0.0,0.0,0.0,0.0,0.0,0.0,0.0,0.0,0.0,0.0,0.0,0.0,0.0,0.0,0.0,0.0,0.0,0.0,0.0,0.0,0.0,0.0,0.0,0.0,0.0,0.0,0.0,0.0,0.0,0.0,0.0,0.0,0.0,0.0,0.0,0.0,0.0,0.0,0.0,0.0,0.0,0.0,0.0,0.0,0.0,0.0,0.0,0.0,0.0,0.0,0.0,0.0,0.0,0.0,0.0,0.0,0.0,0.0,0.0,0.0,0.0,0.0,0.0,0.0,0.0,0.0,0.0,0.0,0.0,0.0,0.0,0.0,0.0,0.0,0.0,0.0,0.0,0.0,0.0,0.0,0.0,0.0,0.0,0.0,0.0,0.0,0.0,0.0,0.0,0.0,0.0,0.0,0.0,0.0,0.0,0.0,0.0,0.0,0.0,0.0,0.0,0.0,0.0,0.0,0.0,0.0,0.0,0.0,0.0,0.0,0.0,0.0,0.0,0.0,0.0,0.0,0.0,0.0,0.0,0.0,0.0,0.0,0.0,0.0,0.0,0.0,0.0,0.0,0.0,0.0,0.0,0.0,0.0,0.0,0.0,0.0,0.0,0.0,0.0,0.0,0.0,0.0,0.0,0.0,0.0,0.0,0.0,0.0,0.0,0.0,0.0,0.0,0.0,0.0,0.0,0.0,0.0,0.0,0.0,0.0,0.0,0.0,0.0,0.0,0.0,0.0,0.0,0.0,0.0,0.0,0.0,0.0,0.0,0.0,0.0,0.0,0.0,0.0,0.0,0.0,0.0,0.0,0.0,0.0,0.0,0.0,0.0,0.0,0.0,0.0,0.0,0.0,0.0,0.0,0.0,0.0,0.0,0.0,0.0,0.0,0.0,0.0,0.0,0.0,0.0,0.0,0.0,0.0,0.0,0.0,0.0,0.0,0.0,0.0,0.0,0.0,0.0,0.0,0.0,0.0,0.0,0.0,0.0,0.0,0.0,0.0,0.0,0.0,0.0,0.0,0.0,0.0,0.0,0.0,0.0,0.0,0.0,0.0,0.0,0.0,0.0,0.0,0.0,0.0,0.0,0.0,0.0,0.0,0.0,0.0,0.0,0.0,0.0,0.0,0.0,0.0,0.0,0.0,0.0,0.0,0.0,0.0,0.0,0.0,0.0,0.0,0.0,0.0,0.0,0.0,0.0,0.0,0.0,0.0,0.0,0.0,0.0,0.0,0.0,0.0,0.0,0.0,0.0,0.0,0.0,0.0,0.0,0.0,0.0,0.0,0.0,0.0,0.0,0.0,0.0,0.0,0.0,0.0,0.0,0.0,0.0,0.0,0.0,0.0,0.0,0.0,0.0,0.0,0.0,0.0,0.0,0.0,0.0,0.0,0.0,0.0,0.0,0.0,0.0,0.0,0.0,0.0,0.0,0.0,0.0,0.0,0.0,0.0,0.0,0.0,0.0,0.0,0.0,0.0,0.0,0.0,0.0,0.0,0.0,0.0,0.0,0.0,0.0,0.0,0.0,0.0,0.0,0.0,0.0,0.0,0.0,0.0,0.0,0.0,0.0,0.0,0.0,0.0,0.0,0.0,0.0,0.0,0.0,0.0,0.0,0.0,0.0,0.0,0.0,0.0,0.0,0.0,0.0,0.0,0.0,0.0,0.0,0.0,0.0,0.0,0.0,0.0,0.0,0.0,0.0,0.0,0.0,0.0,0.0,0.0,0.0,0.0,0.0,0.0,0.0,0.0,0.0,0.0,0.0,0.0,0.0,0.0,0.0,0.0,0.0,0.0,0.0,0.0,0.0,0.0,0.0,0.0,0.0,0.0,0.0,0.0,0.0,0.0,0.0,0.0,0.0,0.0,0.0,0.0,0.0,0.0,0.0,0.0,0.0,0.0,0.0,0.0,0.0,0.0,0.0,0.0,0.0,0.0,0.0,0.0,0.0,0.0,0.0,0.0,0.0,0.0,0.0,0.0,0.0,0.0,0.0,0.0,0.0,0.0,0.0,0.0,0.0,0.0,0.0,0.0,0.0,0.0,0.0,0.0,0.0,0.0,0.0,0.0,0.0,0.0,0.0,0.0,0.0,0.0,0.0,0.0,0.0,0.0,0.0,0.0,0.0,0.0,0.0,0.0,0.0,0.0,0.0,0.0,0.0,0.0,0.0,0.0,0.0,0.0,0.0,0.0,0.0,0.0,0.0,0.0,0.0,0.0,0.0,0.0,0.0,0.0,0.0,0.0,0.0,0.0,0.0,0.0,0.0,0.0,0.0,0.0,0.0,0.0,0.0,0.0,0.0,0.0,0.0,0.0,0.0,0.0,0.0,0.0,0.0,0.0,0.0,0.0,0.0,0.0,0.0,0.0,0.0,0.0,0.0,0.0,0.0,0.0,0.0,0.0,0.0,0.0,0.0,0.0,0.0,0.0,0.0,0.0,0.0,0.0,0.0,0.0,0.0,0.0,0.0,0.0,0.0,0.0,0.0,0.0,0.0,0.0,0.0,0.0,0.0,0.0,0.0,0.0,0.0,0.0,0.0,0.0,0.0,0.0,0.0,0.0,0.0,0.0,0.0,0.0,0.0,0.0,0.0,0.0,0.0,0.0,0.0,0.0,0.0,0.0,0.0,0.0,0.0,0.0,0.0,0.0,0.0,0.0,0.0,0.0,0.0,0.0,0.0,0.0,0.0,0.0,0.0,0.0,0.0,0.0,0.0,0.0,0.0,0.0,0.0,0.0,0.0,0.0,0.0,0.0,0.0,0.0,0.0,0.0,0.0,0.0,0.0,0.0,0.0,0.0,0.0,0.0,0.0,0.0,0.0,0.0,0.0,0.0,0.0,0.0,0.0,0.0,0.0,0.0,0.0,0.0,0.0,0.0,0.0,0.0,0.0,0.0,0.0,0.0,0.0,0.0,0.0,0.0,0.0,0.0,0.0,0.0,0.0,0.0,0.0,0.0,0.0,0.0,0.0,0.0,0.0,0.0,0.0,0.0,0.0,0.0,0.0,0.0,0.0,0.0,0.0,0.0,0.0,0.0,0.0,0.0,0.0,0.0,0.0,0.0,0.0,0.0,0.0,0.0,0.0,0.0,0.0,0.0,0.0,0.0,0.0,0.0,0.0,0.0,0.0,0.0,0.0,0.0,0.0,0.0,0.0,0.0,0.0,0.0,0.0,0.0,0.0,0.0,0.0,0.0,0.0,0.0,0.0,0.0,0.0,0.0,0.0,0.0,0.0,0.0,0.0,0.0,0.0,0.0,0.0,0.0,0.0,0.0,0.0,0.0,0.0,0.0,0.0,0.0,0.0,0.0,0.0,0.0,0.0,0.0,0.0,0.0,0.0,0.0,0.0,0.0,0.0,0.0,0.0,0.0,0.0,0.0,0.0,0.0,0.0,0.0,0.0,0.0,0.0,0.0,0.0,0.0,0.0,0.0,0.0,0.0,0.0,0.0,0.0,0.0,0.0,0.0,0.0,0.0,0.0,0.0,0.0,0.0,0.0,0.0,0.0,0.0,0.0,0.0,0.0,0.0,0.0,0.0,0.0,0.0,0.0,0.0,0.0,0.0,0.0,0.0,0.0,0.0,0.0,0.0,0.0,0.0,0.0,0.0,0.0,0.0,0.0,0.0,0.0,0.0,0.0,0.0,0.0,0.0,0.0,0.0,0.0,0.0,0.0,0.0,0.0,0.0,0.0,0.0,0.0,0.0,0.0,0.0,0.0,0.0,0.0,0.0,0.0,0.0,0.0,0.0,0.0,0.0,0.0,0.0,0.0,0.0,0.0,0.0,0.0,0.0,0.0,0.0,0.0,0.0,0.0,0.0,0.0,0.0,0.0,0.0,0.0,0.0,0.0,0.0,0.0,0.0,0.0,0.0,0.0,0.0,0.0,0.0,0.0,0.0,0.0,0.0,0.0,0.0,0.0,0.0,0.0,0.0,0.0,0.0,0.0,0.0,0.0,0.0,0.0,0.0,0.0,0.0,0.0,0.0,0.0,0.0,0.0,0.0,0.0,0.0,0.0,0.0,0.0,0.0,0.0,0.0,0.0,0.0,0.0,0.0,0.0,0.0,0.0,0.0,0.0,0.0,0.0,0.0,0.0,0.0,0.0,0.0,0.0,0.0,0.0,0.0,0.0,0.0,0.0,0.0,0.0,0.0,0.0,0.0,0.0,0.0,0.0,0.0,0.0,0.0,0.0,0.0,0.0,0.0,0.0,0.0,0.0,0.0,0.0,0.0,0.0,0.0,0.0,0.0,0.0,0.0,0.0,0.0,0.0,0.0,0.0,0.0,0.0,0.0,0.0,0.0,0.0,0.0,0.0,0.0,0.0,0.0,0.0,0.0,0.0,0.0,0.0,0.0,0.0,0.0,0.0,0.0,0.0,0.0,0.0,0.0,0.0,0.0,0.0,0.0,0.0,0.0,0.0,0.0,0.0,0.0,0.0,0.0,0.0,0.0,0.0,0.0,0.0,0.0,0.0,0.0,0.0,0.0,0.0,0.0,0.0,0.0,0.0,0.0,0.0,0.0,0.0,0.0,0.0,0.0,0.0,0.0,0.0,0.0,0.0,0.0,0.0,0.0,0.0,0.0,0.0,0.0,0.0,0.0,0.0,0.0,0.0,0.0,0.0,0.0,0.0,0.0,0.0,0.0,0.0,0.0,0.0,0.0,0.0,0.0,0.0,0.0,0.0,0.0,0.0,0.0,0.0,0.0,0.0,0.0,0.0,0.0,0.0,0.0,0.0,0.0,0.0,0.0,0.0,0.0,0.0,0.0,0.0,0.0,0.0,0.0,0.0,0.0,0.0,0.0,0.0,0.0,0.0,0.0,0.0,0.0,0.0,0.0,0.0,0.0,0.0,0.0,0.0,0.0,0.0,0.0,0.0,0.0,0.0,0.0,0.0,0.0,0.0,0.0,0.0,0.0,0.0,0.0,0.0,0.0,0.0,0.0,0.0,0.0,0.0,0.0,0.0,0.0,0.0,0.0,0.0,0.0,0.0,0.0,0.0,0.0,0.0,0.0,0.0,0.0,0.0,0.0,0.0,0.0,0.0,0.0,0.0,0.0,0.0,0.0,0.0,0.0,0.0,0.0,0.0,0.0,0.0,0.0,0.0,0.0,0.0,0.0,0.0,0.0,0.0,0.0,0.0,0.0,0.0,0.0,0.0,0.0,0.0,0.0,0.0,0.0,0.0,0.0,0.0,0.0,0.0,0.0,0.0,0.0,0.0,0.0,0.0,0.0,0.0,0.0,0.0,0.0,0.0,0.0,0.0,0.0,0.0,-2.3926,0.0,0.0,0.0,0.0,0.0,0.0,0.0,0.0,0.0,0.0,0.0,0.0,0.0,0.0,0.0,0.0,0.0,0.0,0.0,0.0,0.0,0.0,0.0,0.0,0.0,0.0,0.0,0.0,0.0,0.0,0.0,0.0,0.0,0.0,0.0,0.0,0.0,0.0,0.0,-2.0233,-2.0619,-2.1405,-2.1442,-2.0994,-2.0155,0.0,0.0,0.0,0.0,0.0,0.0,0.0,0.0,0.0,0.0,0.0,0.0,0.0,0.0,0.0,0.0,0.0,0.0,0.0,0.0,0.0,0.0,0.0,0.0,0.0,0.0,0.0,0.0,0.0,0.0,0.0,0.0,0.0,0.0,0.0,0.0,0.0,0.0,0.0,0.0,0.0,0.0,0.0,0.0,0.0,0.0,0.0,0.0,0.0,0.0,0.0,0.0,0.0,0.0,0.0,0.0,0.0,0.0,0.0,0.0,0.0,0.0,0.0,0.0,0.0,0.0,0.0,0.0,0.0,0.0,0.0,-2.5658,0.0,0.0,0.0,0.0,0.0,0.0,0.0,0.0,0.0,0.0,0.0,0.0,0.0,0.0,0.0,0.0,0.0,0.0,0.0,0.0,0.0,0.0,0.0,0.0,0.0,0.0,0.0,0.0,0.0,0.0,0.0,0.0,0.0,0.0,0.0,-2.0289,-2.0326,-2.0472,-2.0652,-2.1626,-2.3303,-2.3342,-2.2614,-2.1273,-2.0756,0.0,0.0,0.0,0.0,0.0,0.0,0.0,0.0,0.0,0.0,0.0,0.0,0.0,0.0,0.0,0.0,0.0,0.0,0.0,0.0,0.0,0.0,0.0,0.0,0.0,0.0,0.0,0.0,0.0,0.0,0.0,0.0,0.0,0.0,0.0,0.0,0.0,0.0,0.0,0.0,0.0,0.0,0.0,0.0,0.0,0.0,0.0,0.0,0.0,0.0,0.0,0.0,0.0,0.0,0.0,0.0,0.0,0.0,0.0,0.0,0.0,0.0,0.0,0.0,-3.4099,-3.3915,-3.4606,-3.4204,-3.2858,-3.1502,-2.9675,-2.7531,0.0,0.0,0.0,0.0,0.0,0.0,0.0,0.0,0.0,0.0,0.0,0.0,0.0,0.0,0.0,0.0,0.0,0.0,0.0,0.0,0.0,0.0,0.0,-1.7937,-1.8692,-1.8815,-1.9219,0.0,0.0,0.0,0.0,0.0,0.0,-2.0301,-2.0186,-2.047,-2.1177,-2.2609,-2.426,-2.6062,-2.6009,-2.5883,-2.5576,-2.3233,-2.217,-2.2116,0.0,0.0,0.0,0.0,0.0,0.0,0.0,0.0,0.0,0.0,0.0,0.0,0.0,0.0,0.0,0.0,0.0,0.0,0.0,0.0,0.0,0.0,0.0,0.0,0.0,0.0,0.0,0.0,0.0,0.0,0.0,0.0,0.0,0.0,0.0,0.0,0.0,0.0,0.0,0.0,0.0,-2.5183,-2.6664,0.0,0.0,0.0,0.0,0.0,0.0,0.0,0.0,0.0,0.0,0.0,0.0,0.0,0.0,-3.4358,-3.59,-3.674,-3.6851,-3.8372,-3.8343,-3.7063,-3.7884,-3.7794,-3.6988,-3.6758,0.0,-2.9925,-2.8422,0.0,0.0,0.0,0.0,0.0,0.0,0.0,0.0,0.0,0.0,0.0,0.0,0.0,0.0,0.0,0.0,0.0,0.0,0.0,0.0,0.0,-1.8648,-1.9347,-1.968,-2.1004,-2.1556,0.0,0.0,0.0,0.0,0.0,-2.0211,-2.025,-2.0188,-2.0936,-2.254,-2.4328,-2.6562,-2.9136,-2.9257,-2.9786,-3.0562,-2.8417,-2.5874,-2.3202,-2.271,0.0,0.0,0.0,0.0,0.0,0.0,0.0,0.0,0.0,0.0,0.0,0.0,0.0,0.0,0.0,0.0,0.0,0.0,0.0,0.0,0.0,0.0,0.0,0.0,0.0,0.0,0.0,0.0,0.0,0.0,0.0,0.0,0.0,0.0,0.0,0.0,0.0,0.0,0.0,-2.6473,-2.766,-2.7396,-2.8304,-2.8566,0.0,0.0,0.0,0.0,0.0,0.0,0.0,0.0,0.0,-3.5021,-3.6232,-3.7202,-3.79,-3.9461,-4.0459,-4.0919,-4.2095,-4.2298,-4.1632,-4.1521,-4.1088,-4.0418,-3.9896,-3.7929,-3.4921,-3.2001,-3.0243,-2.9274,0.0,0.0,0.0,0.0,0.0,-2.7002,0.0,0.0,0.0,0.0,0.0,0.0,0.0,0.0,0.0,0.0,0.0,0.0,-1.9097,-2.0204,-2.1113,-2.1493,-2.3026,-2.3352,-2.1838,0.0,0.0,0.0,-2.0134,-2.0161,-2.0159,-2.0948,-2.2469,-2.4742,-2.6548,-2.8982,-3.1994,-3.2254,-3.3118,-3.4404,-3.3165,-2.9916,-2.534,-2.4577,-2.3201,-2.1498,0.0,0.0,0.0,0.0,0.0,0.0,0.0,0.0,0.0,0.0,0.0,0.0,0.0,0.0,0.0,0.0,0.0,0.0,0.0,0.0,0.0,0.0,0.0,0.0,0.0,0.0,0.0,0.0,0.0,0.0,0.0,0.0,0.0,0.0,0.0,0.0,0.0,-2.9023,-3.0181,-2.8452,-3.0791,-3.16,0.0,0.0,0.0,0.0,0.0,0.0,-3.4692,-3.6665,-3.8153,-3.9086,-4.0467,-4.1392,-4.1735,-4.2928,-4.3938,-4.4727,-4.5131,-4.524,-4.5053,-4.4193,-4.3419,-4.2724,-4.1866,-4.0804,-3.9399,-3.543,-3.2939,-3.1464,-3.0443,-2.9798,-2.9462,-2.9904,-2.9664,-2.92,0.0,0.0,0.0,0.0,0.0,0.0,0.0,0.0,0.0,0.0,0.0,-2.0901,-2.24,-2.2692,-2.3403,-2.5009,-2.438,-2.3544,-2.2681,-2.182,-2.0967,-2.0145,-2.0047,-2.0038,-2.0098,-2.2969,-2.569,-2.814,-2.972,-3.1822,-3.4427,-3.4643,-3.5191,-3.5989,-3.6102,-3.3743,-2.9523,-2.7089,-2.4633,-2.2275,-2.1519,0.0,0.0,0.0,0.0,0.0,0.0,0.0,0.0,0.0,0.0,0.0,0.0,0.0,0.0,0.0,0.0,0.0,0.0,0.0,0.0,0.0,0.0,0.0,0.0,0.0,0.0,0.0,0.0,0.0,0.0,0.0,0.0,0.0,0.0,0.0,0.0,0.0,0.0,-3.0745,-3.4064,0.0,0.0,0.0,0.0,-3.6329,-3.696,-3.8005,-3.9571,-4.0423,-4.157,-4.3164,-4.4011,-4.5204,-4.6746,-4.6838,-4.7278,-4.8049,-4.7352,-4.6581,-4.581,-4.5021,-4.423,-4.349,-4.2613,-4.2243,-4.1903,-3.7871,-3.5643,-3.4614,-3.3036,-3.2871,-3.3421,-3.2687,-3.2394,-3.2155,0.0,0.0,0.0,0.0,0.0,0.0,0.0,0.0,0.0,-2.0111,-2.1216,-2.2136,-2.2794,-2.4315,-2.5522,-2.6121,-2.683,-2.6389,-2.4385,-2.3883,-2.3012,-2.158,-2.1043,-2.1498,-2.3089,-2.4674,-2.7154,-3.059,-3.1752,-3.3848,-3.6788,-3.6938,-3.7567,-3.851,-3.8019,-3.6445,-3.3897,-3.0769,-2.7679,-2.4803,-2.3411,-2.1901,0.0,0.0,0.0,0.0,0.0,0.0,0.0,0.0,0.0,0.0,0.0,0.0,0.0,0.0,0.0,0.0,0.0,0.0,0.0,0.0,0.0,0.0,0.0,0.0,0.0,0.0,0.0,0.0,0.0,0.0,0.0,0.0,0.0,0.0,0.0,0.0,0.0,-3.6358,-3.9349,0.0,0.0,-3.7862,-3.8154,-3.8869,-4.0486,-4.2128,-4.3713,-4.5571,-4.6819,-4.7388,-4.7682,-4.7865,-4.7884,-4.7884,-4.8031,-4.8306,-4.8012,-4.7719,-4.7425,-4.6617,-4.581,-4.502,-4.4195,-4.3259,-4.2209,-4.0777,-3.9087,-3.7239,-3.5605,-3.4816,-3.4614,-3.489,-3.4633,-3.4055,0.0,0.0,0.0,0.0,0.0,0.0,0.0,0.0,0.0,-2.0499,-2.1874,-2.3208,-2.4444,-2.6072,-2.7287,-2.7834,-2.8088,-2.7221,-2.4815,-2.4056,-2.3164,-2.196,-2.1979,-2.3256,-2.5922,-2.6967,-2.9283,-3.2974,-3.3839,-3.5491,-3.7858,-3.7996,-3.8646,-3.9609,-3.9131,-3.8239,-3.6958,-3.4376,-3.0883,-2.6996,-2.5595,-2.4086,-2.2571,0.0,0.0,0.0,0.0,0.0,0.0,0.0,0.0,0.0,0.0,0.0,0.0,0.0,0.0,0.0,0.0,0.0,0.0,0.0,0.0,0.0,0.0,0.0,0.0,0.0,0.0,0.0,0.0,0.0,0.0,0.0,0.0,0.0,0.0,0.0,-4.071,-4.0221,-4.362,-4.4976,-4.23,-4.2187,-4.2451,-4.2904,-4.4575,-4.614,-4.748,-4.9095,-4.9994,-4.9994,-4.9719,-4.9315,-4.8746,-4.8453,-4.8306,-4.8306,-4.8306,-4.8159,-4.7884,-4.7076,-4.6269,-4.5461,-4.4635,-4.3681,-4.2671,-4.2415,-4.1203,-3.9386,-3.8046,-3.7331,-3.7044,-3.711,-3.6927,-3.6597,0.0,0.0,0.0,0.0,0.0,0.0,0.0,0.0,0.0,-2.1149,-2.2229,-2.4129,-2.746,-2.7972,-2.8695,-3.0229,-2.7996,-2.575,-2.395,-2.2142,-2.1174,-2.1249,-2.2838,-2.5211,-2.839,-2.9936,-3.2242,-3.5383,-3.6095,-3.683,-3.7544,-3.7794,-3.8358,-3.9129,-3.9376,-3.9152,-3.8544,-3.7692,-3.4093,-2.8886,-2.8008,-2.67,-2.517,0.0,0.0,0.0,0.0,0.0,0.0,0.0,0.0,0.0,0.0,0.0,0.0,0.0,0.0,0.0,0.0,0.0,0.0,0.0,0.0,0.0,0.0,0.0,0.0,0.0,0.0,0.0,0.0,0.0,0.0,0.0,0.0,0.0,-3.509,-4.028,-4.3767,-4.2182,-4.6776,-4.8825,-4.5642,-4.7314,-4.8586,-4.8567,-4.9283,-5.0034,-5.0802,-5.0857,-5.0875,-5.0839,-5.0068,-4.9627,-4.9591,-4.8765,-4.8343,-4.8306,-4.8306,-4.7902,-4.7131,-4.6342,-4.5516,-4.469,-4.3901,-4.3534,-4.3424,-4.2653,-4.1882,-4.1093,-4.023,-4.0359,-4.0855,-3.9313,-3.9203,-3.9625,0.0,0.0,0.0,0.0,0.0,0.0,0.0,0.0,-1.9838,-2.0317,-2.2812,-2.4915,-2.5918,-2.823,-2.9676,-2.9539,-2.7725,-2.6044,-2.4827,-2.3044,-2.2816,-2.4584,-2.616,-2.854,-3.179,-3.2743,-3.4507,-3.71,-3.7267,-3.7727,-3.8431,-3.8479,-3.8689,-3.9101,-3.9183,-3.8864,-3.83,-3.812,-3.6852,-3.4793,-3.227,-3.029,-2.8701,0.0,0.0,0.0,0.0,0.0,0.0,0.0,0.0,0.0,0.0,0.0,0.0,0.0,0.0,0.0,0.0,0.0,0.0,0.0,0.0,0.0,0.0,0.0,0.0,0.0,0.0,0.0,0.0,0.0,0.0,0.0,0.0,-4.1352,-4.0663,-4.4581,-4.7834,-4.8646,-5.0527,-5.1417,-5.0546,-5.0472,-5.0434,-5.0377,-5.1095,-5.1648,-5.1888,-5.2361,-5.2357,-5.175,-5.1467,-5.0765,-4.9591,-4.9352,-4.893,-4.8306,-4.8306,-4.8196,-4.7976,-4.7737,-4.6874,-4.5553,-4.5333,-4.458,-4.3461,-4.3259,-4.3039,-4.2635,-4.0671,-3.968,-3.9386,-3.9515,-3.9331,-3.8872,0.0,0.0,0.0,0.0,0.0,0.0,0.0,0.0,-2.0077,-2.0497,-2.3269,-2.5362,-2.5802,-2.7928,-2.8978,-2.814,-2.6512,-2.4941,-2.3572,-2.3398,-2.4322,-2.6462,-2.8689,-3.1252,-3.4139,-3.4921,-3.627,-3.8294,-3.8208,-3.839,-3.8792,-3.9068,-3.9307,-3.9478,-3.9819,-3.9844,-3.9664,-3.9682,-3.9556,-3.9226,-3.749,-3.5236,-3.2756,-3.1503,-3.0758,-3.028,-2.9856,-3.0407,-3.0931,-2.8493,0.0,0.0,0.0,0.0,0.0,0.0,0.0,0.0,0.0,0.0,0.0,0.0,0.0,0.0,0.0,0.0,0.0,0.0,0.0,0.0,0.0,0.0,0.0,0.0,-4.3278,-4.6267,-4.7307,-4.9152,-5.0898,-5.2252,-5.3346,-5.3825,-5.3528,-5.3286,-5.3006,-5.2652,-5.3038,-5.3148,-5.2816,-5.3101,-5.3097,-5.2618,-5.2224,-5.1536,-5.06,-5.027,-4.9664,-4.8838,-4.8838,-4.8655,-4.8306,-4.7957,-4.7113,0.0,-4.5535,-4.4672,-4.3497,-4.3497,-4.3296,0.0,0.0,0.0,0.0,0.0,-3.9882,-3.9129,0.0,0.0,0.0,0.0,0.0,0.0,0.0,0.0,-2.0115,-2.1022,-2.3346,-2.5236,-2.6071,-2.6973,-2.7174,-2.6296,-2.4749,-2.3201,-2.1692,-2.3649,-2.5788,-2.7907,-3.0904,-3.3561,-3.5837,-3.6658,-3.7716,-3.9007,-3.891,-3.8822,-3.884,-3.9559,-3.9958,-4.0038,-4.0809,-4.1366,-4.1819,-4.1733,-4.1912,-4.2228,-4.2456,-4.0324,-3.681,-3.5302,-3.4579,-3.4292,-3.3282,-3.2642,-3.2188,-3.1707,0.0,0.0,0.0,0.0,0.0,0.0,0.0,0.0,0.0,0.0,0.0,0.0,0.0,0.0,0.0,0.0,0.0,0.0,0.0,0.0,0.0,0.0,0.0,0.0,-4.7939,-5.1379,-5.3868,-5.3608,-5.3385,-5.4017,-5.5294,-5.5847,-5.5121,-5.5577,-5.5609,-5.4778,-5.4722,-5.4371,-5.3576,0.0,0.0,0.0,0.0,-5.2087,-5.1995,-5.1279,-5.049,-4.9591,-4.9591,-4.9132,-4.8288,-4.7572,-4.6819,-4.5993,-4.5186,-4.4378,-4.3626,-4.3534,-4.3075,-4.2415,-4.2249,-4.2653,-4.3167,-4.1662,-4.0708,0.0,0.0,0.0,0.0,0.0,0.0,0.0,0.0,0.0,-1.9894,-2.0134,-2.1885,-2.3182,-2.3438,-2.4849,-2.5425,-2.4551,-2.3492,-2.3229,-2.4044,-2.5196,-2.7735,-3.2031,-3.412,-3.5957,-3.7654,-3.8369,-3.8885,-3.9156,-3.9036,-3.895,-3.8987,-3.9723,-4.008,-4.0099,-4.0966,-4.1767,-4.2434,-4.2465,-4.259,-4.2735,-4.2857,-4.1456,-3.9259,-3.9128,-3.8209,-3.6854,-3.591,-3.673,-3.7807,-3.5077,-3.5224,-3.591,-3.2373,-3.0244,0.0,0.0,0.0,0.0,0.0,0.0,0.0,0.0,0.0,0.0,0.0,0.0,0.0,0.0,0.0,0.0,0.0,0.0,0.0,-4.7578,-5.0876,-5.3961,-5.645,-5.6655,-5.6376,-5.5874,-5.6097,-5.6187,-5.6039,-5.615,-5.585,-5.4997,-5.4923,-5.457,-5.3773,-5.3561,0.0,-5.344,-5.3125,-5.2656,-5.1995,-5.1848,-5.1022,-4.9591,0.0,0.0,-4.8306,-4.8141,-4.7645,-4.6838,-4.603,-4.5204,-4.4415,-4.3754,-4.3406,-4.313,-4.1846,-4.1827,-4.2415,-4.146,-4.1423,-4.1644,0.0,0.0,0.0,0.0,0.0,0.0,0.0,0.0,-1.8807,-1.9687,-2.1032,-2.1878,-2.1852,-2.3092,-2.3515,-2.2582,-2.2121,-2.2942,-2.5389,-2.7119,-2.9891,-3.4017,-3.6128,-3.7717,-3.8882,-3.9156,-3.9256,-3.921,-3.9064,-3.8979,-3.9016,-4.0159,-4.0954,-4.1447,-4.2673,-4.3703,-4.4559,-4.4508,-4.4294,-4.4011,-4.417,-4.2801,-4.0747,-4.0713,-3.9825,-3.8565,-3.8228,-3.8523,-3.8844,-3.7159,-3.7115,-3.731,-3.4749,-3.3116,-3.1748,0.0,0.0,0.0,0.0,0.0,0.0,0.0,0.0,0.0,0.0,0.0,0.0,0.0,0.0,-4.0663,0.0,0.0,-4.868,-5.1527,-5.4035,-5.6227,-5.7881,-5.8103,-5.7806,-5.7008,-5.7024,-5.7056,-5.6893,-5.7024,-5.6705,-5.5705,-5.5652,-5.5113,-5.3868,-5.3658,-5.3558,-5.3499,-5.3336,-5.3028,-5.2601,-5.2601,-5.1793,-5.0196,-5.0196,-4.9536,-4.8306,-4.8306,-4.7865,-4.7076,-4.625,-4.5443,-4.4654,-4.3828,-4.3497,-4.3406,-4.2598,-4.2304,-4.2249,-4.1864,-4.1699,-4.1589,0.0,0.0,0.0,0.0,0.0,0.0,0.0,0.0,0.0,-1.9519,-2.0383,-2.0847,-2.0753,-2.1456,-2.1625,-2.081,-2.101,-2.2703,-2.6241,-2.8867,-3.183,-3.5305,-3.7595,-3.9033,-3.9623,-3.9483,-3.9421,-3.9452,-3.9333,-3.9415,-3.9767,-4.1181,-4.231,-4.3262,-4.4679,-4.5857,-4.6717,-4.6446,-4.5968,-4.5323,-4.5313,-4.3769,-4.1471,-4.1236,-4.0446,-3.9445,-3.9358,-3.8671,-3.7807,-3.8019,-3.7643,-3.7,-3.6563,-3.5778,-3.4532,-3.2,-3.0934,0.0,0.0,0.0,0.0,0.0,0.0,0.0,0.0,0.0,-3.9256,-4.1865,-4.3141,-4.4873,-4.8308,-5.028,-5.2307,-5.5039,-5.6747,-5.7973,-5.8624,-5.8586,-5.8234,-5.7583,-5.7821,-5.7954,-5.7747,-5.7973,-5.7681,-5.6614,-5.6574,-5.5829,-5.4128,-5.3956,-5.3822,-5.3499,-5.3359,-5.3295,-5.3206,-5.3059,-5.2252,-5.0802,-5.0637,-4.9774,-4.8306,-4.8306,-4.7957,-4.7297,-4.6324,-4.5351,-4.4415,-4.3754,-4.3497,-4.3497,-4.3497,-4.3002,-4.2323,-4.2488,-4.2121,-4.1534,0.0,0.0,0.0,0.0,0.0,0.0,0.0,0.0,0.0,-1.9668,-1.975,-1.98,-1.9845,-1.9957,-1.9926,-1.9769,-2.059,-2.2822,-2.6849,-2.9703,-3.3001,-3.6956,-3.8809,-3.9728,-3.9693,-3.9508,-3.9728,-4.0456,-4.0309,-4.0977,-4.2407,-4.3268,-4.4159,-4.5045,-4.6001,-4.6857,-4.7516,-4.6838,-4.6387,-4.6036,-4.5315,-4.3461,-4.1093,-4.1292,-4.0514,-3.9139,-3.7793,-3.6761,-3.6129,-3.6944,-3.7127,-3.7248,-3.8558,-3.7853,-3.6074,-3.3631,-3.1376,-2.9436,-2.852,-2.9514,-3.1514,-3.4452,-3.5347,-3.7161,0.0,0.0,-4.527,-4.846,-5.0302,-5.1732,-5.2902,-5.4481,-5.5967,-5.7045,-5.7992,-5.8605,-5.8698,-5.8085,-5.7602,-5.7509,-5.8174,-5.8619,-5.8586,-5.8821,-5.8528,-5.745,-5.7512,-5.6823,-5.4944,-5.4791,-5.4396,-5.3518,-5.3359,-5.3295,-5.3206,-5.2491,-5.1683,-5.0802,-5.0068,-4.9224,-4.8306,-4.8306,-4.8251,-4.8086,-4.6562,-4.5039,-4.3626,-4.3534,-4.3497,-4.3497,-4.3497,-4.3002,-4.2396,-4.3094,-4.3296,-4.302,0.0,0.0,0.0,0.0,0.0,0.0,0.0,0.0,0.0,0.0,0.0,-1.8997,-1.9425,-1.9471,-1.9499,-1.9587,-2.0891,-2.3291,-2.7066,-3.0276,-3.3703,-3.7395,-3.9064,-3.9867,-3.9826,-3.9583,-3.9862,-4.0667,-4.0989,-4.1723,-4.2876,-4.4178,-4.5239,-4.6108,-4.6991,-4.7532,-4.7731,-4.7411,-4.6624,-4.5534,-4.5167,-4.3413,-4.1024,-4.0625,-3.916,-3.722,-3.6447,-3.524,0.0,-3.4678,-3.5533,-3.6499,-3.7605,-3.7424,-3.6404,-3.4381,-3.3008,-3.227,-3.273,-3.3753,0.0,0.0,-4.0886,-4.3245,-4.7036,-4.8404,-4.965,-5.2419,-5.3924,-5.515,-5.6432,-5.723,-5.7806,0.0,-5.8494,-5.8716,-5.8716,-5.8011,-5.7223,-5.6496,-5.6676,-5.702,-5.7475,-5.7061,-5.6824,-5.7007,-5.6691,-5.6043,-5.5037,-5.4535,-5.401,-5.3499,-5.3459,-5.3557,-5.3904,-5.2637,-5.183,-5.1481,-5.0196,-4.9132,-4.8306,-4.8306,-4.7792,-4.6874,-4.6195,-4.4984,-4.3497,-4.3497,-4.3497,-4.3497,-4.3497,-4.3277,-4.3039,-4.3369,-4.3185,-4.2708,0.0,0.0,0.0,0.0,0.0,0.0,0.0,0.0,0.0,0.0,0.0,0.0,0.0,-1.928,-1.9329,-1.9493,-2.0875,-2.3146,-2.6439,-2.9867,-3.3327,-3.6783,-3.8609,-3.9712,-4.0185,-3.9739,-4.0001,-4.1012,-4.1717,-4.2592,-4.3636,-4.509,-4.619,-4.701,-4.746,-4.7578,-4.7462,-4.7271,-4.6229,-4.4716,-4.4447,-4.2732,-4.0258,-3.9388,-3.721,-3.4608,-3.4513,-3.33,-3.1787,-3.2142,-3.2882,-3.3982,-3.5651,-3.5969,-3.5529,-3.4494,-3.3926,-3.3921,-3.509,0.0,0.0,-4.2206,-4.5771,-4.8845,-5.0102,-5.1657,-5.3357,-5.5194,-5.6016,-5.6747,-5.7913,-5.8095,-5.8122,-5.8345,-5.822,-5.8177,-5.8341,-5.733,-5.6164,-5.5043,-5.4374,-5.4326,-5.5231,-5.5173,-5.5443,-5.6291,-5.6118,-5.5673,-5.5037,-5.4686,-5.4199,-5.3558,-5.3539,-5.3695,-5.4093,-5.2454,-5.1665,-5.1646,-5.0013,-4.8912,-4.8306,-4.8306,-4.7425,-4.5902,-4.5902,-4.4984,-4.3497,-4.3497,-4.3497,-4.3497,-4.3497,-4.3497,-4.3497,-4.3497,-4.313,-4.2543,0.0,0.0,0.0,0.0,0.0,0.0,0.0,0.0,0.0,0.0,0.0,0.0,0.0,0.0,-1.9164,-1.9289,-2.0244,-2.1965,-2.461,-2.8045,-3.1478,-3.4851,-3.7289,-3.9297,-4.092,-3.999,-4.0282,-4.1855,-4.2604,-4.3799,-4.5443,-4.6284,-4.7124,-4.7927,-4.7149,-4.6763,-4.6587,-4.5879,-4.4885,-4.3781,-4.3005,-4.1006,-3.8396,-3.7593,-3.4809,-3.1381,-3.1569,-3.0525,-2.9159,-2.9504,-2.9041,-2.9035,-3.3106,-3.3759,0.0,-3.3895,-3.3407,-3.2794,-3.3496,-3.7316,-4.1659,-4.4026,-4.8549,-5.2695,-5.3799,-5.5328,-5.663,-5.6889,-5.6799,-5.6693,-5.6748,-5.657,-5.6636,-5.7416,-5.7094,-5.6945,-5.7446,-5.5649,-5.4032,-5.3267,-5.1377,-5.0579,0.0,-5.376,-5.5209,-5.5511,-5.6466,-5.6445,-5.5092,-5.5782,-5.5463,-5.3769,-5.3558,-5.3459,-5.3336,-5.1669,-5.0839,-5.082,-4.915,-4.8343,-4.8306,-4.8306,-4.7425,-4.5902,-4.5902,-4.4984,-4.3497,-4.3497,-4.3497,-4.3497,-4.3497,-4.3497,-4.3497,-4.3497,-4.3461,-4.3112,0.0,0.0,0.0,0.0,0.0,0.0,0.0,0.0,0.0,0.0,0.0,0.0,0.0,0.0,0.0,0.0,-2.0089,-2.152,-2.3701,-2.7027,-2.994,-3.2276,-3.5205,-3.7288,-3.8395,-3.8509,-3.9388,-4.1052,-4.1792,-4.2686,-4.3797,-4.4685,-4.5256,-4.5536,-4.5308,-4.5148,-4.5021,-4.4132,-4.3509,-4.2884,-4.0917,-3.9498,-3.8217,-3.5271,-3.2912,-3.0961,0.0,-2.7954,-2.7514,-2.7753,-2.8331,-2.9314,-3.1247,-3.1566,-3.1444,-3.2517,-3.3031,-3.3978,-3.7433,-4.0789,-4.4309,-4.8351,-5.1798,-5.4581,-5.5861,-5.6982,-5.7333,-5.5843,-5.4774,-5.3822,-5.2871,-5.255,-5.2909,-5.4275,-5.5011,-5.5686,-5.6355,-5.5785,-5.4531,-5.243,-5.1994,0.0,0.0,0.0,0.0,-5.4409,-5.4817,-5.5062,-5.5349,-5.5054,-5.4746,-5.4371,-5.3817,-5.3676,-5.402,-5.2422,-5.1591,-5.1573,-4.937,-4.8306,-4.8288,-4.7755,-4.6929,-4.5865,-4.5351,-4.4488,-4.3497,-4.3497,-4.3497,-4.3497,-4.3497,-4.3497,-4.3424,-4.2892,-4.3039,-4.3369,0.0,0.0,0.0,0.0,0.0,0.0,0.0,0.0,0.0,0.0,0.0,0.0,0.0,0.0,0.0,0.0,0.0,-2.076,-2.2387,-2.5057,-2.7373,-2.9133,-3.175,-3.37,-3.4783,-3.5254,-3.6142,-3.7524,-3.8872,-3.9796,-4.0364,-4.1857,-4.2558,-4.2558,-4.2595,-4.2539,-4.2416,-4.1501,-4.0698,-3.9838,-3.7923,-3.6527,-3.5292,-3.2423,-3.0619,0.0,-2.7061,-2.6297,-2.6373,-2.6785,-2.7358,-2.8202,-2.9906,-3.0917,-3.1583,-3.2383,-3.4075,-3.664,-4.0854,-4.4485,-4.7968,-5.1955,-5.5023,-5.7119,-5.7171,-5.7169,-5.6467,-5.394,-5.1816,-5.0119,-4.9232,-4.8674,-4.8992,-5.0936,-5.1873,-5.2918,-5.4418,-5.4254,-5.3554,-5.2485,-5.2126,-5.1627,0.0,0.0,0.0,-5.3046,-5.3635,-5.4205,-5.4756,-5.4537,-5.4433,-5.4454,-5.3681,-5.3492,-5.3983,-5.2403,-5.1261,-5.0655,-4.9058,-4.8306,-4.8269,-4.748,-4.6673,-4.5865,-4.5057,-4.425,-4.3497,-4.3497,-4.3497,-4.3497,-4.3497,-4.3497,-4.3424,-4.291,-4.3057,-4.3406,0.0,0.0,0.0,0.0,0.0,0.0,0.0,0.0,0.0,0.0,0.0,0.0,0.0,0.0,0.0,0.0,0.0,0.0,-2.0751,-2.2349,-2.3934,-2.5536,-2.7251,-2.8913,-3.046,-3.0532,-3.098,-3.1862,-3.4134,-3.5315,-3.5418,-3.7773,-3.8876,-3.8876,-3.8876,-3.8835,-3.8701,-3.7865,-3.657,-3.4952,-3.4083,-3.2336,-3.0112,-2.9246,-2.7985,-2.6589,-2.5741,-2.5485,-2.5671,-2.6559,-2.6307,-2.6191,-2.941,-3.1846,-3.3526,-3.3749,-3.6699,-4.0595,-4.3695,-4.8111,-5.235,-5.4634,-5.7819,-5.9817,-5.767,-5.6044,-5.4154,-5.1228,-4.8075,-4.5785,0.0,0.0,-4.5077,-4.7524,-4.8063,-4.9184,-5.2025,-5.1382,-5.1379,0.0,0.0,0.0,0.0,0.0,0.0,-5.1571,0.0,-5.3788,-5.3472,-5.4225,-5.444,-5.4062,-5.3251,-5.2937,-5.3258,-5.1614,-4.9976,-4.8379,-4.8324,-4.8288,-4.8214,-4.7425,-4.6617,-4.5792,-4.5002,-4.4213,-4.3497,-4.3497,-4.3497,-4.3497,-4.3497,-4.3497,-4.3497,-4.3497,-4.3497,-4.3277,0.0,0.0,0.0,0.0,0.0,0.0,0.0,0.0,0.0,0.0,0.0,0.0,0.0,0.0,0.0,0.0,0.0,0.0,-1.9767,-2.138,-2.2526,-2.2957,-2.5149,-2.6842,-2.7844,-2.8417,-2.9082,-2.9919,-3.0531,-3.0869,-3.095,-3.1626,-3.1946,-3.1968,-3.2008,-3.2322,-3.2776,-3.2548,-3.2516,-3.2471,-3.1053,-3.0392,-2.9921,-2.744,-2.6574,-2.6536,-2.5171,-2.469,-2.4986,-2.6859,-2.9168,-3.1565,-3.3149,-3.4697,-3.6327,-3.8492,-4.0994,-4.3961,-4.8076,-5.1369,-5.4049,-5.5794,-5.6917,-5.7051,-5.4776,-5.3117,-5.0964,-4.7342,-4.4289,-4.1774,0.0,0.0,0.0,-4.4928,-4.7583,0.0,-5.2644,-5.3664,0.0,-5.3369,0.0,-5.3274,-5.3097,-5.2283,0.0,0.0,-5.2815,-5.3264,-5.3,-5.3596,-5.3803,-5.3442,-5.2862,-5.2599,-5.2635,-5.1407,-5.0288,-4.9242,-4.8618,-4.7994,-4.7388,-4.6581,-4.5773,-4.4966,-4.4158,-4.3681,-4.3497,-4.3497,-4.3497,-4.3497,-4.3497,-4.3497,-4.3497,-4.3497,-4.3497,-4.3424,0.0,0.0,0.0,0.0,0.0,0.0,0.0,0.0,0.0,0.0,0.0,0.0,0.0,0.0,0.0,0.0,0.0,0.0,0.0,-2.037,-2.0938,-2.0893,-2.224,-2.3186,-2.3652,-2.4709,-2.5337,-2.5429,-2.6849,-2.7221,-2.6595,-2.769,-2.8231,-2.8289,-2.8662,-2.9275,-2.9956,-2.9561,-2.9444,0.0,0.0,-2.7627,-2.7414,-2.5707,-2.5319,-2.5578,-2.4672,-2.5389,-2.7083,-2.9101,0.0,-3.477,-3.6277,-3.7959,-3.9931,-4.2857,0.0,-4.7639,-5.1349,-5.4086,-5.6052,-5.6912,-5.6859,-5.5736,-5.2529,-5.0031,-4.7266,-4.3147,-4.0286,0.0,-3.6738,0.0,0.0,0.0,0.0,0.0,-5.1277,-5.2997,-5.413,0.0,-5.4415,0.0,-5.4553,-5.3341,-5.2523,0.0,-5.2611,-5.2619,-5.2467,-5.2731,-5.2874,-5.2848,-5.242,-5.2027,-5.1723,-5.0753,-4.9848,-4.9022,-4.8526,-4.7884,-4.7095,-4.6269,-4.5461,-4.4672,0.0,-4.3497,-4.3497,-4.3497,-4.3497,-4.3497,-4.3497,-4.3497,-4.3497,-4.3497,-4.3497,-4.3497,0.0,0.0,0.0,0.0,0.0,0.0,0.0,0.0,0.0,0.0,0.0,0.0,0.0,0.0,0.0,0.0,0.0,0.0,0.0,0.0,-1.9541,-1.9501,-1.9493,-1.9493,-1.9501,-2.0894,-2.1285,-2.0586,-2.3492,-2.4209,-2.2958,-2.5058,-2.6074,-2.6151,-2.6853,-2.7574,-2.8181,-2.753,-2.6864,-2.6162,-2.5595,-2.4931,-2.4321,0.0,-2.4394,-2.4394,-2.4321,-2.6548,-2.9823,-3.1865,-3.4382,-3.7062,-3.9369,-4.1665,-4.4078,-4.699,-4.919,-5.1246,-5.402,-5.6332,-5.793,-5.7825,-5.6964,-5.5022,-5.0665,-4.6994,-4.3359,-3.9224,0.0,-3.505,-3.4882,-3.5579,-3.695,-3.935,0.0,-4.6081,-4.9381,-5.1189,-5.3095,-5.5755,-5.5133,-5.4948,-5.6093,-5.4391,-5.3173,-5.3173,-5.2365,-5.1856,-5.1801,-5.1794,-5.1891,-5.213,-5.1815,-5.1282,-5.0655,-4.9939,-4.915,-4.8306,-4.8306,-4.7829,-4.6929,-4.6214,-4.5406,-4.4507,0.0,0.0,-4.3497,-4.3497,-4.3497,-4.3497,-4.3497,-4.3497,-4.3497,-4.3497,-4.3497,-4.3497,0.0,0.0,0.0,0.0,0.0,0.0,0.0,0.0,0.0,0.0,-1.9127,-1.9251,0.0,0.0,0.0,0.0,0.0,0.0,0.0,0.0,0.0,-1.9501,-1.9453,-1.942,-1.9424,-2.0283,-2.0653,-2.0525,-2.1698,-2.2155,-2.1935,-2.2373,-2.2575,-2.2611,-2.2847,-2.3011,-2.3105,-2.3676,-2.386,-2.3768,-2.4303,-2.4414,-2.4284,-2.4303,0.0,0.0,-2.4229,-2.5876,-2.8615,-3.2183,-3.6576,-4.0961,-4.3459,-4.605,-4.8633,-5.1083,-5.2662,-5.409,-5.6526,-5.7983,-5.8632,-5.7965,-5.5771,-5.2772,-4.897,-4.418,0.0,0.0,-3.5001,-3.3405,-3.3095,-3.4319,-3.6469,-3.9799,-4.2474,0.0,0.0,0.0,-5.3405,0.0,0.0,0.0,0.0,0.0,0.0,0.0,0.0,0.0,-5.085,-5.1346,-5.1345,-5.0788,-5.0709,-5.0361,-4.9811,-4.9646,-4.915,-4.8306,-4.8306,-4.7535,-4.6104,-4.5957,-4.5094,-4.3699,0.0,0.0,-4.3497,-4.3497,-4.3497,-4.3497,-4.3497,-4.3497,-4.3497,-4.3497,-4.3497,-4.3497,0.0,0.0,0.0,0.0,0.0,0.0,0.0,-1.9018,-1.9036,-1.9137,-1.9086,-1.9101,-1.9282,-1.9232,-1.9184,0.0,0.0,0.0,0.0,0.0,0.0,0.0,0.0,0.0,0.0,-2.0523,0.0,0.0,0.0,-2.2353,-2.1607,0.0,0.0,0.0,-2.2392,-2.2648,-2.307,-2.3474,-2.364,-2.3713,-2.4081,-2.4247,0.0,0.0,0.0,0.0,0.0,-2.5986,-2.8753,-3.1472,-3.5968,-4.1144,-4.5254,-4.7911,-5.0014,-5.2636,-5.3956,-5.4979,-5.7218,-5.8088,-5.8193,-5.7386,-5.4559,-5.0875,-4.6448,0.0,0.0,0.0,-3.3358,-3.2535,-3.2273,-3.3916,0.0,-3.8008,-4.02,-4.3286,-4.7953,0.0,0.0,0.0,0.0,0.0,0.0,0.0,0.0,0.0,0.0,0.0,-5.0747,-5.0749,-5.0682,-5.0392,-4.984,-4.9521,-4.9591,-4.9132,-4.871,-4.8306,-4.8306,-4.7462,-4.5902,-4.5902,-4.5021,-4.3497,0.0,0.0,-4.3497,-4.3497,-4.3497,-4.3497,-4.3497,-4.3497,-4.3497,-4.3497,-4.3497,-4.3497,0.0,0.0,0.0,0.0,0.0,0.0,0.0,-1.8896,-1.8949,-1.9036,-1.8931,-1.8931,-1.912,-1.9084,-1.9122,0.0,0.0,0.0,0.0,0.0,0.0,0.0,0.0,0.0,0.0,0.0,0.0,0.0,0.0,0.0,0.0,0.0,0.0,0.0,0.0,0.0,0.0,-2.4094,-2.4114,0.0,0.0,0.0,0.0,0.0,0.0,0.0,0.0,-2.5981,-2.8662,-3.0421,-3.4215,-3.9034,-4.3919,-4.7066,-4.9485,-5.2187,-5.3709,-5.4956,-5.7376,-5.807,-5.7825,-5.6842,-5.3471,-4.9151,-4.4378,-3.9921,0.0,-3.2834,-3.1926,-3.1725,-3.1858,-3.3409,-3.4999,0.0,-3.7869,-4.0724,-4.5335,-4.7304,-4.9644,0.0,0.0,0.0,0.0,0.0,0.0,0.0,0.0,0.0,0.0,-5.0206,-4.9933,-4.9875,-4.9091,-4.8925,-4.9315,-4.8636,-4.8306,-4.8306,-4.8306,-4.7462,-4.5902,-4.5902,-4.5021,-4.3497,0.0,0.0,0.0,-4.3681,-4.3644,-4.3497,-4.3497,-4.3497,-4.3497,-4.3497,-4.3497,-4.3497,0.0,0.0,0.0,0.0,0.0,0.0,0.0,-1.877,-1.877,-1.8896,-1.8807,-1.877,-1.8896,-1.8913,-1.9236,0.0,0.0,0.0,0.0,0.0,0.0,0.0,0.0,0.0,0.0,0.0,0.0,0.0,0.0,0.0,0.0,0.0,0.0,0.0,0.0,0.0,0.0,0.0,0.0,0.0,0.0,0.0,0.0,0.0,0.0,0.0,0.0,-2.5168,-2.7053,-2.9357,0.0,-3.4673,-3.733,-4.2031,-4.6924,-4.9079,0.0,0.0,-5.7921,-5.8895,-5.8527,-5.6982,-5.2646,-4.7779,-4.413,0.0,-3.3901,-3.2473,-3.1039,-3.0414,-3.166,-3.208,-3.31,-3.5759,-3.6984,-3.9177,-4.3684,-4.6209,0.0,0.0,0.0,0.0,0.0,0.0,0.0,0.0,0.0,0.0,0.0,-4.9661,-4.9336,-4.8253,-4.8515,-4.8592,-4.8434,-4.8343,-4.8306,-4.8306,-4.8306,-4.7462,-4.5902,-4.5902,-4.5021,-4.3534,0.0,0.0,0.0,-4.4287,-4.4158,-4.3497,-4.3497,-4.3497,-4.3497,-4.3497,-4.3497,-4.3497,0.0,0.0,0.0,0.0,0.0,0.0,-1.8675,-1.8696,-1.8734,-1.8824,-1.8806,-1.8806,-1.8896,-1.8843,-1.9111,-1.9952,0.0,0.0,0.0,0.0,0.0,0.0,0.0,0.0,0.0,0.0,0.0,0.0,0.0,0.0,0.0,0.0,0.0,0.0,0.0,0.0,0.0,0.0,0.0,0.0,0.0,0.0,0.0,0.0,0.0,0.0,0.0,0.0,-2.6728,0.0,0.0,0.0,-3.2245,-3.5187,0.0,0.0,-4.8857,-5.2183,-5.5303,-5.6859,-5.707,-5.5051,-5.1171,-4.6794,-4.28,0.0,-3.3508,-3.1823,-3.0568,-3.0133,-3.1173,-3.1769,-3.2613,-3.4221,-3.4235,0.0,-4.0093,0.0,0.0,0.0,0.0,0.0,0.0,0.0,0.0,0.0,0.0,0.0,0.0,-4.9301,-4.9017,-4.7625,-4.8168,-4.8265,-4.7856,-4.8172,-4.8306,-4.8306,-4.7829,-4.7003,-4.5883,-4.5406,-4.4562,-4.3516,0.0,0.0,0.0,-4.3846,-4.3791,-4.3497,-4.3497,-4.3497,-4.3497,-4.3497,-4.3497,-4.3497,0.0,0.0,0.0,0.0,0.0,-1.8465,-1.8502,-1.8563,-1.8639,-1.8714,-1.8714,-1.8714,-1.8806,-1.8715,-1.896,-1.9772,-1.9427,0.0,0.0,0.0,0.0,0.0,0.0,0.0,0.0,0.0,0.0,-2.2106,0.0,0.0,0.0,0.0,0.0,0.0,0.0,0.0,0.0,0.0,0.0,0.0,0.0,0.0,0.0,0.0,0.0,0.0,0.0,0.0,0.0,0.0,0.0,-3.0008,-2.8947,-3.0417,-3.38,-4.03,-4.5009,-4.8802,-5.2072,-5.4226,-5.5086,-5.3015,-4.9451,-4.5394,0.0,0.0,-3.2872,-3.102,-2.9989,-2.9654,-3.0469,-3.1265,-3.205,-3.2727,-3.2709,-3.3895,-3.766,-3.8461,0.0,0.0,0.0,0.0,0.0,0.0,0.0,0.0,0.0,0.0,0.0,-4.8997,-4.859,-4.7011,-4.771,-4.7937,-4.7591,-4.8093,-4.8196,-4.7957,-4.7388,-4.6562,-4.5535,-4.4966,-4.4268,0.0,0.0,0.0,0.0,-4.3754,-4.3699,-4.3497,-4.3497,-4.3497,-4.3497,-4.3497,-4.3497,-4.3497,0.0,0.0,0.0,0.0,0.0,0.0,-1.831,-1.8348,-1.8463,-1.8579,-1.8483,-1.8465,-1.8603,-1.8526,-1.8838,-1.9626,-1.9747,0.0,0.0,0.0,0.0,0.0,0.0,0.0,0.0,0.0,-2.1886,-2.1218,-2.2749,-2.3043,0.0,0.0,0.0,0.0,0.0,0.0,0.0,0.0,0.0,0.0,0.0,0.0,0.0,0.0,0.0,0.0,0.0,0.0,0.0,0.0,0.0,0.0,0.0,-2.8718,-3.0901,-3.5298,-3.9863,-4.4405,-4.8622,-5.1435,-5.2839,-5.1294,-4.7548,-4.3236,0.0,0.0,-3.1516,-3.0107,-2.9122,-2.8763,-2.9575,-3.0369,-3.1106,-3.1715,-3.3136,-3.495,-3.7109,-3.8663,0.0,0.0,0.0,0.0,0.0,0.0,0.0,0.0,0.0,0.0,0.0,0.0,-4.7849,-4.6239,-4.7115,-4.7591,-4.7591,-4.8093,-4.7921,-4.7131,-4.7113,-4.6269,-4.4727,-4.4709,0.0,0.0,0.0,0.0,0.0,-4.436,-4.4213,-4.3497,-4.3497,-4.3497,-4.3497,-4.3497,-4.3497,-4.3497,0.0,0.0,0.0,0.0,0.0,0.0,0.0,-1.8266,-1.8368,-1.8463,-1.8443,-1.8406,-1.8465,-1.8408,-1.8473,-1.8717,-1.8891,0.0,0.0,0.0,0.0,0.0,0.0,0.0,0.0,0.0,-2.1428,-2.1808,-2.2304,-2.2675,-2.2964,-2.3236,0.0,0.0,0.0,0.0,0.0,0.0,0.0,0.0,0.0,0.0,0.0,0.0,0.0,0.0,0.0,0.0,0.0,0.0,0.0,0.0,0.0,0.0,0.0,-3.1142,-3.5137,-3.9348,-4.2101,-4.4208,-4.5234,-4.3642,-4.1817,-3.9544,-3.6257,0.0,-3.141,-2.9953,-2.9017,-2.8658,-2.9422,-3.0258,-3.1379,-3.2959,-3.4153,-3.5438,0.0,0.0,0.0,0.0,0.0,0.0,0.0,0.0,0.0,0.0,0.0,0.0,0.0,0.0,-4.7771,-4.6639,-4.6944,-4.7115,-4.7115,-4.7591,-4.7594,-4.7075,-4.6544,-4.5736,-4.4709,-4.4709,0.0,0.0,0.0,0.0,0.0,-4.4378,-4.4232,-4.3497,-4.3497,-4.3497,-4.3497,-4.3497,-4.3497,-4.3497,0.0,0.0,0.0,0.0,0.0,0.0,0.0,-1.8018,-1.8125,-1.8263,-1.8263,-1.8263,-1.8325,-1.8266,-1.8225,-1.8263,-1.8363,0.0,0.0,0.0,0.0,0.0,0.0,0.0,0.0,-2.0726,-2.0823,-2.1163,-2.2048,-2.26,-2.2841,-2.3147,-2.3313,-2.336,0.0,0.0,0.0,0.0,0.0,0.0,0.0,0.0,-2.3674,0.0,0.0,0.0,0.0,0.0,0.0,0.0,0.0,0.0,0.0,0.0,0.0,0.0,-3.108,-3.4199,-3.7165,-3.9366,-4.0463,-3.915,-3.8107,0.0,0.0,0.0,-3.0603,-2.934,-2.8667,-2.8461,-2.8907,-2.9901,-3.1058,-3.2332,-3.3468,-3.4835,0.0,0.0,0.0,0.0,0.0,0.0,0.0,0.0,0.0,0.0,0.0,0.0,0.0,0.0,-4.7646,-4.6899,-4.672,-4.6489,-4.6187,-4.6841,-4.6735,-4.5971,-4.5608,-4.5039,-4.425,0.0,0.0,0.0,0.0,0.0,0.0,-4.4176,-4.3956,-4.3497,-4.3497,-4.3497,-4.3497,-4.3497,-4.3497,-4.3497,0.0,0.0,0.0,0.0,0.0,0.0,0.0,-1.7687,-1.7794,-1.8031,-1.8027,-1.8048,-1.8166,-1.8138,-1.8113,-1.819,0.0,0.0,0.0,0.0,0.0,0.0,0.0,0.0,0.0,-2.0021,-2.0171,-1.9668,-2.1896,-2.2722,-2.2177,-2.3,-2.3342,-2.3289,-2.3342,0.0,0.0,0.0,0.0,0.0,0.0,0.0,0.0,0.0,0.0,0.0,0.0,0.0,0.0,0.0,0.0,0.0,0.0,0.0,0.0,0.0,0.0,0.0,0.0,-3.6168,-3.7715,-3.6932,-3.5829,-3.4273,-3.1889,-3.042,0.0,-2.8379,-2.8182,-2.8172,-2.817,-2.9396,-3.0414,-3.0499,-3.1845,0.0,0.0,0.0,0.0,0.0,0.0,0.0,0.0,0.0,0.0,0.0,0.0,0.0,0.0,0.0,0.0,-4.6917,-4.6335,-4.5694,-4.4992,-4.5889,-4.5594,-4.4095,-4.451,-4.4287,-4.3497,0.0,0.0,0.0,0.0,0.0,0.0,-4.3864,-4.3534,-4.3497,-4.3497,-4.3497,-4.3497,-4.3497,-4.3497,-4.3497,0.0,0.0,0.0,0.0,0.0,0.0,0.0,0.0,0.0,0.0,-1.7816,-1.7878,-1.7971,-1.7949,-1.7966,0.0,0.0,0.0,0.0,0.0,0.0,0.0,0.0,0.0,0.0,-1.9326,-1.978,-2.0378,-2.1533,-2.2331,-2.2825,-2.3613,-2.3648,-2.3087,-2.3716,-2.3763,0.0,0.0,0.0,0.0,0.0,0.0,0.0,0.0,0.0,0.0,-2.3476,-2.3522,0.0,0.0,0.0,0.0,0.0,0.0,0.0,0.0,-2.6803,-2.7593,-2.862,0.0,-3.0794,-3.0528,-3.0671,-3.0516,0.0,-2.9151,-2.9126,-2.8213,-2.8042,-2.8191,-2.8706,-2.965,-3.0871,-3.2491,-3.404,-3.5676,0.0,0.0,0.0,0.0,0.0,0.0,0.0,0.0,0.0,0.0,0.0,0.0,0.0,0.0,0.0,-4.5979,-4.4644,-4.4237,-4.4975,-4.5579,-4.5246,-4.4095,-4.451,-4.4287,-4.3516,0.0,0.0,0.0,0.0,0.0,-4.3809,-4.425,-4.4066,-4.3497,-4.3497,-4.3497,-4.3497,-4.3497,-4.3497,-4.3497,0.0,0.0,0.0,0.0,0.0,0.0,0.0,0.0,0.0,0.0,0.0,0.0,0.0,0.0,0.0,0.0,0.0,0.0,0.0,0.0,0.0,0.0,0.0,0.0,-1.8323,-1.9192,-1.9898,-2.0453,-2.1648,-2.2443,-2.2919,-2.338,-2.3388,-2.3038,-2.349,-2.3488,0.0,0.0,0.0,0.0,-2.3313,0.0,0.0,0.0,0.0,0.0,-2.3383,-2.343,0.0,-2.3453,-2.3453,-2.3565,0.0,0.0,0.0,0.0,-2.5879,-2.6576,-2.6863,-2.7942,-2.8919,-2.8792,-2.9104,-2.9308,-2.8692,-2.8639,-2.8557,-2.7982,-2.7911,-2.8176,-2.8815,-2.9638,0.0,0.0,-3.4284,0.0,0.0,0.0,0.0,0.0,0.0,0.0,0.0,0.0,0.0,0.0,0.0,0.0,0.0,0.0,0.0,0.0,-4.4197,-4.385,-4.4164,-4.4466,-4.4121,-4.3242,-4.3871,-4.392,-4.3497,0.0,0.0,0.0,0.0,0.0,-4.4066,-4.4121,-4.3883,-4.3497,-4.3497,-4.3497,-4.3497,-4.3497,-4.3497,-4.3497,0.0,0.0,0.0,0.0,0.0,0.0,0.0,0.0,0.0,0.0,0.0,0.0,0.0,0.0,0.0,0.0,0.0,0.0,0.0,0.0,0.0,0.0,0.0,-1.7639,-1.7809,-1.9284,-2.0145,-2.0406,-2.2013,-2.284,-2.2937,-2.3093,-2.3172,-2.3127,-2.3055,-2.2995,0.0,0.0,0.0,0.0,-2.3095,0.0,0.0,0.0,0.0,0.0,0.0,0.0,0.0,-2.3336,-2.3336,-2.336,-2.3313,0.0,0.0,0.0,0.0,0.0,-2.6428,-2.7939,-2.9258,-2.9134,-2.9116,-2.9076,-2.8912,-2.837,-2.7882,-2.7701,-2.7871,-2.82,-2.8741,-2.9618,0.0,0.0,0.0,0.0,0.0,0.0,0.0,0.0,0.0,0.0,0.0,0.0,0.0,0.0,0.0,0.0,0.0,0.0,0.0,0.0,-4.3973,-4.3509,-4.3042,-4.3145,-4.2881,-4.2198,-4.3014,-4.3444,-4.3497,-4.3497,0.0,0.0,0.0,0.0,-4.447,-4.3773,-4.3497,-4.3497,-4.3497,-4.3497,-4.3497,-4.3497,-4.3497,-4.3497,0.0,0.0,0.0,0.0,0.0,0.0,0.0,0.0,0.0,0.0,0.0,0.0,0.0,0.0,0.0,0.0,0.0,0.0,0.0,0.0,0.0,0.0,-1.7543,-1.7609,-1.8361,-1.9242,-2.0107,-2.0983,-2.2502,-2.3317,-2.3577,-2.4202,-2.4207,-2.3653,-2.3041,-2.279,-2.2816,-2.2893,-2.2995,-2.3095,-2.3095,0.0,0.0,0.0,0.0,0.0,0.0,0.0,0.0,-2.2995,-2.2919,-2.2816,-2.2816,0.0,0.0,0.0,0.0,0.0,-2.523,-2.6831,-2.8209,-2.8147,-2.8029,-2.7953,-2.7852,-2.7704,-2.7587,-2.7617,-2.8172,-2.8631,-2.856,-2.9924,-3.1461,0.0,0.0,0.0,0.0,0.0,0.0,0.0,0.0,0.0,0.0,0.0,0.0,0.0,0.0,0.0,0.0,0.0,0.0,0.0,0.0,-4.1647,-4.2164,-4.2597,-4.2573,-4.2216,-4.275,-4.3178,-4.3497,-4.3497,-4.3552,0.0,0.0,-4.3552,-4.3663,-4.3534,-4.3497,-4.3497,-4.3497,-4.3497,-4.3497,-4.3497,-4.3497,-4.3497,0.0,0.0,0.0,0.0,0.0,0.0,0.0,0.0,0.0,0.0,0.0,0.0,0.0,0.0,0.0,0.0,0.0,0.0,0.0,0.0,0.0,-1.9264,-1.86,-1.8274,-1.8355,-1.9503,-2.0583,-2.1473,-2.3076,-2.3748,-2.3522,-2.3642,-2.3447,-2.3021,-2.284,-2.2685,-2.2579,-2.2685,-2.2764,-2.2842,0.0,0.0,0.0,0.0,0.0,0.0,0.0,0.0,0.0,0.0,-2.2764,-2.2712,-2.2712,0.0,0.0,0.0,0.0,0.0,-2.4271,-2.5419,-2.6533,-2.7092,-2.801,-2.8733,-2.8456,-2.8185,-2.8049,-2.8321,-2.863,-2.8991,0.0,0.0,-3.2907,0.0,0.0,0.0,0.0,0.0,0.0,0.0,0.0,0.0,0.0,0.0,0.0,0.0,0.0,0.0,0.0,0.0,0.0,0.0,0.0,0.0,-4.1388,-4.1626,-4.1786,-4.1821,-4.2537,-4.3013,-4.3178,-4.341,-4.3497,-4.3497,0.0,-4.3497,-4.3497,-4.3497,-4.3497,-4.3497,-4.3497,-4.3497,-4.3497,-4.3497,-4.3497,-4.3497,0.0,0.0,0.0,0.0,0.0,0.0,0.0,0.0,0.0,0.0,0.0,0.0,0.0,0.0,0.0,0.0,0.0,0.0,0.0,0.0,-1.936,-1.983,-1.9335,-1.8941,-1.861,-1.9968,-2.1098,-2.1958,-2.3385,-2.3809,-2.3287,-2.3113,-2.2767,-2.2304,-2.2508,-2.2508,-2.2304,-2.2487,-2.2525,-2.2525,0.0,0.0,0.0,0.0,0.0,0.0,0.0,0.0,0.0,0.0,0.0,0.0,0.0,0.0,0.0,-2.2579,-2.2579,-2.275,-2.3588,-2.4259,-2.4948,-2.5927,-2.7585,-2.9067,-2.933,-2.8988,-2.8832,-2.9648,-2.9842,-2.993,0.0,-3.171,0.0,0.0,0.0,0.0,0.0,0.0,0.0,0.0,0.0,0.0,0.0,0.0,0.0,0.0,0.0,0.0,0.0,0.0,0.0,0.0,0.0,0.0,-4.0888,-4.0888,-4.1071,-4.1516,-4.2257,-4.2634,-4.2768,-4.305,-4.325,-4.3375,-4.3375,-4.341,-4.3497,-4.3497,-4.3497,-4.3497,-4.3497,-4.3497,-4.3497,-4.3497,-4.3497,-4.3497,0.0,0.0,0.0,0.0,0.0,0.0,0.0,0.0,0.0,0.0,0.0,0.0,0.0,0.0,0.0,0.0,0.0,0.0,0.0,0.0,-1.8382,-1.8786,-1.8949,-1.9249,-1.9779,-2.0512,-2.1392,-2.2459,-2.3143,-2.3292,-2.2938,-2.3742,-2.3351,-2.2027,-2.2056,-2.2056,-2.2027,-2.222,-2.2321,-2.2332,-2.246,0.0,0.0,0.0,0.0,0.0,0.0,0.0,0.0,0.0,0.0,0.0,0.0,0.0,-2.2242,-2.2242,-2.2242,-2.2423,-2.33,-2.3687,-2.4,-2.4469,-2.5745,-2.7516,-2.9802,-2.9724,-2.9725,-3.1814,-3.2315,-3.2004,0.0,0.0,0.0,0.0,0.0,0.0,0.0,0.0,0.0,0.0,0.0,0.0,0.0,0.0,0.0,0.0,0.0,0.0,0.0,0.0,0.0,0.0,0.0,0.0,-4.0888,-4.0888,-4.1071,-4.1472,-4.1561,-4.1821,-4.2239,-4.2279,-4.2537,-4.292,-4.292,-4.316,-4.3497,-4.3497,-4.3497,-4.3497,-4.3497,-4.3497,-4.3497,-4.3497,-4.3497,-4.3497,0.0,0.0,0.0,0.0,0.0,0.0,0.0,0.0,0.0,0.0,0.0,0.0,0.0,0.0,0.0,0.0,0.0,0.0,0.0,0.0,-1.8511,-1.9416,-1.9555,-1.9591,-1.9593,-2.0495,-2.1598,-2.2955,-2.384,-2.3979,-2.3456,-2.3466,-2.2881,-2.1811,-2.194,-2.194,-2.1899,-2.2061,-2.2101,-2.213,-2.2158,-2.2018,0.0,0.0,0.0,0.0,0.0,0.0,0.0,0.0,-2.172,-2.1998,-2.1998,-2.2027,-2.2089,-2.2089,-2.2089,-2.214,-2.2478,-2.3546,-2.4511,-2.4478,-2.5839,-2.7584,-2.9,-2.9572,-3.0373,-3.2286,-3.3031,-3.3274,0.0,0.0,0.0,0.0,0.0,0.0,0.0,0.0,0.0,0.0,0.0,0.0,0.0,0.0,0.0,0.0,0.0,0.0,0.0,0.0,0.0,0.0,0.0,0.0,0.0,-4.0888,-4.0965,-4.1117,-4.1356,-4.1604,-4.1778,-4.2074,-4.2458,-4.2882,-4.2882,-4.2995,-4.316,-4.341,-4.3339,-4.3142,-4.341,-4.3497,-4.3497,-4.3497,-4.3497,-4.3497,0.0,0.0,0.0,0.0,0.0,0.0,0.0,0.0,0.0,0.0,0.0,0.0,0.0,0.0,0.0,0.0,0.0,0.0,-1.7572,-1.7813,-1.8374,-1.9373,-1.9734,-1.9846,-1.9725,-2.0442,-2.1429,-2.2725,-2.399,-2.4021,-2.2949,-2.2816,-2.2338,-2.1617,-2.1735,-2.1764,-2.1738,-2.1899,-2.1911,-2.1911,-2.194,-2.1807,0.0,0.0,0.0,0.0,0.0,0.0,0.0,0.0,-2.1516,-2.1869,-2.1899,-2.1911,-2.194,-2.1969,-2.194,-2.1928,-2.1928,-2.3056,-2.4196,-2.3837,-2.5486,-2.7547,-2.887,-3.0067,-3.1512,-3.3834,-3.4262,-3.4374,-3.4609,0.0,0.0,0.0,0.0,0.0,0.0,0.0,0.0,0.0,0.0,0.0,0.0,0.0,0.0,0.0,0.0,0.0,0.0,0.0,0.0,0.0,0.0,0.0,0.0,-4.0888,-4.0888,-4.0871,-4.1163,-4.1328,-4.1328,-4.1622,-4.2032,-4.2458,-4.2458,-4.2537,-4.2711,-4.2976,-4.3014,-4.292,-4.3178,-4.3375,-4.3479,-4.3339,-4.3375,-4.3497,0.0,0.0,0.0,0.0,0.0,0.0,0.0,0.0,0.0,0.0,0.0,0.0,0.0,0.0,0.0,0.0,0.0,0.0,-1.6501,-1.7176,-1.784,-1.8392,-1.9218,-1.9906,-2.0392,-2.0388,-2.0852,-2.1701,-2.3378,-2.3138,-2.1119,-2.1906,-2.1989,-2.1386,-2.1386,-2.1464,-2.162,-2.1738,-2.1768,-2.1724,-2.184,-2.1379,-2.0673,0.0,0.0,0.0,0.0,0.0,0.0,0.0,-2.1664,-2.162,-2.1694,-2.1738,-2.1811,-2.1899,-2.1781,-2.1694,-2.1694,-2.2176,-2.2622,-2.2244,-2.4397,-2.7242,-2.9673,-3.127,-3.3298,-3.6738,-3.6309,-3.5202,-3.484,0.0,0.0,0.0,0.0,0.0,0.0,0.0,0.0,0.0,0.0,0.0,0.0,0.0,0.0,0.0,0.0,0.0,0.0,0.0,0.0,0.0,0.0,0.0,0.0,-4.0888,-4.0888,-4.0888,-4.0888,-4.0888,-4.0888,-4.0888,-4.1117,-4.1472,-4.1472,-4.1778,-4.2198,-4.2198,-4.2458,-4.2882,-4.2882,-4.316,-4.3444,-4.3032,-4.316,-4.3497,0.0,0.0,0.0,0.0,0.0,0.0,0.0,0.0,0.0,0.0,0.0,0.0,0.0,0.0,0.0,0.0,0.0,0.0,-1.6436,-1.6639,-1.7252,-1.8407,-1.8717,-1.9124,-1.9694,-2.0107,-2.0783,-2.1628,-2.2665,-2.2699,-2.1724,-2.1981,-2.1809,-2.1262,-2.1309,-2.1371,-2.1464,-2.1603,-2.1634,-2.1634,-2.1664,-2.1532,-2.1338,0.0,0.0,0.0,0.0,0.0,0.0,0.0,0.0,0.0,-2.1603,-2.1664,-2.1738,-2.1768,-2.1768,-2.1768,-2.1768,-2.2457,-2.3381,-2.4277,-2.6422,-2.9069,-3.1795,-3.1934,-3.2376,-3.5394,-3.5673,-3.5393,-3.5432,0.0,0.0,0.0,0.0,0.0,0.0,0.0,0.0,0.0,0.0,0.0,0.0,0.0,0.0,0.0,0.0,0.0,0.0,0.0,0.0,0.0,0.0,0.0,0.0,0.0,-4.0888,-4.0888,-4.0888,-4.0888,-4.0888,-4.0888,-4.1117,-4.1472,-4.1472,-4.1561,-4.1735,-4.2074,-4.2458,-4.292,-4.3232,-4.341,-4.3497,-4.3375,-4.341,-4.3497,0.0,0.0,0.0,0.0,0.0,0.0,0.0,0.0,0.0,0.0,-1.6355,0.0,0.0,0.0,0.0,0.0,0.0,0.0,0.0,-1.6289,-1.6892,-1.8284,-1.8362,-1.878,-1.9672,-2.0001,-2.04,-2.087,-2.1709,-2.1894,-2.1494,-2.1729,-2.1609,-2.1167,-2.1521,-2.152,-2.1294,-2.1419,-2.1466,-2.1435,-2.145,-2.1481,-2.1481,0.0,0.0,0.0,0.0,0.0,0.0,0.0,0.0,0.0,-2.1511,-2.1542,-2.1542,-2.1587,-2.1587,-2.1587,-2.1556,-2.2589,-2.3963,-2.4968,-2.7445,-3.0228,-3.2428,0.0,0.0,0.0,-3.6109,-3.6038,-3.6381,0.0,0.0,0.0,0.0,0.0,0.0,0.0,0.0,0.0,0.0,0.0,0.0,0.0,0.0,0.0,0.0,0.0,0.0,0.0,0.0,0.0,0.0,0.0,0.0,0.0,0.0,-4.0888,-4.0888,-4.0888,-4.0888,-4.0888,-4.1041,-4.1237,-4.1237,-4.1237,-4.1328,-4.1948,-4.2257,-4.2378,-4.2808,-4.3105,-4.3232,-4.305,-4.3087,-4.3304,0.0,0.0,0.0,0.0,0.0,0.0,0.0,0.0,0.0,0.0,-1.6166,-1.625,0.0,0.0,0.0,0.0,0.0,0.0,0.0,0.0,-1.6692,-1.8037,-1.8267,-1.8895,-2.005,-2.0025,-1.9919,-1.9797,-2.0618,-2.0855,-2.0626,-2.1217,-2.1324,-2.107,-2.176,-2.1696,-2.1103,-2.123,-2.123,-2.1183,-2.1262,-2.1294,-2.1294,-2.1294,0.0,0.0,0.0,0.0,0.0,0.0,0.0,0.0,-2.1324,-2.134,-2.1325,-2.1386,-2.1371,-2.1277,-2.1151,-2.2577,-2.4212,-2.4776,-2.7838,0.0,-3.2285,-3.4999,-3.7259,-3.7196,0.0,0.0,0.0,0.0,0.0,0.0,0.0,0.0,0.0,0.0,0.0,0.0,0.0,0.0,0.0,0.0,0.0,0.0,0.0,0.0,0.0,0.0,0.0,0.0,0.0,0.0,0.0,0.0,0.0,0.0,-4.0664,-4.0664,-4.0681,-4.0819,-4.0888,-4.0888,-4.0888,-4.0888,-4.0965,-4.1778,-4.1871,-4.1473,-4.1926,-4.2354,-4.2627,-4.2235,-4.239,-4.2867,0.0,0.0,0.0,0.0,0.0,0.0,0.0,0.0,0.0,0.0,0.0,0.0,0.0,0.0,0.0,0.0,0.0,0.0,0.0,0.0,-1.6633,-1.8052,-1.9055,-1.9702,-1.9869,-1.9833,-1.9797,-1.9726,-2.0056,-2.0147,-2.0015,-2.0408,-2.0615,-2.0644,-2.0952,-2.1084,-2.1119,-2.1135,-2.1135,-2.1135,-2.1135,-2.1135,-2.1167,-2.1215,-2.1215,0.0,0.0,0.0,0.0,0.0,0.0,0.0,-2.1277,-2.1294,-2.123,-2.1355,-2.1386,-2.1355,-2.1324,-2.2325,0.0,-2.5385,-2.9139,-3.2714,-3.4038,-3.5059,-3.5565,-3.5094,-3.5814,0.0,0.0,0.0,0.0,0.0,0.0,0.0,0.0,0.0,0.0,0.0,0.0,0.0,0.0,0.0,0.0,0.0,0.0,0.0,0.0,0.0,0.0,0.0,0.0,0.0,-3.7419,-3.7959,-3.8487,0.0,-3.9077,-3.9077,-3.9129,-4.0336,-4.0888,-4.0888,-4.0888,-4.0888,-4.0918,-4.1445,-4.1253,-4.0682,-4.1144,-4.1205,-4.1035,-4.1271,-4.1564,-4.1995,0.0,0.0,0.0,0.0,0.0,0.0,0.0,0.0,0.0,0.0,0.0,0.0,0.0,0.0,0.0,0.0,0.0,0.0,0.0,0.0,0.0,-1.7896,-1.914,-1.9792,-1.9705,-1.9632,-1.9596,-1.9508,-1.9632,-1.9762,-1.9803,-2.054,-2.0822,-2.0731,-2.1354,-2.1462,-2.1182,-2.1051,-2.0974,-2.0957,-2.0957,-2.099,-2.1006,-2.1023,-2.1071,-2.1103,-2.1183,0.0,0.0,0.0,0.0,0.0,0.0,0.0,-2.1167,-2.1277,-2.134,-2.134,-2.1166,-2.2045,0.0,-2.6283,0.0,-3.1911,-3.2772,-3.3458,-3.3772,-3.2919,0.0,0.0,0.0,0.0,0.0,0.0,0.0,0.0,0.0,0.0,0.0,0.0,0.0,0.0,0.0,0.0,0.0,0.0,0.0,0.0,0.0,0.0,0.0,0.0,0.0,0.0,-3.6329,-3.7216,-3.7974,-3.8594,-3.8594,-3.8594,-3.8629,-3.9784,-4.0526,-4.0888,-4.0888,-4.0888,-4.0918,-4.1311,-4.0946,-4.0132,-4.0605,-4.0415,-4.0006,-4.057,-4.0998,-4.1497,0.0,0.0,0.0,0.0,0.0,0.0,0.0,0.0,0.0,0.0,0.0,0.0,0.0,0.0,0.0,0.0,0.0,0.0,0.0,0.0,0.0,0.0,-1.8827,-1.9471,-1.9574,-1.9465,-1.9376,-1.9302,-1.9302,-1.9494,-1.9854,-2.0831,-2.1072,-2.0721,-2.1741,-2.179,-2.1095,-2.0881,-2.0778,-2.0728,-2.0761,-2.0827,-2.0877,-2.0893,-2.0958,-2.1038,-2.107,-2.1087,-2.1135,-2.1087,0.0,0.0,0.0,0.0,-2.1087,-2.1151,-2.1215,-2.1199,-2.0893,-2.1866,-2.3714,-2.6795,-2.8836,0.0,-3.0503,-3.1498,-3.2089,0.0,0.0,0.0,0.0,0.0,0.0,0.0,0.0,0.0,0.0,0.0,0.0,0.0,0.0,0.0,0.0,0.0,0.0,0.0,0.0,0.0,0.0,0.0,0.0,0.0,0.0,-3.4587,-3.5182,-3.6361,-3.7344,-3.8008,-3.8129,-3.8267,-3.8422,-3.9026,-3.9733,-4.0509,-4.0767,-4.0802,-4.0728,-4.1185,-4.0739,-3.9727,-3.9992,-3.9701,-3.9147,-3.9694,-4.0241,-4.0831,0.0,0.0,0.0,0.0,0.0,0.0,0.0,0.0,0.0,0.0,0.0,0.0,0.0,0.0,0.0,0.0,0.0,0.0,0.0,0.0,0.0,-1.7519,-1.8258,-1.8889,-1.9413,-1.9339,-1.9302,-1.9302,-1.913,-1.9344,-1.9918,-2.0391,-2.0302,-1.9715,-2.061,-2.0734,-2.0273,-2.0369,-2.0407,-2.0491,-2.066,-2.0726,-2.0744,-2.0844,-2.0877,-2.086,-2.0909,-2.0942,-2.0942,-2.0942,-2.0877,0.0,0.0,0.0,-2.0942,-2.1087,-2.1103,-2.107,-2.0876,0.0,-2.3856,0.0,-2.7659,-2.8827,0.0,0.0,0.0,0.0,0.0,0.0,0.0,0.0,0.0,0.0,0.0,0.0,0.0,0.0,0.0,0.0,0.0,0.0,0.0,0.0,0.0,0.0,0.0,0.0,0.0,0.0,-3.1173,-3.1599,-3.3027,0.0,-3.3601,-3.4397,-3.5113,-3.5645,-3.6301,-3.6956,-3.7629,-3.7732,-3.818,-3.8974,-4.0302,-4.0491,-3.9905,-4.0671,-4.0452,-3.9629,-3.9081,-3.8616,-3.8228,-3.7992,-3.8351,-3.9075,0.0,0.0,0.0,0.0,0.0,0.0,0.0,0.0,0.0,0.0,0.0,0.0,0.0,0.0,0.0,0.0,0.0,0.0,0.0,0.0,0.0,-1.6872,-1.7841,-1.8481,-1.86,-1.8941,-1.9078,-1.9026,-1.8912,-1.9204,-1.9795,-2.0356,-2.064,-2.0712,-2.1315,-2.1277,-2.0767,-2.0673,-2.0487,-2.0235,-2.027,-2.022,-2.012,-2.0308,-2.0292,-2.0174,-2.0478,-2.0613,-2.0679,-2.0679,-2.0695,-2.0777,-2.0876,0.0,0.0,0.0,-2.1119,-2.1038,-2.0826,-2.1479,-2.2532,0.0,-2.5423,-2.6749,-2.7057,0.0,0.0,0.0,0.0,0.0,0.0,0.0,0.0,0.0,0.0,0.0,0.0,0.0,0.0,0.0,0.0,0.0,0.0,0.0,0.0,0.0,0.0,0.0,0.0,-3.0285,-3.0773,-3.1653,-3.2703,0.0,-3.3071,-3.3847,-3.4545,-3.5197,-3.5956,-3.649,-3.6853,-3.7715,-3.8284,-3.8629,-3.9301,-3.9646,-3.9715,-4.0077,-4.0008,-3.9664,-3.9336,-3.8624,-3.7808,-3.8027,-3.8196,-3.8479,0.0,0.0,0.0,0.0,0.0,0.0,0.0,0.0,0.0,0.0,0.0,0.0,0.0,0.0,0.0,0.0,0.0,0.0,0.0,0.0,0.0,-1.6337,-1.7398,-1.7998,-1.8,-1.8611,-1.8889,-1.8784,-1.8784,-1.9073,-1.9701,-2.0315,-2.0955,-2.1538,-2.1874,-2.1651,-2.0944,-2.0795,-2.0511,-2.0131,-1.9944,-1.9747,-1.9573,-1.9711,-1.966,-1.9558,-1.996,-2.017,-2.0342,-2.0376,-2.0494,-2.0644,-2.0695,-2.0761,0.0,0.0,0.0,-2.0973,0.0,0.0,-2.1518,-2.1976,-2.3504,-2.4837,0.0,0.0,0.0,0.0,0.0,0.0,0.0,0.0,0.0,0.0,0.0,0.0,0.0,0.0,0.0,0.0,0.0,0.0,0.0,0.0,0.0,0.0,0.0,0.0,-3.0099,-3.0078,-3.053,-3.1765,-3.2524,-3.2817,-3.2628,-3.3404,-3.4162,-3.4921,-3.5663,-3.6111,-3.6335,-3.7491,-3.8008,-3.8025,-3.8422,-3.8801,-3.9146,-3.9336,-3.9526,-3.9664,-3.9284,-3.8577,-3.7784,-3.7956,-3.7912,-3.7958,0.0,0.0,0.0,0.0,0.0,0.0,0.0,0.0,0.0,0.0,0.0,0.0,-1.5313,-1.5374,-1.5448,-1.5507,0.0,0.0,0.0,0.0,0.0,-1.6184,-1.6809,0.0,-1.7985,-1.8544,-1.8822,-1.8784,-1.8736,-1.9024,-1.9622,-2.0175,-2.0753,-2.1316,-2.1538,-2.0998,-1.9973,-2.0152,-2.0279,-2.023,-1.9657,-1.9406,-1.9391,-1.9126,-1.914,-1.9244,-1.9479,-1.966,-1.9874,-2.0065,-2.0273,-2.0527,-2.0527,-2.0679,-2.0861,0.0,0.0,0.0,0.0,-2.1214,0.0,-2.1553,-2.2627,0.0,0.0,0.0,0.0,0.0,0.0,0.0,0.0,0.0,0.0,0.0,0.0,0.0,0.0,0.0,0.0,0.0,0.0,0.0,0.0,0.0,0.0,0.0,0.0,0.0,-3.0573,-3.0245,-3.053,-3.1765,-3.2524,-3.2559,-3.1852,-3.2593,-3.3352,-3.4162,-3.4887,-3.5611,-3.6301,-3.6387,-3.6422,-3.649,-3.7956,-3.8215,-3.7646,-3.8353,-3.906,-3.956,-3.8146,-3.7974,-3.8353,-3.6939,-3.6661,-3.697,0.0,0.0,0.0,0.0,0.0,0.0,0.0,0.0,0.0,0.0,0.0,0.0,0.0,-1.5879,-1.6101,-1.6603,-1.6647,0.0,0.0,0.0,0.0,-1.6146,-1.7067,-1.7655,-1.7805,-1.8408,-1.8697,-1.862,-1.8581,-1.888,-1.9486,-1.9669,-2.0105,-2.0737,-2.1308,-2.1083,-2.0258,-2.0048,-1.9763,-1.9411,-1.9013,-1.876,-1.8606,-1.85,-1.8422,0.0,0.0,0.0,0.0,-1.999,-2.0273,-2.0373,-2.0407,-2.061,-2.0777,-2.0794,-2.0744,-2.0693,0.0,0.0,0.0,-2.0986,-2.1639,-2.2201,0.0,0.0,0.0,0.0,0.0,0.0,0.0,0.0,0.0,0.0,0.0,0.0,0.0,0.0,0.0,0.0,0.0,0.0,0.0,0.0,0.0,0.0,0.0,0.0,-2.9532,-2.9657,-3.0347,-3.1765,-3.2059,-3.2076,-3.18,-3.2059,-3.2835,-3.4093,-3.4352,-3.5128,-3.6301,-3.6301,-3.6301,-3.6335,-3.687,-3.7267,-3.7508,-3.7784,-3.8318,-3.8939,-3.8405,-3.8077,-3.7818,-3.7267,-3.6842,-3.6602,0.0,0.0,0.0,0.0,0.0,0.0,0.0,0.0,0.0,-1.5881,0.0,0.0,0.0,0.0,-1.6622,-1.7122,-1.7166,-1.6992,-1.6605,-1.6862,-1.6823,-1.6393,-1.7312,-1.7797,-1.7695,-1.8309,-1.8595,-1.8517,-1.8517,-1.8689,-1.9081,-1.9305,-1.9614,-2.0091,-2.0585,-2.0655,-2.0472,-2.0172,-1.9841,-1.9427,-1.8632,-1.8557,-1.8851,-1.8687,0.0,0.0,0.0,0.0,0.0,0.0,0.0,-2.0362,-2.037,-2.0559,-2.0711,-2.0761,-2.0777,-2.0744,-2.0777,0.0,0.0,0.0,0.0,-2.1268,0.0,0.0,0.0,0.0,0.0,0.0,0.0,0.0,0.0,0.0,0.0,0.0,0.0,0.0,0.0,0.0,0.0,0.0,0.0,0.0,0.0,0.0,0.0,0.0,-2.8537,-2.9179,-3.0093,-3.1386,-3.1162,-3.1162,-3.142,-3.142,-3.2179,-3.3697,-3.3697,-3.4473,-3.5921,-3.5663,-3.5697,-3.5921,-3.5663,-3.6008,-3.6715,-3.6715,-3.7008,-3.7422,-3.718,-3.7077,-3.706,-3.6801,-3.6542,-3.6387,0.0,0.0,0.0,0.0,0.0,0.0,0.0,0.0,-1.6308,-1.6308,0.0,0.0,0.0,0.0,0.0,-1.6949,-1.6949,-1.6935,-1.6921,-1.6935,-1.6935,-1.6907,0.0,0.0,0.0,-1.8232,-1.8517,-1.8517,-1.8517,-1.8517,-1.8531,-1.9081,-1.9376,-1.939,-1.939,-1.9754,-2.04,-2.0415,-2.043,-2.0302,0.0,-1.8907,-2.01,0.0,0.0,0.0,-2.0699,-2.0758,0.0,-2.0265,0.0,0.0,0.0,-2.0563,-2.0711,-2.0761,-2.0794,-2.0827,0.0,0.0,0.0,0.0,0.0,0.0,0.0,0.0,0.0,0.0,0.0,0.0,0.0,0.0,0.0,0.0,0.0,0.0,0.0,0.0,0.0,0.0,0.0,0.0,0.0,0.0,0.0,0.0,0.0,-2.6597,-2.774,-2.887,-2.9868,-3.0662,-2.992,-2.9868,-3.0644,-3.0679,-3.142,-3.2869,-3.2886,-3.3697,-3.5128,-3.4421,-3.4473,-3.5128,-3.4404,-3.4473,-3.5128,-3.5145,-3.5163,-3.5094,-3.4387,-3.499,-3.6146,-3.5473,-3.5663,-3.6266,0.0,0.0,0.0,0.0,0.0,0.0,-1.6848,-1.678,-1.6818,0.0,0.0,0.0,-1.7061,-1.759,-1.8007,-1.8186,-1.8186,-1.8039,-1.7655,-1.7982,-1.7987,-1.7505,-1.7989,-1.8289,-1.8289,-1.8419,-1.8517,-1.8517,-1.8411,-1.8411,-1.8517,-1.8579,-1.8901,-1.939,-1.9349,-1.9712,-2.0344,-1.9457,0.0,-1.9614,-1.8824,-1.8711,0.0,0.0,0.0,0.0,0.0,-1.9993,-1.9931,0.0,-2.0566,-2.0884,0.0,0.0,-2.0693,-2.0726,-2.0777,-2.0794,-2.0811,0.0,0.0,0.0,0.0,0.0,0.0,0.0,0.0,0.0,0.0,0.0,0.0,0.0,0.0,0.0,0.0,0.0,0.0,0.0,0.0,0.0,0.0,0.0,0.0,0.0,0.0,0.0,0.0,-2.6893,-2.774,-2.887,-2.9868,-3.0662,-2.992,-2.961,-2.9834,-3.0403,-3.1162,-3.211,-3.2645,-3.3421,-3.4387,-3.418,-3.4197,-3.4387,-3.418,-3.3886,-3.3576,-3.4162,-3.4387,-3.4421,-3.4766,-3.4818,-3.48,-3.568,-3.5783,-3.5576,0.0,0.0,0.0,0.0,0.0,-1.8045,-1.7382,-1.7544,-1.7691,0.0,0.0,0.0,-1.7636,-1.8228,-1.8611,-1.8492,-1.8478,-1.8363,-1.8049,-1.8345,-1.8335,-1.7932,-1.8215,-1.8386,-1.84,-1.8361,-1.8361,-1.8361,-1.8293,-1.8293,-1.8361,-1.8293,-1.8488,-1.889,0.0,0.0,-1.9461,0.0,0.0,0.0,-1.8781,0.0,0.0,-1.9176,-1.9094,0.0,0.0,0.0,-2.0726,-2.0566,-2.0616,0.0,0.0,0.0,0.0,0.0,0.0,-2.0761,-2.0794,-2.0909,-2.1006,0.0,0.0,0.0,0.0,-2.0357,0.0,0.0,0.0,0.0,0.0,0.0,0.0,0.0,0.0,0.0,0.0,0.0,0.0,0.0,0.0,0.0,0.0,0.0,0.0,0.0,-2.5899,-2.6741,-2.7981,-2.8389,-2.8937,-2.9713,-2.8989,-2.873,-2.9041,-2.9506,-3.011,-3.0851,-3.1627,-3.2386,-3.3128,-3.3128,-3.33,-3.3576,-3.3266,-3.2869,-3.2472,-3.2938,-3.3128,-3.3197,-3.3938,-3.3973,-3.3731,-3.4938,-3.5301,-3.5214,0.0,0.0,-1.7651,-1.7609,-1.8231,-1.8517,-1.7947,-1.8407,-1.864,0.0,-1.814,-1.8207,-1.8315,-1.8838,-1.8921,-1.8314,-1.8259,-1.8271,-1.8202,-1.8254,-1.8254,-1.8189,-1.8254,-1.8254,-1.8202,-1.8202,-1.8202,-1.8202,-1.8202,-1.8202,-1.8202,-1.8189,-1.8202,-1.8202,0.0,0.0,0.0,0.0,0.0,-2.1027,-1.882,-1.9117,0.0,0.0,-1.9879,-2.0841,-2.089,-2.1493,-2.2074,-2.109,-2.0516,0.0,0.0,0.0,0.0,0.0,-2.0707,-2.0787,-2.0793,-2.0844,-2.0893,0.0,0.0,0.0,-2.0512,-2.0392,0.0,0.0,0.0,0.0,0.0,0.0,0.0,0.0,0.0,0.0,0.0,0.0,0.0,0.0,0.0,0.0,0.0,0.0,0.0,-2.4446,-2.5163,-2.6381,-2.8283,-2.7696,-2.7627,-2.8385,-2.7678,-2.7609,-2.8265,-2.8368,-2.873,-2.9403,-3.0179,-3.0903,-3.1541,-3.1541,-3.1955,-3.2628,-3.1955,-3.1714,-3.18,-3.18,-3.18,-3.1869,-3.261,-3.2904,-3.3007,-3.3886,-3.4628,-3.5111,0.0,0.0,-1.7676,-1.8126,-1.8286,-1.8485,-1.8901,-1.9017,-1.9057,-1.9026,-1.9131,-1.9219,-1.9263,-1.9429,-1.9353,-1.881,-1.8755,-1.8591,-1.823,-1.8189,-1.8228,-1.8202,-1.8228,-1.8228,-1.8202,-1.8202,-1.8202,-1.8202,0.0,-1.8095,-1.8202,-1.8095,-1.8095,-1.8202,0.0,0.0,0.0,0.0,0.0,-2.0593,-1.9932,0.0,-1.9856,-1.9499,-1.9507,-1.9749,-1.9846,-2.0388,-2.1051,-2.1063,-2.0516,-1.9956,0.0,0.0,0.0,0.0,0.0,0.0,0.0,0.0,0.0,0.0,0.0,0.0,-2.0745,-2.0595,0.0,0.0,0.0,0.0,0.0,0.0,0.0,0.0,0.0,0.0,0.0,0.0,0.0,0.0,0.0,0.0,0.0,0.0,-2.3324,-2.463,-2.5397,-2.6561,-2.8217,-2.7564,-2.7528,-2.8368,-2.7678,-2.7368,-2.7506,-2.8092,-2.8472,-2.8627,-2.9386,-2.9817,-2.9955,-2.9955,-3.0386,-3.111,-3.0883,-3.1067,-3.1617,-3.1617,-3.1709,-3.1869,-3.261,-3.2904,-3.3076,-3.4473,-3.5076,-3.5249,-1.7352,-1.7406,-1.7604,-1.8057,-1.8442,-1.8719,-1.8963,-1.9311,-1.945,-1.9205,-1.96,-1.9712,-1.9418,-1.9704,-1.9741,-1.9135,-1.9168,-1.8954,-1.844,-1.8481,-1.8398,-1.8057,-1.8069,-1.8055,-1.8043,-1.8043,-1.8043,-1.8043,0.0,0.0,0.0,-1.7975,-1.7895,-1.7855,0.0,0.0,0.0,0.0,-1.9683,-2.0254,-1.9801,0.0,-1.9651,-1.9092,-1.9156,-1.951,-1.9594,-2.0067,-2.0751,-2.1178,-2.077,0.0,0.0,-2.0983,-2.1093,0.0,-2.0957,-2.133,0.0,0.0,0.0,-2.0827,0.0,0.0,0.0,-2.0561,0.0,0.0,0.0,0.0,0.0,0.0,0.0,0.0,0.0,0.0,0.0,0.0,0.0,0.0,0.0,0.0,0.0,0.0,-2.2391,-2.3819,-2.5152,-2.6236,-2.707,-2.7055,-2.7259,-2.7703,-2.7343,-2.7186,-2.7201,-2.7562,-2.7801,-2.7851,-2.861,-2.8921,-2.8904,-2.9265,-2.9868,-3.0535,-3.0482,-3.0874,-3.1576,-3.1576,-3.1576,-3.172,-3.2572,-3.2865,-3.2947,-3.3704,-3.418,-3.4449,-1.7199,-1.7308,-1.7492,-1.7826,-1.85,-1.8937,-1.8693,-1.9417,-1.9834,-1.9422,-1.9856,-2.0027,-1.9567,-1.9769,-1.9826,-1.9482,-1.9147,-1.8901,-1.8782,0.0,-1.8449,-1.799,-1.8058,-1.8004,-1.7842,-1.7882,-1.7882,-1.7882,0.0,0.0,0.0,0.0,0.0,0.0,0.0,0.0,0.0,0.0,0.0,-2.0006,0.0,-1.9598,-1.9891,-1.8939,-1.9079,-1.9775,-1.9775,-2.0106,-2.0633,-2.1248,0.0,-2.0314,-2.0574,-2.0901,0.0,0.0,0.0,0.0,0.0,0.0,0.0,0.0,0.0,-2.0761,0.0,0.0,0.0,0.0,0.0,0.0,0.0,0.0,0.0,0.0,0.0,0.0,0.0,0.0,0.0,0.0,0.0,0.0,0.0,0.0,-2.1709,-2.305,-2.4567,-2.5541,-2.5863,-2.6429,-2.6838,-2.6975,-2.7007,-2.704,-2.707,-2.707,-2.7152,-2.725,-2.7853,-2.8113,-2.8097,-2.8664,-2.9402,-3.015,-3.0167,-3.0643,-3.1462,-3.1462,-3.1462,-3.153,-3.2342,-3.2724,-3.2745,-3.2801,-3.3311,-3.3864,-1.7199,-1.7199,-1.7382,-1.7826,-1.8274,-1.8554,-1.8601,-1.9415,-2.008,-2.033,-2.0308,-2.0295,-2.0363,0.0,0.0,-1.9933,0.0,0.0,-1.9309,0.0,-1.7808,-1.8173,-1.8401,-1.8244,-1.757,-1.7788,-1.7882,-1.7882,0.0,0.0,0.0,0.0,0.0,0.0,-1.7652,0.0,0.0,0.0,-1.9284,0.0,-2.001,-2.0317,0.0,-1.9649,-1.9791,-2.0481,-2.0408,-2.0184,-2.0031,0.0,-2.0616,-1.9977,0.0,-2.112,-2.1241,0.0,0.0,0.0,0.0,0.0,0.0,0.0,-2.0744,0.0,0.0,0.0,0.0,0.0,0.0,-2.0909,-2.1071,0.0,0.0,0.0,0.0,0.0,0.0,0.0,0.0,0.0,0.0,0.0,0.0,0.0,0.0,-2.3296,-2.3545,-2.4282,-2.5652,-2.5805,-2.6194,-2.699,-2.7007,-2.7007,-2.7007,-2.7007,-2.7055,-2.7135,-2.7158,-2.7192,-2.724,-2.7245,-2.8032,-2.9348,-2.9257,-3.002,-3.1295,-3.1295,-3.1295,-3.1351,-3.1644,-3.2128,-3.265,-3.2762,-3.3711,-3.4826,-1.7031,-1.7044,-1.717,-1.7593,-1.772,-1.7848,-1.8081,-1.9071,-1.9875,-2.0144,-2.0341,-2.0507,0.0,0.0,0.0,0.0,0.0,-1.8594,0.0,0.0,-1.8248,-1.8692,0.0,0.0,-1.8147,-1.8272,-1.818,-1.7882,-1.7882,0.0,0.0,0.0,0.0,0.0,-1.8225,0.0,-1.891,0.0,-1.942,0.0,0.0,0.0,0.0,-2.0079,-1.9965,-2.0372,-2.0549,-2.0505,-2.0384,0.0,-2.0641,0.0,0.0,0.0,0.0,0.0,0.0,0.0,0.0,0.0,0.0,0.0,0.0,0.0,-2.0856,0.0,-2.0827,0.0,0.0,0.0,0.0,0.0,0.0,0.0,0.0,0.0,0.0,0.0,0.0,0.0,0.0,0.0,0.0,0.0,0.0,0.0,0.0,-2.3819,-2.4961,-2.5404,-2.6012,-2.6791,-2.6825,-2.6859,-2.6959,-2.6959,-2.6975,-2.7023,-2.7007,-2.6975,-2.699,-2.6942,-2.7743,-2.9102,-2.9047,-2.9878,-3.1252,-3.1252,-3.1252,-3.1252,-3.1389,-3.1866,-3.2497,-3.2076,-3.2644,-3.355,-1.6693,-1.6705,-1.6789,-1.7081,0.0,-1.7535,-1.8142,0.0,0.0,0.0,0.0,0.0,-2.0446,-2.0127,0.0,0.0,-1.9506,-1.8962,0.0,0.0,-1.8236,0.0,0.0,0.0,0.0,0.0,-1.8473,-1.8329,-1.8166,0.0,0.0,0.0,0.0,0.0,0.0,-1.864,-1.9087,0.0,0.0,-2.0459,-2.0409,-2.0719,-2.1095,-2.0322,-2.0118,-2.0233,-2.0549,-2.0557,-2.0489,-2.0746,-2.0644,0.0,-2.0746,0.0,0.0,0.0,0.0,0.0,-2.0847,0.0,0.0,0.0,0.0,0.0,0.0,0.0,0.0,0.0,0.0,0.0,0.0,0.0,-2.1309,0.0,0.0,0.0,0.0,0.0,0.0,0.0,0.0,0.0,0.0,0.0,0.0,0.0,0.0,0.0,-2.4028,-2.485,-2.5642,-2.637,-2.659,-2.6742,-2.6842,-2.6842,-2.6876,-2.6992,-2.6942,-2.6909,-2.6893,-2.6842,-2.7623,-2.9011,-2.9011,-2.982,-3.119,-3.119,-3.119,-3.119,-3.1235,-3.163,-3.2072,-3.1516,-3.1805,-3.2508,-1.6044,-1.6132,-1.6244,0.0,0.0,0.0,0.0,0.0,0.0,0.0,0.0,0.0,0.0,0.0,0.0,0.0,0.0,-1.7751,-1.9419,0.0,-1.7265,0.0,0.0,-1.8608,0.0,0.0,0.0,-1.9472,0.0,0.0,0.0,0.0,-1.882,0.0,-1.8524,-1.8728,-1.9296,-1.9383,-1.9695,-2.0182,-1.9914,-1.9862,-1.9926,0.0,-2.0422,-2.0233,-2.0448,0.0,0.0,-2.0895,-2.0563,0.0,0.0,0.0,0.0,0.0,0.0,0.0,0.0,0.0,0.0,-2.1255,0.0,0.0,0.0,0.0,-2.0876,0.0,0.0,0.0,0.0,-2.1309,-2.1309,-2.1309,0.0,0.0,0.0,0.0,0.0,0.0,0.0,0.0,0.0,0.0,0.0,0.0,0.0,0.0,-2.292,-2.395,-2.4864,-2.5609,-2.6336,-2.6691,-2.6691,-2.6691,-2.6775,-2.6893,-2.6775,-2.6792,-2.6893,-2.6775,-2.7537,-2.9011,-2.9011,-2.982,-3.119,-3.119,-3.119,-3.119,-3.119,-3.1207,-3.1263,-3.1291,-3.1866,-3.2508,-1.6324,-1.6336,-1.6374,0.0,0.0,0.0,0.0,-1.8574,0.0,0.0,0.0,0.0,0.0,-2.1144,-2.1246,0.0,0.0,-1.9603,-2.0452,-1.9568,0.0,0.0,0.0,-2.0181,0.0,0.0,0.0,0.0,0.0,0.0,0.0,-2.0007,-2.0148,-2.0501,0.0,-1.9628,0.0,0.0,0.0,0.0,0.0,-2.0254,-2.0067,0.0,0.0,-2.0233,-2.0549,-2.0531,0.0,-2.0782,-2.0667,-2.045,-2.0782,-2.0947,-2.0975,-2.0657,-2.0745,0.0,0.0,0.0,-2.1444,-2.1009,0.0,0.0,0.0,0.0,0.0,0.0,0.0,0.0,0.0,0.0,-2.1309,-2.1309,-2.1309,-2.1402,0.0,0.0,0.0,0.0,0.0,0.0,0.0,0.0,0.0,0.0,0.0,0.0,0.0,-2.3245,-2.4104,-2.5542,-2.5845,-2.6201,-2.6691,-2.6691,-2.6742,-2.6775,-2.6742,-2.6742,-2.6775,-2.6742,-2.7537,-2.9011,-2.9011,-2.955,-3.048,-3.048,-3.048,-3.048,-3.048,-3.048,-3.0531,-3.1043,-3.1443,-3.1691,-1.64,0.0,0.0,0.0,0.0,0.0,0.0,0.0,0.0,0.0,-2.0529,0.0,-2.1495,0.0,-2.1923,0.0,-2.1063,-2.0565,-2.0314,-1.9987,0.0,-1.9352,-2.0298,0.0,0.0,0.0,0.0,0.0,0.0,-2.0254,0.0,-2.0556,-2.0698,0.0,0.0,-2.0106,-1.9773,0.0,-1.9837,0.0,0.0,-2.0242,0.0,0.0,-2.0233,0.0,0.0,-2.0518,-2.0338,-2.0547,-2.0468,-2.0276,-2.0547,-2.0799,-2.0917,-2.0689,-2.0793,-2.0918,-2.0851,-2.1323,0.0,0.0,-2.168,0.0,-2.1412,0.0,0.0,0.0,0.0,0.0,0.0,0.0,-2.1374,-2.1553,-2.1407,-2.1388,0.0,-2.162,0.0,0.0,0.0,0.0,0.0,0.0,0.0,0.0,-2.1324,0.0,0.0,0.0,-2.3531,-2.5009,-2.5392,-2.5947,-2.6691,-2.6691,-2.6691,-2.6691,-2.6691,-2.6691,-2.6691,-2.6691,-2.7537,-2.8958,-2.8687,-2.9296,-3.048,-3.0226,-3.026,-3.048,-3.0209,-3.026,-3.0548,-3.1021,-3.1082,-3.0938,0.0,0.0,0.0,0.0,-1.6541,0.0,0.0,0.0,-2.0132,0.0,-2.0761,-2.1118,-2.1027,-2.1129,-2.1317,-2.1597,-2.1334,0.0,-1.9318,-1.965,0.0,0.0,-1.8746,-1.929,-1.9965,0.0,0.0,0.0,0.0,0.0,0.0,0.0,0.0,0.0,-2.0535,0.0,-1.9751,-2.0374,-2.0308,-1.9798,-1.9798,-1.9798,-1.985,-1.9926,0.0,-2.061,-2.0649,-2.0211,-1.97,-2.028,-2.0036,-1.9577,-2.028,-2.0461,-2.0511,-2.0662,-2.0662,-2.0799,-2.1277,-2.1365,-2.1465,-2.2046,0.0,0.0,0.0,0.0,-2.2415,0.0,0.0,0.0,0.0,0.0,0.0,-2.1984,-2.1633,-2.1388,-2.1559,0.0,0.0,0.0,0.0,0.0,0.0,0.0,-2.1628,-2.086,-2.1214,-2.1276,0.0,0.0,0.0,-2.3999,-2.5042,-2.5947,-2.6691,-2.6691,-2.6691,-2.6691,-2.6691,-2.6691,-2.6691,-2.6691,-2.7537,-2.8941,-2.8197,-2.9127,-3.1089,-3.0362,-3.0463,-3.1021,-3.0277,-3.0463,-3.114,-3.119,-3.0794,-3.0309,-1.7016,-1.7168,-1.7463,0.0,-1.7801,-1.8007,0.0,0.0,0.0,0.0,-2.0962,-2.1605,-2.2006,-2.2433,-2.2553,-2.2314,-2.2226,0.0,0.0,0.0,0.0,-2.0464,-2.1293,-2.1039,-1.9434,-2.055,0.0,-1.9837,0.0,0.0,-2.0974,0.0,0.0,0.0,0.0,0.0,-1.9799,-2.0374,-2.0308,-1.9798,-1.9798,-1.9914,0.0,0.0,-2.0182,-2.0422,-2.0385,-2.0194,-2.0041,-2.0245,-2.0143,-2.0041,-2.0194,-2.0398,-2.0461,-2.0347,-2.0448,-2.0649,-2.1006,-2.1404,-2.1777,-2.2019,-2.2364,-2.2601,0.0,0.0,0.0,0.0,0.0,0.0,0.0,0.0,0.0,-2.1553,-2.1422,-2.1386,0.0,0.0,0.0,-2.1634,0.0,0.0,0.0,0.0,-2.115,-2.0942,-2.0909,-2.0974,0.0,0.0,0.0,-2.4334,-2.5188,-2.5947,-2.6691,-2.6691,-2.6691,-2.6691,-2.6691,-2.6691,-2.6691,-2.6691,-2.7537,-2.9011,-2.8772,-2.933,-3.0328,-2.9583,-2.9381,-2.9482,-2.8704,-2.9228,-3.0446,-3.1004,-3.0794,-3.0241,-1.7562,0.0,0.0,-1.9118,0.0,0.0,-1.9499,0.0,0.0,-2.0593,-2.1261,0.0,-2.2139,-2.2428,-2.248,-2.2221,-2.2004,0.0,-2.1352,0.0,0.0,-2.1202,-2.177,-2.152,-2.0242,-2.0739,0.0,-1.9845,0.0,0.0,-2.0505,0.0,0.0,0.0,0.0,-2.0992,0.0,-2.0393,-2.0271,-1.9965,-1.985,0.0,0.0,-1.9914,-2.0016,-2.0118,-2.0067,-2.0067,-2.0131,-2.0131,-2.008,-2.0029,-2.008,-2.0195,-2.0246,-2.0246,-2.0296,-2.0485,-2.0944,-2.1513,-2.1997,-2.2322,-2.2786,-2.3134,-2.2879,-2.2964,-2.3207,0.0,0.0,0.0,0.0,0.0,0.0,0.0,0.0,0.0,0.0,0.0,0.0,0.0,0.0,0.0,0.0,0.0,-2.0991,-2.0991,-2.0893,-2.0942,0.0,0.0,0.0,0.0,-2.5112,-2.595,-2.6218,-2.686,-2.7012,-2.6691,-2.6691,-2.6691,-2.6691,-2.6691,-2.7537,-2.8941,-2.8281,-2.8789,-3.0023,-2.8924,-2.867,-2.8941,-2.8501,-2.8653,-2.9194,-2.9956,-2.9993,-2.9658,0.0,0.0,0.0,0.0,0.0,0.0,0.0,-2.0463,0.0,-2.1199,0.0,-2.1731,-2.1731,-2.1745,-2.1714,-2.1714,0.0,-2.0855,-2.0452,-2.0988,-2.1281,-2.1081,-2.1105,-2.1186,-2.1281,-2.0456,0.0,0.0,0.0,0.0,0.0,0.0,0.0,0.0,0.0,0.0,0.0,-2.0357,-2.0105,0.0,-1.9901,-1.9798,-1.9798,-1.9798,-1.9798,-1.9798,-1.9798,-1.9862,-1.9978,-1.9978,-1.9926,-1.9811,-1.9926,-1.999,-2.0042,-2.0131,-2.0182,-2.0321,-2.1042,-2.1561,-2.2035,-2.2785,-2.329,-2.3595,-2.3595,-2.3782,-2.394,-2.3982,-2.38,0.0,0.0,0.0,0.0,0.0,0.0,0.0,0.0,0.0,0.0,0.0,0.0,0.0,0.0,0.0,-2.1039,-2.0991,-2.0991,0.0,0.0,0.0,0.0,0.0,-2.4908,0.0,-2.5715,0.0,-2.7315,-2.6759,-2.6708,-2.6691,-2.6691,-2.6691,-2.7469,-2.8755,-2.7418,-2.8078,-2.9989,-2.845,-2.8163,-2.8687,-2.8687,-2.8332,-2.7892,-2.8467,-2.8738,-2.8839,0.0,0.0,0.0,0.0,0.0,-2.0471,-2.054,-2.0194,-2.0144,-2.0821,-2.1292,-2.1578,-2.1578,-2.1391,-2.1238,-2.1238,-2.0814,0.0,0.0,0.0,0.0,-2.0852,-2.0952,-2.0682,-2.0017,-1.9887,-1.9737,0.0,0.0,0.0,0.0,0.0,0.0,0.0,0.0,0.0,-2.0633,-1.9881,0.0,-1.9862,-1.9811,-1.9798,-1.9798,-1.9798,-1.9798,-1.9798,-1.9798,-1.9811,-1.9862,-1.9862,-1.9811,-1.9798,-1.9811,-1.9926,-1.999,-1.9914,-1.9978,-2.0233,-2.1272,-2.1629,-2.1993,-2.3127,-2.348,-2.3595,-2.3595,-2.3653,-2.3696,-2.3797,-2.3876,-2.383,-2.3603,0.0,0.0,0.0,0.0,0.0,0.0,0.0,0.0,0.0,0.0,0.0,0.0,0.0,0.0,0.0,0.0,0.0,0.0,0.0,0.0,0.0,0.0,0.0,0.0,0.0,0.0,-2.7018,-2.6807,-2.6691,-2.6691,-2.6691,-2.7182,-2.801,-2.774,-2.8569,-2.9989,-2.845,-2.7537,-2.7097,-2.7097,-2.7385,-2.7722,-2.7283,-2.7486,-2.8112,0.0,0.0,0.0,0.0,0.0,0.0,0.0,-2.0616,0.0,-2.0777,-2.1014,-2.1247,-2.1482,-2.146,-2.1383,-2.1135,-2.069,-2.0327,-2.0089,-2.0186,-2.0175,-2.0096,-2.0482,0.0,-1.9761,-1.9519,-1.9531,-1.9823,0.0,0.0,0.0,0.0,0.0,0.0,0.0,-2.0601,0.0,0.0,0.0,-2.0016,-1.9862,-1.9798,-1.9798,-1.9798,-1.9798,-1.9798,-1.9798,-1.9798,-1.9798,-1.9798,-1.9798,-1.9798,-1.9798,-1.9862,-1.9862,-1.9811,-2.0055,-2.051,-2.1403,-2.1866,-2.2346,-2.329,-2.3566,-2.3595,-2.3595,-2.3653,-2.3739,-2.3797,-2.3925,-2.3975,-2.382,-2.3507,0.0,0.0,0.0,0.0,0.0,0.0,0.0,0.0,0.0,0.0,0.0,0.0,0.0,0.0,0.0,0.0,0.0,0.0,0.0,0.0,0.0,0.0,0.0,0.0,0.0,-2.6885,-2.6569,-2.6505,-2.6691,-2.6691,-2.7213,-2.8055,-2.7887,-2.8196,-2.8787,-2.7864,-2.7194,-2.6725,-2.7131,-2.7249,-2.7199,-2.6826,-2.6911,-2.7351,0.0,-2.0798,0.0,0.0,-2.0969,0.0,0.0,-2.0961,-2.0654,-2.0906,-2.0827,-2.0964,-2.1318,-2.1404,-2.1288,-2.0927,-2.039,-1.9986,-1.9702,-1.9796,-1.9695,-1.9208,-1.97,-1.9899,-1.9571,-1.909,-1.9233,0.0,0.0,0.0,0.0,0.0,0.0,0.0,0.0,0.0,0.0,0.0,-2.0182,-2.008,-1.9914,-1.9798,-1.9798,-1.9798,-1.9798,-1.9798,-1.9798,-1.9798,-1.9798,-1.9798,-1.9798,-1.9798,-1.9798,-1.9798,-1.9798,-1.9798,-2.0207,-2.0795,-2.152,-2.21,-2.2694,-2.3421,-2.3595,-2.3595,-2.3595,-2.3696,-2.3739,-2.3739,-2.3839,-2.3982,-2.4124,-2.3927,0.0,0.0,0.0,0.0,0.0,0.0,0.0,0.0,0.0,0.0,0.0,0.0,0.0,0.0,0.0,0.0,0.0,0.0,0.0,0.0,0.0,0.0,-2.5209,0.0,-2.6341,0.0,-2.617,-2.6139,-2.6436,-2.6587,-2.7045,-2.769,-2.7598,-2.7462,-2.7362,-2.7448,-2.715,-2.6776,-2.752,-2.7351,-2.6691,-2.6691,-2.6657,-2.6708,0.0,0.0,0.0,0.0,0.0,0.0,0.0,-2.0629,-2.0654,-2.0906,-2.0867,-2.0944,-2.0984,-2.0555,-2.0257,-2.0216,-1.9627,-1.9178,-1.9137,-1.9162,-1.8989,-1.852,-1.8652,-1.8837,-1.8873,-1.8443,-1.879,0.0,0.0,0.0,0.0,0.0,0.0,0.0,0.0,0.0,0.0,-2.0207,-2.0067,-1.985,-1.9798,-1.9798,-1.9798,-1.9798,-1.9798,-1.9798,-1.9798,-1.9798,-1.9798,-1.9798,-1.9798,-1.9798,-1.9798,-1.9798,-1.9798,-1.9798,-2.0258,-2.0944,-2.152,-2.2193,-2.283,-2.3465,-2.3595,-2.3595,-2.3595,-2.3595,-2.3595,-2.3595,-2.3739,-2.3839,-2.3982,-2.4078,-2.4158,0.0,0.0,0.0,0.0,0.0,0.0,0.0,0.0,0.0,0.0,0.0,0.0,0.0,0.0,0.0,0.0,0.0,0.0,0.0,0.0,-2.4942,-2.5821,-2.533,0.0,-2.5982,-2.5696,-2.5577,-2.5631,-2.6243,-2.6259,-2.5767,-2.6389,-2.6461,-2.6366,-2.7732,-2.7654,-2.6776,-2.752,-2.7351,-2.6691,-2.6691,-2.647,-2.641,0.0,0.0,0.0,0.0,0.0,0.0,0.0,-2.0713,-2.0644,-2.0731,-2.0819,-2.0906,-2.0906,-2.0642,-2.0441,-2.0093,-1.9712,-1.9251,-1.8692,-1.8413,-1.7936,-1.7212,-1.7231,-1.747,-1.7955,-1.8054,-1.8746,0.0,0.0,0.0,0.0,0.0,0.0,0.0,0.0,-1.9881,-1.9646,-1.9877,-1.9914,-1.9798,-1.9798,-1.9798,-1.9798,-1.9798,-1.9798,-1.9798,-1.9798,-1.9798,-1.9798,-1.9798,-1.9798,-1.9798,-1.9798,-1.9798,-1.9798,-1.9798,-2.0484,-2.1355,-2.1615,-2.2438,-2.326,-2.3508,-2.3595,-2.3595,-2.3595,-2.3595,-2.3595,-2.3595,-2.3696,-2.3676,-2.3353,-2.3416,-2.3539,0.0,0.0,0.0,0.0,0.0,0.0,0.0,0.0,0.0,0.0,0.0,0.0,0.0,0.0,0.0,0.0,0.0,0.0,-2.3793,0.0,-2.5049,-2.5888,-2.4983,-2.5325,-2.691,-2.5679,-2.5438,-2.605,-2.6246,-2.6455,-2.6663,-2.6318,-2.6253,-2.6466,-2.7054,-2.692,-2.6399,-2.715,-2.6983,-2.635,-2.635,-2.6245,-2.6289,-2.1425,0.0,-2.1065,0.0,-2.0904,-2.0639,-2.0947,-2.0771,-2.0566,-2.0566,-2.0731,-2.0769,-2.0641,-2.0537,-2.0295,-1.9849,-1.9558,-1.9075,-1.8423,-1.7968,-1.7388,-1.6612,-1.657,0.0,-1.7565,-1.7909,-1.8685,-1.9926,-2.008,0.0,0.0,0.0,0.0,0.0,-1.9477,-1.9544,-1.9458,-1.9699,-1.9798,-1.9798,-1.9798,-1.9798,-1.9798,-1.9798,-1.9798,-1.9798,-1.9798,-1.9798,-1.9798,-1.9798,-1.9798,-1.9798,-1.9798,-1.9798,-1.9798,-1.9798,-2.0633,-2.1609,-2.1677,-2.2543,-2.3451,-2.3566,-2.3566,-2.3566,-2.361,-2.3595,-2.3595,-2.3595,-2.3696,-2.3603,-2.3122,-2.3005,-2.3046,0.0,0.0,0.0,0.0,0.0,0.0,0.0,-2.4133,-2.3906,-2.3624,0.0,0.0,0.0,0.0,0.0,0.0,0.0,0.0,0.0,0.0,0.0,0.0,0.0,-2.5056,-2.6595,-2.545,-2.5174,-2.5726,-2.5604,-2.5983,-2.6725,-2.5796,-2.5645,-2.6101,-2.6451,-2.6341,-2.6026,-2.6879,-2.6677,-2.5944,-2.6068,-2.6016,-2.6043,-2.0644,-2.0634,-2.0634,-2.0576,-2.0644,-2.0634,-2.0576,-2.0566,-2.0566,-2.0566,-2.0566,-2.04,-1.9971,-1.9836,-1.9625,-1.9274,-1.8731,-1.8392,-1.8382,-1.7968,-1.7461,0.0,0.0,-1.7323,-1.8093,-1.8093,-1.8685,-1.9798,0.0,0.0,-1.9978,0.0,0.0,-1.9965,-2.0118,-2.0055,-1.9798,-1.9798,-1.9798,-1.9798,-1.9798,-1.9798,-1.9798,-1.9798,-1.9798,-1.9798,-1.9798,-1.9798,-1.9798,-1.9798,-1.9798,-1.9798,-1.9798,-1.9798,-1.9798,-1.9798,-2.0633,-2.1609,-2.1609,-2.242,-2.3319,-2.3466,-2.3509,-2.3494,-2.3551,-2.3595,-2.3595,-2.3595,-2.3595,-2.3595,-2.3595,-2.3155,-2.2843,-2.298,0.0,0.0,0.0,0.0,0.0,0.0,-2.3717,-2.3302,-2.3302,0.0,0.0,0.0,0.0,0.0,0.0,0.0,0.0,-2.4887,-2.4533,0.0,-2.4918,-2.4492,-2.4317,-2.4348,-2.4836,-2.4777,-2.4223,-2.4082,-2.4405,-2.4998,-2.4472,-2.4457,-2.4918,-2.6101,-2.615,-2.5605,-2.6768,-2.6529,-2.554,-2.5944,-2.5835,-2.5712,-2.0566,-2.0566,-2.0566,-2.0566,-2.0566,-2.0566,-2.0566,-2.0566,-2.0459,-2.0156,-2.0117,-1.9919,-1.9256,-1.9489,-1.9563,0.0,-1.8588,-1.813,0.0,-1.7233,-1.6601,-1.6136,-1.6115,-1.6367,-1.7013,-1.7323,-1.8081,-1.9239,0.0,0.0,0.0,-2.008,-2.0029,-1.9862,-1.9914,-1.9862,-1.9798,-1.9798,-1.9798,-1.9798,-1.9798,-1.9798,-1.9798,-1.9798,-1.9798,-1.9798,-1.9798,-1.9798,-1.9798,-1.9798,-1.9798,-1.9798,-1.9798,-1.9798,-1.9798,-1.9798,-2.0633,-2.1609,-2.1609,-2.242,-2.3319,-2.3363,-2.3422,-2.3509,-2.3538,-2.3566,-2.3475,-2.3056,-2.2966,-2.2697,-2.1799,-2.1519,-2.1476,-2.1529,0.0,0.0,0.0,0.0,0.0,0.0,0.0,-2.2609,0.0,-2.2809,0.0,0.0,0.0,0.0,0.0,0.0,0.0,0.0,-2.4219,0.0,-2.5191,-2.5037,-2.5198,-2.5586,-2.5696,-2.5773,-2.5831,-2.5425,-2.5334,-2.5546,-2.5259,-2.4874,-2.4457,-2.5091,-2.5266,-2.5153,-2.5783,-2.581,-2.554,-2.5944,-2.5835,-2.561,-2.0566,-2.0566,-2.0566,-2.0566,-2.0566,-2.0566,-2.0566,-2.0566,-2.041,-1.9971,-1.9912,-1.959,-1.8872,-1.9029,0.0,-1.9071,-1.8344,0.0,-1.7688,-1.6881,-1.6249,-1.596,-1.5949,-1.6206,-1.6776,0.0,0.0,-1.8987,-1.9291,-1.9604,-1.9926,-1.9926,-1.9862,-1.9798,-1.9798,-1.9798,-1.9798,-1.9798,-1.9798,-1.9798,-1.9798,-1.9798,-1.9798,-1.9798,-1.9798,-1.9798,-1.9798,-1.9673,-1.9547,-1.9736,-1.9535,-1.9271,-1.9673,-1.966,-1.9547,-1.9748,-2.0497,-2.1272,-2.1465,-2.2189,-2.2963,-2.3157,-2.3334,-2.3451,-2.3538,-2.3566,-2.343,-2.2802,-2.2724,-2.2353,-2.1276,-2.091,-2.0768,-2.0858,0.0,0.0,0.0,0.0,0.0,0.0,0.0,0.0,0.0,-2.2517,0.0,0.0,0.0,0.0,0.0,0.0,0.0,-2.43,-2.4266,0.0,-2.5615,-2.5369,-2.554,-2.6138,-2.5986,-2.6148,-2.6557,-2.5706,-2.5348,-2.5348,-2.5053,-2.4618,-2.4166,-2.463,-2.4759,-2.4719,-2.5275,-2.5313,-2.5137,-2.5689,-2.5726,-2.5577,-2.0566,-2.0537,0.0,0.0,-2.0498,0.0,-2.0478,-2.0478,-2.0322,-1.9883,-1.9824,-1.9512,-1.8682,-1.8594,-1.8626,-1.8731,0.0,0.0,0.0,-1.685,-1.6374,-1.6384,-1.6384,0.0,-1.7146,-1.7146,-1.7699,-1.8934,-1.95,-1.9798,-1.9798,-1.9798,-1.9786,-1.9748,-1.9786,-1.9786,-1.9748,-1.9786,-1.9798,-1.9798,-1.9798,-1.9798,-1.9798,-1.9798,-1.9773,-1.9748,-1.9748,-1.9409,-1.8995,-1.9522,-1.9058,-1.843,-1.9397,-1.9384,-1.9133,-1.9648,-2.0207,-2.0746,-2.1272,-2.1827,-2.237,-2.2947,-2.3201,-2.3348,-2.3551,-2.3595,-2.3415,-2.2742,-2.2649,-2.2398,-2.168,-2.1051,-2.0632,-2.0715,-2.0842,-2.0953,-2.1011,0.0,0.0,0.0,0.0,0.0,0.0,-2.284,-2.2978,0.0,0.0,0.0,0.0,0.0,0.0,-2.5272,-2.4606,-2.4869,-2.6168,-2.5603,-2.5575,-2.6106,-2.5953,-2.6129,-2.6617,-2.5345,-2.4686,-2.4657,-2.4115,-2.3927,-2.4024,-2.4533,-2.4589,-2.4343,-2.516,-2.502,-2.4426,-2.5198,-2.5465,-2.5503,0.0,0.0,-2.0068,-2.0068,-1.9805,-1.959,-1.959,-1.959,-1.9434,-1.8994,-1.8936,-1.873,-1.8419,-1.8223,-1.8114,-1.8122,-1.747,-1.694,-1.656,-1.6304,-1.6239,-1.6374,-1.6384,-1.6488,-1.6591,-1.6581,-1.719,-1.8321,-1.9319,-1.9798,-1.9798,-1.9798,-1.9585,-1.9233,-1.9623,-1.9572,-1.9233,-1.9635,-1.9798,-1.9798,-1.9798,-1.9798,-1.9798,-1.9798,-1.956,-1.9208,-1.9208,-1.8857,-1.8417,-1.8543,-1.8694,-1.8807,-1.8643,-1.8781,-1.9133,-1.9648,-2.0459,-2.1264,-2.1382,-2.2063,-2.2752,-2.2902,-2.3112,-2.3348,-2.3551,-2.3595,-2.3281,-2.2158,-2.1934,-2.156,-2.0378,-2.0034,-1.9929,-1.9951,-2.0125,-2.0233,-2.0269,0.0,0.0,0.0,-2.1301,-2.1553,-2.1553,-2.2132,-2.2671,0.0,0.0,0.0,0.0,0.0,-2.4565,-2.5142,-2.4948,-2.5211,-2.6047,-2.6412,-2.6819,-2.7372,-2.6699,-2.6756,-2.737,-2.6497,-2.5854,-2.533,-2.4822,-2.4279,-2.3882,-2.4193,-2.4234,-2.4151,-2.4784,-2.4902,-2.4735,-2.5313,-2.5313,-2.5098,-1.998,-1.9785,-1.9629,-1.9629,-1.9443,-1.9287,-1.9287,-1.9287,-1.9131,-1.8691,-1.8562,-1.8398,-1.7917,-1.7782,-1.7448,-1.6782,-1.6934,-1.694,-1.6481,-1.6304,-1.6306,-1.6384,-1.6384,-1.6384,-1.6384,-1.6637,-1.7346,-1.8483,-1.9384,-1.9798,-1.9798,-1.9798,-1.9648,-1.9397,-1.9673,-1.9648,-1.9397,-1.9685,-1.9798,-1.9798,-1.9798,-1.9798,-1.9798,-1.9798,-1.9623,-1.9346,-1.912,-1.8681,-1.8204,-1.8204,-1.8053,-1.7915,-1.8141,-1.8242,-1.838,-1.892,-1.9464,-2.003,-2.0475,-2.1204,-2.2016,-2.2815,-2.3157,-2.3274,-2.3108,-2.3133,-2.2817,-2.1515,-2.1246,-2.0932,-1.9869,-1.969,-1.969,-1.969,-1.9884,-2.0005,-2.0005,-2.0166,0.0,-2.1152,-2.1553,-2.187,-2.2178,-2.2532,-2.2902,-2.3271,0.0,0.0,-2.5241,-2.5213,-2.5446,-2.6031,-2.5591,-2.5833,-2.6816,-2.7131,-2.7429,-2.779,-2.7315,-2.7066,-2.7096,-2.6437,-2.5779,-2.5121,-2.4507,-2.4085,-2.3839,-2.4024,-2.4082,-2.4166,-2.4679,-2.4759,-2.4614,-2.5059,-2.5059,-2.4918,-1.9287,-1.9238,-1.9189,-1.9189,-1.9131,-1.9092,-1.9092,-1.9092,-1.8965,-1.8594,-1.8486,-1.8174,-1.7461,-1.7324,-1.6807,-1.5615,-1.6557,-1.7032,-1.6565,-1.6481,-1.6488,-1.6488,-1.6602,-1.6648,-1.6648,-1.7168,-1.7984,-1.8987,-1.9552,-1.9798,-1.9798,-1.9798,-1.9761,-1.9685,-1.9761,-1.9761,-1.9685,-1.9773,-1.9798,-1.9798,-1.9798,-1.9798,-1.9798,-1.9759,-1.9659,-1.951,-1.9008,-1.8445,-1.7953,-1.7953,-1.7375,-1.6798,-1.7677,-1.7689,-1.7451,-1.784,-1.7953,-1.8211,-1.9297,-2.012,-2.1018,-2.2468,-2.2908,-2.2876,-2.2429,-2.2435,-2.2173,-2.0961,-2.0722,-2.0513,-1.9809,-1.969,-1.969,-1.969,-1.9848,-1.997,-2.0005,0.0,-2.0839,-2.1993,-2.2317,-2.2671,-2.324,-2.3394,-2.3486,-2.3594,-2.4133,0.0,0.0,-2.5939,-2.6443,-2.7009,-2.6287,-2.6507,-2.7775,-2.7675,-2.7675,-2.779,-2.7625,-2.7275,-2.6707,-2.5959,-2.53,-2.4732,-2.3954,-2.3696,-2.3782,-2.3982,-2.4082,-2.4166,-2.4614,-2.4558,-2.4261,-2.4639,-2.4719,-2.4735,-1.9287,-1.8994,-1.874,-1.874,-1.8447,-1.8203,-1.8203,-1.8203,-1.8184,-1.8115,-1.7803,-1.7529,-1.7393,-1.7051,-1.6592,-1.6016,-1.6738,-1.665,-1.5379,-1.6213,-1.6786,-1.6899,-1.7501,-1.7831,-1.7831,-1.8441,-1.8827,-1.8987,-1.9552,-1.9798,-1.9798,-1.9798,-1.9572,-1.9171,-1.961,-1.956,-1.9171,-1.961,-1.9798,-1.9798,-1.9656,-1.9708,-1.9798,-1.9565,-1.9057,-1.8442,-1.8246,-1.756,-1.6773,-1.6773,-1.6986,-1.7187,-1.6873,-1.7061,-1.73,-1.6898,-1.6773,-1.7193,-1.907,-2.0243,-2.1037,-2.1403,-2.1515,-2.1527,-2.1658,-2.1669,-2.1501,-2.0833,-2.0722,-2.0513,-1.9809,-1.969,-1.969,-1.969,-1.9762,-1.9884,0.0,0.0,-2.1105,-2.1409,-2.244,-2.3179,-2.3286,-2.381,-2.4379,-2.4964,-2.5102,-2.5472,-2.618,-2.6719,-2.6764,-2.6184,-2.6389,-2.6861,-2.761,-2.7625,-2.7625,-2.7625,-2.7625,-2.7565,-2.743,-2.6153,-2.5555,-2.539,-2.4236,-2.3739,-2.3653,-2.4024,-2.3982,-2.3739,-2.4151,-2.4135,-2.3925,-2.4094,-2.4135,-2.4177,-1.8603,-1.8437,-1.8301,-1.8301,-1.8135,-1.8008,-1.8008,-1.8008,-1.8008,-1.8008,-1.7646,-1.7295,-1.7061,-1.6641,-1.6191,-1.5752,-1.6341,-1.6456,-1.5761,-1.6759,-1.739,-1.7457,-1.7886,-1.8267,-1.8602,-1.8881,-1.9146,-1.9448,-1.9708,-1.9798,-1.9798,-1.9798,-1.9673,-1.9459,-1.9698,-1.9673,-1.9459,-1.9698,-1.9798,-1.9773,-1.9332,-1.922,-1.9233,-1.8796,-1.8436,-1.8059,-1.7759,-1.7555,-1.7338,-1.6722,-1.6911,-1.7275,-1.6697,-1.6697,-1.6861,-1.6597,-1.685,-1.7481,-1.88,-1.9824,-2.0596,-2.0997,-2.1167,-2.116,-2.0956,-2.0946,-2.0831,-2.0251,-2.0168,-2.0064,-1.975,-1.969,-1.969,-1.969,-1.9762,0.0,0.0,-2.0624,-2.1283,-2.1778,-2.2686,-2.3579,-2.4317,-2.4671,-2.5133,-2.5841,-2.5887,-2.615,-2.6796,-2.6977,-2.7066,-2.6968,-2.6369,-2.6378,-2.7036,-2.7036,-2.6856,-2.6512,-2.6871,-2.6677,-2.5959,-2.536,-2.4881,-2.4492,-2.3908,-2.3653,-2.3595,-2.3882,-2.3882,-2.3739,-2.3982,-2.4024,-2.3879,-2.3572,-2.3559,-2.3677,-1.7881,-1.7939,-1.7978,-1.7881,-1.7949,-1.8008,-1.8008,-1.8008,-1.7978,-1.7881,-1.75,-1.7061,-1.6621,-1.6182,-1.5781,-1.5439,-1.5968,-1.6358,-1.6472,-1.7446,-1.8007,-1.8007,-1.8267,-1.8697,-1.9198,-1.9198,-1.9396,-1.9798,-1.9798,-1.9798,-1.9798,-1.9798,-1.9798,-1.9798,-1.9798,-1.9798,-1.9798,-1.9747,-1.9747,-1.9761,-1.9157,-1.8921,-1.8809,-1.8337,-1.8014,-1.7847,-1.7493,-1.7576,-1.7677,-1.681,-1.681,-1.7099,-1.666,-1.6522,-1.6522,-1.6522,-1.7131,-1.7923,-1.8602,-1.929,-1.9986,-2.0436,-2.0633,-2.0636,-2.0268,-2.0226,-2.0176,-1.9779,-1.969,-1.969,-1.969,-1.969,-1.969,-1.969,0.0,0.0,0.0,-2.1005,-2.1843,-2.2686,-2.3363,-2.4241,-2.5441,-2.5564,-2.5857,-2.6565,-2.6611,-2.675,-2.7209,-2.7202,-2.7425,-2.7775,-2.6501,-2.6078,-2.6587,-2.6437,-2.6108,-2.5615,-2.6123,-2.5839,-2.4852,-2.4657,-2.4343,-2.3819,-2.367,-2.3595,-2.3595,-2.3739,-2.3782,-2.3782,-2.3882,-2.394,-2.3806,-2.3156,-2.3102,-2.3328,-1.751,-1.7744,-1.7881,-1.75,-1.7754,-1.8008,-1.8008,-1.8008,-1.7871,-1.748,-1.7051,-1.6611,-1.6162,-1.5723,-1.5449,-1.541,-1.5968,-1.6528,-1.709,-1.7831,-1.8278,-1.8278,-1.9028,-1.9552,-1.9747,-1.9747,-1.9747,-1.9798,-1.9798,-1.9798,-1.9798,-1.9798,-1.9798,-1.9798,-1.9798,-1.9798,-1.9798,-1.9656,-1.9708,-1.9747,-1.9475,-1.9218,-1.897,-1.8672,-1.8078,-1.7438,-1.7277,-1.694,-1.6622,-1.6547,-1.6547,-1.6572,-1.6491,-1.6522,-1.6522,-1.6522,-1.7131,-1.7923,-1.856,-1.8927,-1.9188,-1.9232,-1.9359,-1.9434,-1.9465,-1.9575,-1.9656,-1.9705,-1.969,-1.969,-1.969,-1.969,-1.969,-1.969,0.0,0.0,-2.0894,-2.2024,-2.3168,-2.4045,-2.4748,-2.5472,-2.6241,-2.6272,-2.6549,-2.7272,-2.721,-2.7178,-2.7177,-2.7643,-2.791,-2.779,-2.6984,-2.6542,-2.6587,-2.5989,-2.5659,-2.5615,-2.5659,-2.563,-2.551,-2.4866,-2.4552,-2.4462,-2.3879,-2.3595,-2.3595,-2.3739,-2.3739,-2.3638,-2.3739,-2.3739,-2.3578,-2.2948,-2.294,-2.3179,-1.7803,-1.79,-1.7881,-1.7461,-1.7519,-1.7529,-1.7266,-1.7217,-1.7158,-1.7002,-1.6592,-1.625,-1.6145,-1.5674,-1.541,-1.541,-1.5968,-1.6425,-1.6641,-1.7257,-1.8038,-1.9081,-1.9396,-1.9656,-1.9798,-1.9798,-1.9798,-1.9798,-1.9798,-1.9798,-1.9798,-1.9798,-1.9798,-1.9798,-1.9798,-1.9798,-1.9798,-1.9759,-1.9708,-1.9594,-1.8733,-1.8351,-1.8189,-1.7414,-1.6987,-1.676,-1.676,-1.6892,-1.6999,-1.6635,-1.676,-1.6986,-1.6635,-1.6522,-1.6522,-1.6522,-1.6934,-1.7528,-1.8031,-1.8604,-1.9026,-1.8784,-1.8936,-1.9213,-1.9376,-1.9265,-1.9213,-1.9617,-1.9493,-1.9398,-1.9639,-1.969,-1.9824,-2.0258,0.0,-2.1009,-2.1569,-2.2498,-2.3249,-2.3656,-2.4656,-2.558,-2.6287,-2.6734,-2.7226,-2.7854,-2.7852,-2.7756,-2.7561,-2.7754,-2.779,-2.7675,-2.7045,-2.6699,-2.6587,-2.5944,-2.5405,-2.5001,-2.5001,-2.4777,-2.4358,-2.4103,-2.3984,-2.3984,-2.3714,-2.3595,-2.3565,-2.3233,-2.3293,-2.3565,-2.3218,-2.3068,-2.2996,-2.2757,-2.2827,-2.2858,-1.7637,-1.7725,-1.7676,-1.7246,-1.7295,-1.7236,-1.6797,-1.6855,-1.6836,-1.6562,-1.625,-1.6127,-1.6168,-1.5869,-1.5748,-1.5968,-1.6177,-1.6419,-1.6586,-1.7246,-1.8082,-1.9226,-1.9344,-1.95,-1.9798,-1.9798,-1.9798,-1.9798,-1.9798,-1.9798,-1.9798,-1.9798,-1.9798,-1.9798,-1.9798,-1.9798,-1.9798,-1.9571,-1.9545,-1.9569,-1.8326,-1.7906,-1.7807,-1.6938,-1.6511,-1.6436,-1.6479,-1.6773,-1.7049,-1.666,-1.6785,-1.7049,-1.6647,-1.6522,-1.6522,-1.6522,-1.682,-1.724,-1.7352,-1.8147,-1.886,-1.8745,-1.8936,-1.9176,-1.9176,-1.9139,-1.9087,-1.9273,-1.931,-1.9383,-1.9775,-1.993,-2.0228,-2.0917,-2.1278,-2.1642,-2.2237,-2.297,-2.3555,-2.3902,-2.4748,-2.5672,-2.658,-2.7057,-2.7563,-2.814,-2.8137,-2.7989,-2.774,-2.774,-2.7675,-2.7625,-2.724,-2.6909,-2.6587,-2.5944,-2.539,-2.4881,-2.4686,-2.4492,-2.4208,-2.3789,-2.3714,-2.3909,-2.3684,-2.3595,-2.3565,-2.3131,-2.3101,-2.3266,-2.2847,-2.263,-2.2541,-2.2315,-2.2332,-2.2355,-1.6816,-1.708,-1.7246,-1.6807,-1.709,-1.7227,-1.6787,-1.709,-1.7051,-1.6233,-1.6115,-1.6128,-1.6306,-1.6312,-1.6528,-1.7146,-1.6711,-1.664,-1.7242,-1.7966,-1.841,-1.8501,-1.8697,-1.9121,-1.9798,-1.9798,-1.9798,-1.9798,-1.9798,-1.9798,-1.9798,-1.9798,-1.9798,-1.9798,-1.9798,-1.9798,-1.9761,-1.907,-1.9208,-1.9698,-1.846,-1.8084,-1.8141,-1.7589,-1.7024,-1.6522,-1.6522,-1.6522,-1.6522,-1.6522,-1.6522,-1.6522,-1.6522,-1.6522,-1.6522,-1.6522,-1.682,-1.7073,-1.665,-1.7489,-1.8592,-1.8988,-1.9176,-1.9213,-1.886,-1.9213,-1.9376,-1.8669,-1.9147,-1.9775,-2.0045,-2.0425,-2.0932,-2.1605,-2.2248,-2.275,-2.2996,-2.3557,-2.431,-2.5182,-2.5318,-2.5857,-2.7257,-2.7287,-2.7468,-2.814,-2.794,-2.774,-2.7625,-2.7625,-2.7625,-2.7625,-2.7625,-2.726,-2.6602,-2.5944,-2.5615,-2.56,-2.4941,-2.4971,-2.5555,-2.4208,-2.3984,-2.4537,-2.3894,-2.3595,-2.3595,-2.3595,-2.3221,-2.2709,-2.2709,-2.2491,-2.2102,-2.1449,-2.1424,-2.161,-1.6758,-1.6836,-1.6787,-1.6338,-1.6367,-1.6309,-1.5869,-1.5918,-1.5908,-1.5644,-1.5605,-1.5615,-1.5652,-1.6026,-1.6358,-1.6528,-1.6493,-1.6534,-1.6788,-1.7126,-1.7722,-1.8584,-1.9109,-1.95,-1.9798,-1.9798,-1.9623,-1.9258,-1.9623,-1.9409,-1.8694,-1.9083,-1.9258,-1.9208,-1.9146,-1.9295,-1.9619,-1.9033,-1.8846,-1.8858,-1.7852,-1.7476,-1.7439,-1.691,-1.6629,-1.6522,-1.6522,-1.6522,-1.6522,-1.6522,-1.6522,-1.6522,-1.6522,-1.6522,-1.6522,-1.6522,-1.6607,-1.6735,-1.6947,-1.7269,-1.7639,-1.776,-1.8266,-1.8745,-1.8784,-1.8461,-1.8344,-1.9184,-1.942,-1.9695,-2.038,-2.1004,-2.162,-2.2278,-2.2615,-2.2983,-2.3618,-2.3945,-2.4227,-2.4537,-2.5025,-2.5628,-2.6489,-2.6964,-2.742,-2.8008,-2.789,-2.779,-2.774,-2.774,-2.7675,-2.7625,-2.7675,-2.736,-2.6602,-2.5944,-2.5375,-2.4881,-2.4686,-2.4477,-2.4208,-2.4283,-2.4163,-2.3894,-2.3684,-2.3355,-2.2921,-2.2458,-2.2158,-2.1934,-2.1485,-2.1248,-2.1174,-2.1431,-2.1506,-2.1408,-1.6699,-1.6665,-1.6699,-1.6602,-1.6445,-1.6294,-1.6078,-1.6008,-1.6065,-1.6104,-1.6083,-1.6187,-1.6415,-1.681,-1.709,-1.7368,-1.7238,-1.7139,-1.7088,-1.7426,-1.8005,-1.8782,-1.9377,-1.9708,-1.9798,-1.9798,-1.9547,-1.8983,-1.9547,-1.9258,-1.8216,-1.8769,-1.8858,-1.8596,-1.8535,-1.866,-1.8933,-1.8387,-1.8287,-1.835,-1.7339,-1.7085,-1.7235,-1.666,-1.6479,-1.6522,-1.6522,-1.6522,-1.6522,-1.6522,-1.6522,-1.6522,-1.6522,-1.6522,-1.6522,-1.6522,-1.6522,-1.6565,-1.6863,-1.7073,-1.7157,-1.6989,-1.7585,-1.8266,-1.8528,-1.8147,-1.7921,-1.8602,-1.8914,-1.9379,-2.0375,-2.1079,-2.1817,-2.2892,-2.3068,-2.333,-2.3921,-2.4082,-2.4166,-2.4317,-2.486,-2.5492,-2.6153,-2.6702,-2.7261,-2.7795,-2.784,-2.779,-2.774,-2.7485,-2.7285,-2.7235,-2.7045,-2.6579,-2.5824,-2.542,-2.5151,-2.5016,-2.4701,-2.4552,-2.4388,-2.4268,-2.4148,-2.3984,-2.3714,-2.3251,-2.2679,-2.2248,-2.1784,-2.1261,-2.0872,-2.0618,-2.0555,-2.1149,-2.1245,-2.112,-1.6533,-1.6548,-1.6738,-1.7139,-1.6914,-1.671,-1.6888,-1.6995,-1.7015,-1.7153,-1.7168,-1.7424,-1.7984,-1.8093,-1.8321,-1.8881,-1.8597,-1.8215,-1.7835,-1.8449,-1.8859,-1.897,-1.9522,-1.9798,-1.9798,-1.9798,-1.9547,-1.8983,-1.9547,-1.9233,-1.8141,-1.8694,-1.8584,-1.7977,-1.7939,-1.7964,-1.8014,-1.7418,-1.756,-1.8041,-1.6948,-1.6835,-1.725,-1.6722,-1.6522,-1.6522,-1.6522,-1.6522,-1.6522,-1.6522,-1.6522,-1.6522,-1.6522,-1.6522,-1.6522,-1.6522,-1.6522,-1.6522,-1.6522,-1.6863,-1.7115,-1.6723,-1.7212,-1.7869,-1.8083,-1.8068,-1.7921,-1.7434,-1.799,-1.8981,-2.0217,-2.0909,-2.175,-2.3357,-2.3595,-2.3696,-2.394,-2.3982,-2.4067,-2.4276,-2.4713,-2.5343,-2.6107,-2.6654,-2.7142,-2.758,-2.768,-2.77,-2.7535,-2.6856,-2.6497,-2.6497,-2.5914,-2.53,-2.4597,-2.4582,-2.4896,-2.542,-2.4836,-2.4911,-2.539,-2.4223,-2.3999,-2.4448,-2.3819,-2.3161,-2.2619,-2.2532,-2.1754,-2.0617,-2.0617,-2.0434,-2.0208,-2.0579,-2.0695,-2.0728,-1.5674,-1.5693,-1.5723,-1.582,-1.6045,-1.6233,-1.6317,-1.6707,-1.7023,-1.7036,-1.7148,-1.7257,-1.7368,-1.782,-1.8147,-1.8267,-1.8378,-1.8264,-1.7979,-1.8498,-1.8859,-1.897,-1.9522,-1.9798,-1.9798,-1.9798,-1.9547,-1.8983,-1.9547,-1.9032,-1.7576,-1.8129,-1.8257,-1.7964,-1.7449,-1.7698,-1.8425,-1.7451,-1.7165,-1.7376,-1.6754,-1.6597,-1.6685,-1.6572,-1.6522,-1.6522,-1.6522,-1.6522,-1.6522,-1.6522,-1.6522,-1.6522,-1.6522,-1.6522,-1.6522,-1.6522,-1.6522,-1.6522,-1.6522,-1.6863,-1.724,-1.7462,-1.7737,-1.7919,-1.7718,-1.7639,-1.7747,-1.8147,-1.8879,-1.9752,-2.0779,-2.1801,-2.2747,-2.3463,-2.3595,-2.3653,-2.3839,-2.394,-2.4082,-2.4208,-2.433,-2.4854,-2.6061,-2.7222,-2.7887,-2.7775,-2.7391,-2.7089,-2.6958,-2.6231,-2.5824,-2.5824,-2.5689,-2.53,-2.4597,-2.4582,-2.4433,-2.4044,-2.4433,-2.4418,-2.4044,-2.4298,-2.4193,-2.3789,-2.3146,-2.2503,-2.1874,-2.135,-2.0647,-1.9914,-1.9914,-1.9882,-1.9818,-1.9925,-1.9925,-2.003,-1.5684,-1.5723,-1.5791,-1.6006,-1.6055,-1.6186,-1.6467,-1.6867,-1.7184,-1.747,-1.7812,-1.8038,-1.8038,-1.8321,-1.8536,-1.8536,-1.8682,-1.8545,-1.7943,-1.8697,-1.9008,-1.8656,-1.9384,-1.9747,-1.9708,-1.9445,-1.9183,-1.8908,-1.9183,-1.8621,-1.731,-1.7538,-1.7467,-1.7115,-1.6786,-1.6938,-1.7429,-1.6942,-1.6752,-1.686,-1.6604,-1.6522,-1.6522,-1.6522,-1.6522,-1.6522,-1.6522,-1.6522,-1.6522,-1.6522,-1.6522,-1.6522,-1.6522,-1.6522,-1.6522,-1.6522,-1.6522,-1.6522,-1.6522,-1.6693,-1.6905,-1.7144,-1.7574,-1.7935,-1.7773,-1.7604,-1.7633,-1.8138,-1.8551,-1.9243,-2.0581,-2.1346,-2.211,-2.3098,-2.329,-2.3377,-2.3739,-2.3925,-2.4024,-2.4082,-2.4399,-2.5043,-2.6288,-2.679,-2.7106,-2.7229,-2.6738,-2.6376,-2.6219,-2.5556,-2.5136,-2.5136,-2.4822,-2.4477,-2.4148,-2.4133,-2.3954,-2.3595,-2.3969,-2.3954,-2.361,-2.3969,-2.3774,-2.3131,-2.2858,-2.2128,-2.1201,-2.0857,-2.0303,-1.969,-1.969,-1.969,-1.9762,-2.01,-2.0342,-2.053,-1.5879,-1.5947,-1.6064,-1.6445,-1.626,-1.6297,-1.6876,-1.7184,-1.7545,-1.8164,-1.8661,-1.8987,-1.8987,-1.8987,-1.8999,-1.904,-1.917,-1.8861,-1.8068,-1.9007,-1.922,-1.8392,-1.9233,-1.9708,-1.9617,-1.9032,-1.8747,-1.8747,-1.866,-1.8115,-1.7161,-1.7057,-1.6765,-1.6279,-1.6193,-1.6205,-1.6323,-1.6355,-1.6392,-1.6479,-1.6522,-1.6522,-1.6522,-1.6522,-1.6522,-1.6522,-1.6522,-1.6522,-1.6522,-1.6522,-1.6522,-1.6522,-1.6522,-1.6522,-1.6522,-1.6522,-1.6522,-1.6522,-1.6522,-1.6565,-1.6607,-1.6607,-1.7329,-1.8017,-1.8017,-1.7889,-1.7837,-1.7983,-1.8106,-1.8636,-2.0219,-2.0568,-2.1125,-2.2517,-2.2844,-2.3068,-2.3566,-2.3839,-2.4028,-2.4106,-2.4741,-2.5455,-2.6216,-2.598,-2.5997,-2.6378,-2.5918,-2.5589,-2.545,-2.4807,-2.4403,-2.4418,-2.3894,-2.3595,-2.3551,-2.3595,-2.3595,-2.3595,-2.3595,-2.3595,-2.3595,-2.3595,-2.3266,-2.2709,-2.2604,-2.1829,-2.0707,-2.0587,-2.0198,-1.9726,-1.9747,-1.9782,-1.9854,-2.0545,-2.099,-2.1309,-1.5488,-1.5498,-1.5518,-1.5576,-1.585,-1.6297,-1.6876,-1.7461,-1.8008,-1.8646,-1.8885,-1.8987,-1.8987,-1.8987,-1.9093,-1.9316,-1.9368,-1.9214,-1.8858,-1.9421,-1.9484,-1.8895,-1.9345,-1.9604,-1.9617,-1.893,-1.8609,-1.8609,-1.8142,-1.7601,-1.7011,-1.7011,-1.6904,-1.6715,-1.6252,-1.63,-1.6703,-1.6384,-1.6318,-1.6436,-1.6479,-1.6522,-1.6522,-1.6522,-1.6522,-1.6522,-1.6522,-1.6522,-1.6522,-1.6522,-1.6522,-1.6522,-1.6522,-1.6522,-1.6522,-1.6522,-1.6522,-1.6522,-1.6522,-1.682,-1.7115,-1.7115,-1.7544,-1.7991,-1.7987,-1.8419,-1.8748,-1.861,-1.9037,-1.9603,-2.0367,-2.0935,-2.1506,-2.2128,-2.2603,-2.2934,-2.3024,-2.348,-2.4066,-2.4611,-2.5394,-2.5591,-2.4926,-2.5546,-2.5924,-2.5734,-2.5258,-2.4882,-2.4762,-2.4103,-2.3701,-2.3643,-2.3611,-2.3566,-2.3494,-2.3566,-2.3595,-2.3595,-2.3595,-2.3595,-2.3595,-2.3595,-2.3266,-2.2679,-2.2084,-2.1395,-2.0677,-2.0064,-1.9765,-1.9726,-2.0015,-2.0139,-2.0189,-2.0646,-2.0893,-2.1039,-1.5864,-1.5911,-1.6026,-1.6368,-1.6592,-1.6785,-1.7062,-1.7632,-1.8092,-1.837,-1.846,-1.8655,-1.8987,-1.8987,-1.904,-1.9158,-1.9263,-1.9096,-1.8671,-1.9216,-1.9329,-1.8796,-1.8944,-1.9004,-1.8941,-1.802,-1.7556,-1.7472,-1.7325,-1.7127,-1.6883,-1.6499,-1.6353,-1.6329,-1.6098,-1.6122,-1.6329,-1.6242,-1.6244,-1.6275,-1.6318,-1.6392,-1.6436,-1.6436,-1.6479,-1.6522,-1.6522,-1.6522,-1.6522,-1.6522,-1.6522,-1.6522,-1.6522,-1.6522,-1.6522,-1.6522,-1.6522,-1.6522,-1.6522,-1.6878,-1.7306,-1.7306,-1.7925,-1.8563,-1.8563,-1.9032,-1.9387,-1.9032,-1.9233,-1.9697,-2.0386,-2.0762,-2.1264,-2.1988,-2.2314,-2.2649,-2.3201,-2.3551,-2.3902,-2.4219,-2.449,-2.4656,-2.4612,-2.4627,-2.4777,-2.5031,-2.4477,-2.4088,-2.4044,-2.3759,-2.3566,-2.3509,-2.3566,-2.3566,-2.3509,-2.3566,-2.3595,-2.3595,-2.3595,-2.3595,-2.3595,-2.3595,-2.3056,-2.2113,-2.1814,-2.1072,-2.0065,-1.9766,-1.969,-1.9767,-2.005,-2.0345,-2.0665,-2.0861,-2.1023,-2.1166]},{"header":{"parameterUnit":"m.s-1","parameterCategory":1,"la1":30.6,"la2":28.766,"lo1":-90.7593,"lo2":-88.6598,"dy":0.0162,"dx":0.0183,"nx":116,"ny":114,"refTime":"2023-05-18T00:00:00:Z","depth":0,"parameterNumber":3,"parameterNumberName":"V-component_of_WINDS"},"data":[0.0,0.0,0.0,0.0,0.0,0.0,0.0,0.0,0.0,0.0,0.0,0.0,0.0,0.0,0.0,0.0,0.0,0.0,0.0,0.0,0.0,0.0,0.0,0.0,0.0,0.0,0.0,0.0,0.0,0.0,0.0,0.0,0.0,0.0,0.0,0.0,0.0,0.0,0.0,0.0,0.0,0.0,0.0,0.0,0.0,0.0,0.0,0.0,0.0,0.0,0.0,0.0,0.0,0.0,0.0,0.0,0.0,0.0,0.0,0.0,0.0,0.0,0.0,0.0,0.0,0.0,0.0,0.0,0.0,0.0,0.0,0.0,0.0,0.0,0.0,0.0,0.0,0.0,0.0,0.0,0.0,0.0,0.0,0.0,0.0,0.0,0.0,0.0,0.0,0.0,0.0,0.0,0.0,0.0,0.0,0.0,0.0,0.0,0.0,0.0,0.0,0.0,0.0,0.0,0.0,0.0,0.0,0.0,0.0,0.0,0.0,0.0,0.0,0.0,0.0,0.0,0.0,0.0,0.0,0.0,0.0,0.0,0.0,0.0,0.0,0.0,0.0,0.0,0.0,0.0,0.0,0.0,0.0,0.0,0.0,0.0,0.0,0.0,0.0,0.0,0.0,0.0,0.0,0.0,0.0,0.0,0.0,0.0,0.0,0.0,0.0,0.0,0.0,0.0,0.0,0.0,0.0,0.0,0.0,0.0,0.0,0.0,0.0,0.0,0.0,0.0,0.0,0.0,0.0,0.0,0.0,0.0,0.0,0.0,0.0,0.0,0.0,0.0,0.0,0.0,0.0,0.0,0.0,0.0,0.0,0.0,0.0,0.0,0.0,0.0,0.0,0.0,0.0,0.0,0.0,0.0,0.0,0.0,0.0,0.0,0.0,0.0,0.0,0.0,0.0,0.0,0.0,0.0,0.0,0.0,0.0,0.0,0.0,0.0,0.0,0.0,0.0,0.0,0.0,0.0,0.0,0.0,0.0,0.0,0.0,0.0,0.0,0.0,0.0,0.0,0.0,0.0,0.0,0.0,0.0,0.0,0.0,0.0,0.0,0.0,0.0,0.0,0.0,0.0,0.0,0.0,0.0,0.0,0.0,0.0,0.0,0.0,0.0,0.0,0.0,0.0,0.0,0.0,0.0,0.0,0.0,0.0,0.0,0.0,0.0,0.0,0.0,0.0,0.0,0.0,0.0,0.0,0.0,0.0,0.0,0.0,0.0,0.0,0.0,0.0,0.0,0.0,0.0,0.0,0.0,0.0,0.0,0.0,0.0,0.0,0.0,0.0,0.0,0.0,0.0,0.0,0.0,0.0,0.0,0.0,0.0,0.0,0.0,0.0,0.0,0.0,0.0,0.0,0.0,0.0,0.0,0.0,0.0,0.0,0.0,0.0,0.0,0.0,0.0,0.0,0.0,0.0,0.0,0.0,0.0,0.0,0.0,0.0,0.0,0.0,0.0,0.0,0.0,0.0,0.0,0.0,0.0,0.0,0.0,0.0,0.0,0.0,0.0,0.0,0.0,0.0,0.0,0.0,0.0,0.0,0.0,0.0,0.0,0.0,0.0,0.0,0.0,0.0,0.0,0.0,0.0,0.0,0.0,0.0,0.0,0.0,0.0,0.0,0.0,0.0,0.0,0.0,0.0,0.0,0.0,0.0,0.0,0.0,0.0,0.0,0.0,0.0,0.0,0.0,0.0,0.0,0.0,0.0,0.0,0.0,0.0,0.0,0.0,0.0,0.0,0.0,0.0,0.0,0.0,0.0,0.0,0.0,0.0,0.0,0.0,0.0,0.0,0.0,0.0,0.0,0.0,0.0,0.0,0.0,0.0,0.0,0.0,0.0,0.0,0.0,0.0,0.0,0.0,0.0,0.0,0.0,0.0,0.0,0.0,0.0,0.0,0.0,0.0,0.0,0.0,0.0,0.0,0.0,0.0,0.0,0.0,0.0,0.0,0.0,0.0,0.0,0.0,0.0,0.0,0.0,0.0,0.0,0.0,0.0,0.0,0.0,0.0,0.0,0.0,0.0,0.0,0.0,0.0,0.0,0.0,0.0,0.0,0.0,0.0,0.0,0.0,0.0,0.0,0.0,0.0,0.0,0.0,0.0,0.0,0.0,0.0,0.0,0.0,0.0,0.0,0.0,0.0,0.0,0.0,0.0,0.0,0.0,0.0,0.0,0.0,0.0,0.0,0.0,0.0,0.0,0.0,0.0,0.0,0.0,0.0,0.0,0.0,0.0,0.0,0.0,0.0,0.0,0.0,0.0,0.0,0.0,0.0,0.0,0.0,0.0,0.0,0.0,0.0,0.0,0.0,0.0,0.0,0.0,0.0,0.0,0.0,0.0,0.0,0.0,0.0,0.0,0.0,0.0,0.0,0.0,0.0,0.0,0.0,0.0,0.0,0.0,0.0,0.0,0.0,0.0,0.0,0.0,0.0,0.0,0.0,0.0,0.0,0.0,0.0,0.0,0.0,0.0,0.0,0.0,0.0,0.0,0.0,0.0,0.0,0.0,0.0,0.0,0.0,0.0,0.0,0.0,0.0,0.0,0.0,0.0,0.0,0.0,0.0,0.0,0.0,0.0,0.0,0.0,0.0,0.0,0.0,0.0,0.0,0.0,0.0,0.0,0.0,0.0,0.0,0.0,0.0,0.0,0.0,0.0,0.0,0.0,0.0,0.0,0.0,0.0,0.0,0.0,0.0,0.0,0.0,0.0,0.0,0.0,0.0,0.0,0.0,0.0,0.0,0.0,0.0,0.0,0.0,0.0,0.0,0.0,0.0,0.0,0.0,0.0,0.0,0.0,0.0,0.0,0.0,0.0,0.0,0.0,0.0,0.0,0.0,0.0,0.0,0.0,0.0,0.0,0.0,0.0,0.0,0.0,0.0,0.0,0.0,0.0,0.0,0.0,0.0,0.0,0.0,0.0,0.0,0.0,0.0,0.0,0.0,0.0,0.0,0.0,0.0,0.0,0.0,0.0,0.0,0.0,0.0,0.0,0.0,0.0,0.0,0.0,0.0,0.0,0.0,0.0,0.0,0.0,0.0,0.0,0.0,0.0,0.0,0.0,0.0,0.0,0.0,0.0,0.0,0.0,0.0,0.0,0.0,0.0,0.0,0.0,0.0,0.0,0.0,0.0,0.0,0.0,0.0,0.0,0.0,0.0,0.0,0.0,0.0,0.0,0.0,0.0,0.0,0.0,0.0,0.0,0.0,0.0,0.0,0.0,0.0,0.0,0.0,0.0,0.0,0.0,0.0,0.0,0.0,0.0,0.0,0.0,0.0,0.0,0.0,0.0,0.0,0.0,0.0,0.0,0.0,0.0,0.0,0.0,0.0,0.0,0.0,0.0,0.0,0.0,0.0,0.0,0.0,0.0,0.0,0.0,0.0,0.0,0.0,0.0,0.0,0.0,0.0,0.0,0.0,0.0,0.0,0.0,0.0,0.0,0.0,0.0,0.0,0.0,0.0,0.0,0.0,0.0,0.0,0.0,0.0,0.0,0.0,0.0,0.0,0.0,0.0,0.0,0.0,0.0,0.0,0.0,0.0,0.0,0.0,0.0,0.0,0.0,0.0,0.0,0.0,0.0,0.0,0.0,0.0,0.0,0.0,0.0,0.0,0.0,0.0,0.0,0.0,0.0,0.0,0.0,0.0,0.0,0.0,0.0,0.0,0.0,0.0,0.0,0.0,0.0,0.0,0.0,0.0,0.0,0.0,0.0,0.0,0.0,0.0,0.0,0.0,0.0,0.0,0.0,0.0,0.0,0.0,0.0,0.0,0.0,0.0,0.0,0.0,0.0,0.0,0.0,0.0,0.0,0.0,0.0,0.0,0.0,0.0,0.0,0.0,0.0,0.0,0.0,0.0,0.0,0.0,0.0,0.0,0.0,0.0,0.0,0.0,0.0,0.0,0.0,0.0,0.0,0.0,0.0,0.0,0.0,0.0,0.0,0.0,0.0,0.0,0.0,0.0,0.0,0.0,0.0,0.0,0.0,0.0,0.0,0.0,0.0,0.0,0.0,0.0,0.0,0.0,0.0,0.0,0.0,0.0,0.0,0.0,0.0,0.0,0.0,0.0,0.0,0.0,0.0,0.0,0.0,0.0,0.0,0.0,0.0,0.0,0.0,0.0,0.0,0.0,0.0,0.0,0.0,0.0,0.0,0.0,0.0,0.0,0.0,0.0,0.0,0.0,0.0,0.0,0.0,0.0,0.0,0.0,0.0,0.0,0.0,0.0,0.0,0.0,0.0,0.0,0.0,0.0,0.0,0.0,0.0,0.0,0.0,0.0,0.0,0.0,0.0,0.0,0.0,0.0,0.0,0.0,0.0,0.0,0.0,0.0,0.0,0.0,0.0,0.0,0.0,0.0,0.0,0.0,0.0,0.0,0.0,0.0,0.0,0.0,0.0,0.0,0.0,0.0,0.0,0.0,0.0,0.0,0.0,0.0,0.0,0.0,0.0,0.0,0.0,0.0,0.0,0.0,0.0,0.0,0.0,0.0,0.0,0.0,0.0,0.0,0.0,0.0,0.0,0.0,0.0,0.0,0.0,0.0,0.0,0.0,0.0,0.0,0.0,0.0,0.0,0.0,0.0,0.0,0.0,0.0,0.0,0.0,0.0,0.0,0.0,0.0,0.0,0.0,0.0,0.0,0.0,0.0,0.0,0.0,0.0,0.0,0.0,0.0,0.0,0.0,0.0,0.0,0.0,0.0,0.0,0.0,0.0,0.0,0.0,0.0,0.0,0.0,0.0,0.0,0.0,0.0,0.0,0.0,0.0,0.0,0.0,0.0,0.0,0.0,0.0,0.0,0.0,0.0,0.0,0.0,0.0,0.0,0.0,0.0,0.0,0.0,0.0,0.0,0.0,0.0,0.0,0.0,0.0,0.0,0.0,0.0,0.0,0.0,0.0,0.0,0.0,0.0,0.0,0.0,0.0,0.0,0.0,0.0,0.0,0.0,0.0,0.0,0.0,0.0,0.0,0.0,0.0,0.0,0.0,0.0,0.0,0.0,0.0,0.0,0.0,0.0,0.0,0.0,0.0,0.0,0.0,0.0,0.0,0.0,0.0,0.0,0.0,0.0,0.0,0.0,0.0,0.0,0.0,0.0,0.0,0.0,0.0,0.0,0.0,0.0,0.0,0.0,0.0,0.0,0.0,0.0,0.0,0.0,0.0,0.0,0.0,0.0,0.0,0.0,0.0,0.0,0.0,0.0,0.0,0.0,0.0,0.0,0.0,0.0,0.0,0.0,0.0,0.0,0.0,0.0,0.0,0.0,0.0,0.0,0.0,0.0,0.0,0.0,0.0,0.0,0.0,0.0,0.0,0.0,0.0,0.0,0.0,0.0,0.0,0.0,0.0,0.0,0.0,0.0,0.0,0.0,0.0,0.0,0.0,0.0,0.0,0.0,0.0,0.0,0.0,0.0,0.0,0.0,0.0,0.0,0.0,0.0,0.0,0.0,0.0,0.0,0.0,0.0,0.0,0.0,0.0,0.0,0.0,0.0,0.0,0.0,0.0,0.0,0.0,0.0,0.0,0.0,0.0,0.0,0.0,0.0,0.0,0.0,0.0,0.0,0.0,0.0,0.0,0.0,0.0,0.0,0.0,0.0,0.0,0.0,0.0,0.0,0.0,0.0,0.0,0.0,0.0,0.0,0.0,0.0,0.0,0.0,0.0,0.0,0.0,0.0,0.0,0.0,0.0,0.0,0.0,0.0,0.0,0.0,0.0,0.0,0.0,0.0,0.0,0.0,0.0,0.0,0.0,0.0,0.0,0.0,0.0,0.0,0.0,0.0,0.0,0.0,0.0,0.0,0.0,0.0,0.0,0.0,0.0,0.0,0.0,0.0,0.0,0.0,0.0,0.0,0.0,0.0,0.0,0.0,0.0,0.0,0.0,0.0,0.0,0.0,0.0,0.0,0.0,0.0,0.0,0.0,0.0,0.0,0.0,0.0,0.0,0.0,0.0,0.0,0.0,0.0,0.0,0.0,0.0,0.0,0.0,0.0,0.0,0.0,0.0,0.0,0.0,0.0,0.0,0.0,0.0,0.0,0.0,0.0,0.0,0.0,0.0,0.0,0.0,-0.6974,0.0,0.0,0.0,0.0,0.0,0.0,0.0,0.0,0.0,0.0,0.0,0.0,0.0,0.0,0.0,0.0,0.0,0.0,0.0,0.0,0.0,0.0,0.0,0.0,0.0,0.0,0.0,0.0,0.0,0.0,0.0,0.0,0.0,0.0,0.0,0.0,0.0,0.0,0.0,-0.3796,-0.3961,-0.4112,-0.4023,-0.4081,-0.4192,0.0,0.0,0.0,0.0,0.0,0.0,0.0,0.0,0.0,0.0,0.0,0.0,0.0,0.0,0.0,0.0,0.0,0.0,0.0,0.0,0.0,0.0,0.0,0.0,0.0,0.0,0.0,0.0,0.0,0.0,0.0,0.0,0.0,0.0,0.0,0.0,0.0,0.0,0.0,0.0,0.0,0.0,0.0,0.0,0.0,0.0,0.0,0.0,0.0,0.0,0.0,0.0,0.0,0.0,0.0,0.0,0.0,0.0,0.0,0.0,0.0,0.0,0.0,0.0,0.0,0.0,0.0,0.0,0.0,0.0,0.0,-0.7661,0.0,0.0,0.0,0.0,0.0,0.0,0.0,0.0,0.0,0.0,0.0,0.0,0.0,0.0,0.0,0.0,0.0,0.0,0.0,0.0,0.0,0.0,0.0,0.0,0.0,0.0,0.0,0.0,0.0,0.0,0.0,0.0,0.0,0.0,0.0,-0.3486,-0.3721,-0.3794,-0.4296,-0.4597,-0.4688,-0.459,-0.4447,-0.428,-0.4554,0.0,0.0,0.0,0.0,0.0,0.0,0.0,0.0,0.0,0.0,0.0,0.0,0.0,0.0,0.0,0.0,0.0,0.0,0.0,0.0,0.0,0.0,0.0,0.0,0.0,0.0,0.0,0.0,0.0,0.0,0.0,0.0,0.0,0.0,0.0,0.0,0.0,0.0,0.0,0.0,0.0,0.0,0.0,0.0,0.0,0.0,0.0,0.0,0.0,0.0,0.0,0.0,0.0,0.0,0.0,0.0,0.0,0.0,0.0,0.0,0.0,0.0,0.0,0.0,-1.1162,-1.0775,-1.1495,-1.1279,-1.036,-0.9857,-0.9285,-0.8746,0.0,0.0,0.0,0.0,0.0,0.0,0.0,0.0,0.0,0.0,0.0,0.0,0.0,0.0,0.0,0.0,0.0,0.0,0.0,0.0,0.0,0.0,0.0,-0.2601,-0.2835,-0.2938,-0.313,0.0,0.0,0.0,0.0,0.0,0.0,-0.317,-0.3832,-0.4304,-0.455,-0.4857,-0.4881,-0.4713,-0.4997,-0.5031,-0.4971,-0.5204,-0.5374,-0.5514,0.0,0.0,0.0,0.0,0.0,0.0,0.0,0.0,0.0,0.0,0.0,0.0,0.0,0.0,0.0,0.0,0.0,0.0,0.0,0.0,0.0,0.0,0.0,0.0,0.0,0.0,0.0,0.0,0.0,0.0,0.0,0.0,0.0,0.0,0.0,0.0,0.0,0.0,0.0,0.0,0.0,-0.6046,-0.6648,0.0,0.0,0.0,0.0,0.0,0.0,0.0,0.0,0.0,0.0,0.0,0.0,0.0,0.0,-1.1496,-1.2361,-1.274,-1.2779,-1.34,-1.3484,-1.2943,-1.3137,-1.2921,-1.2376,-1.2388,0.0,-0.9723,-0.9166,0.0,0.0,0.0,0.0,0.0,0.0,0.0,0.0,0.0,0.0,0.0,0.0,0.0,0.0,0.0,0.0,0.0,0.0,0.0,0.0,0.0,-0.287,-0.3194,-0.3337,-0.3704,-0.3946,0.0,0.0,0.0,0.0,0.0,-0.37,-0.348,-0.3924,-0.4737,-0.5829,-0.5672,-0.5889,-0.6459,-0.6085,-0.6128,-0.6427,-0.6365,-0.6093,-0.5678,-0.5873,0.0,0.0,0.0,0.0,0.0,0.0,0.0,0.0,0.0,0.0,0.0,0.0,0.0,0.0,0.0,0.0,0.0,0.0,0.0,0.0,0.0,0.0,0.0,0.0,0.0,0.0,0.0,0.0,0.0,0.0,0.0,0.0,0.0,0.0,0.0,0.0,0.0,0.0,0.0,-0.593,-0.6768,-0.7021,-0.7254,-0.7255,0.0,0.0,0.0,0.0,0.0,0.0,0.0,0.0,0.0,-1.1973,-1.2476,-1.29,-1.3328,-1.4071,-1.4526,-1.4691,-1.5114,-1.5186,-1.4845,-1.4805,-1.4449,-1.3818,-1.3835,-1.3246,-1.2024,-1.0785,-1.0192,-1.0008,0.0,0.0,0.0,0.0,0.0,-0.9166,0.0,0.0,0.0,0.0,0.0,0.0,0.0,0.0,0.0,0.0,0.0,0.0,-0.2769,-0.3155,-0.3533,-0.3741,-0.4268,-0.4539,-0.4443,0.0,0.0,0.0,-0.4096,-0.3965,-0.3873,-0.45,-0.555,-0.7036,-0.6866,-0.7361,-0.8274,-0.7372,-0.7266,-0.7785,-0.7505,-0.6907,-0.6142,-0.6299,-0.6,-0.541,0.0,0.0,0.0,0.0,0.0,0.0,0.0,0.0,0.0,0.0,0.0,0.0,0.0,0.0,0.0,0.0,0.0,0.0,0.0,0.0,0.0,0.0,0.0,0.0,0.0,0.0,0.0,0.0,0.0,0.0,0.0,0.0,0.0,0.0,0.0,0.0,0.0,-0.7035,-0.7876,-0.769,-0.8467,-0.8615,0.0,0.0,0.0,0.0,0.0,0.0,-1.1608,-1.2357,-1.3137,-1.3841,-1.433,-1.476,-1.519,-1.5625,-1.5992,-1.6279,-1.6426,-1.6354,-1.6065,-1.5976,-1.5589,-1.492,-1.4826,-1.455,-1.3952,-1.2286,-1.1422,-1.1142,-1.0631,-1.0406,-1.0361,-1.0516,-1.0432,-1.034,0.0,0.0,0.0,0.0,0.0,0.0,0.0,0.0,0.0,0.0,0.0,-0.2984,-0.3648,-0.329,-0.3289,-0.3905,-0.4354,-0.4576,-0.4511,-0.4987,-0.5034,-0.4512,-0.4767,-0.4718,-0.4272,-0.5887,-0.7125,-0.7936,-0.8663,-0.92,-0.9386,-0.8637,-0.8449,-0.8723,-0.8418,-0.7868,-0.7292,-0.688,-0.6313,-0.5761,-0.5565,0.0,0.0,0.0,0.0,0.0,0.0,0.0,0.0,0.0,0.0,0.0,0.0,0.0,0.0,0.0,0.0,0.0,0.0,0.0,0.0,0.0,0.0,0.0,0.0,0.0,0.0,0.0,0.0,0.0,0.0,0.0,0.0,0.0,0.0,0.0,0.0,0.0,0.0,-0.9327,-1.0496,0.0,0.0,0.0,0.0,-1.1368,-1.2277,-1.3086,-1.3819,-1.4513,-1.513,-1.5604,-1.6019,-1.6453,-1.7014,-1.7048,-1.7208,-1.7488,-1.7235,-1.6954,-1.6673,-1.6386,-1.5989,-1.5507,-1.5405,-1.5167,-1.4839,-1.3411,-1.2797,-1.2599,-1.2024,-1.1964,-1.2164,-1.1897,-1.179,-1.1703,0.0,0.0,0.0,0.0,0.0,0.0,0.0,0.0,0.0,-0.3591,-0.3741,-0.3804,-0.3661,-0.3797,-0.4042,-0.4371,-0.4852,-0.5189,-0.5239,-0.5514,-0.5631,-0.5481,-0.5295,-0.541,-0.581,-0.6843,-0.8043,-0.9499,-0.9708,-1.0268,-1.1072,-1.0418,-0.9891,-0.9513,-0.9303,-0.875,-0.7982,-0.7458,-0.6773,-0.5955,-0.5729,-0.5157,0.0,0.0,0.0,0.0,0.0,0.0,0.0,0.0,0.0,0.0,0.0,0.0,0.0,0.0,0.0,0.0,0.0,0.0,0.0,0.0,0.0,0.0,0.0,0.0,0.0,0.0,0.0,0.0,0.0,0.0,0.0,0.0,0.0,0.0,0.0,0.0,0.0,-1.0942,-1.2312,0.0,0.0,-1.2029,-1.2397,-1.2911,-1.4039,-1.5022,-1.5695,-1.6474,-1.7041,-1.7248,-1.7355,-1.7422,-1.7428,-1.7428,-1.7482,-1.7582,-1.7475,-1.7368,-1.7261,-1.6967,-1.6673,-1.6275,-1.6086,-1.5745,-1.5259,-1.4741,-1.413,-1.3554,-1.2959,-1.2672,-1.2599,-1.2699,-1.2605,-1.2479,0.0,0.0,0.0,0.0,0.0,0.0,0.0,0.0,0.0,-0.3753,-0.4054,-0.4249,-0.3981,-0.4188,-0.4505,-0.4783,-0.5142,-0.5415,-0.5558,-0.572,-0.5829,-0.5884,-0.5735,-0.6177,-0.7311,-0.7988,-0.9163,-1.0953,-1.1077,-1.1617,-1.2484,-1.1798,-1.1264,-1.0799,-1.0394,-0.9711,-0.8788,-0.8332,-0.7486,-0.6357,-0.6086,-0.5505,-0.4849,0.0,0.0,0.0,0.0,0.0,0.0,0.0,0.0,0.0,0.0,0.0,0.0,0.0,0.0,0.0,0.0,0.0,0.0,0.0,0.0,0.0,0.0,0.0,0.0,0.0,0.0,0.0,0.0,0.0,0.0,0.0,0.0,0.0,0.0,0.0,-1.2738,-1.2201,-1.3963,-1.4722,-1.354,-1.4013,-1.4513,-1.4878,-1.5894,-1.6794,-1.7281,-1.7869,-1.8196,-1.8196,-1.8096,-1.7949,-1.7742,-1.7635,-1.7582,-1.7582,-1.7582,-1.7528,-1.7428,-1.7134,-1.684,-1.6547,-1.6246,-1.5899,-1.5531,-1.5438,-1.4997,-1.4335,-1.3848,-1.3587,-1.3575,-1.3507,-1.344,-1.332,0.0,0.0,0.0,0.0,0.0,0.0,0.0,0.0,0.0,-0.4303,-0.417,-0.42,-0.4534,-0.443,-0.4609,-0.5262,-0.5315,-0.5297,-0.531,-0.5572,-0.5723,-0.5743,-0.6226,-0.717,-0.8612,-0.9367,-1.0554,-1.2183,-1.2693,-1.3133,-1.3572,-1.2737,-1.2463,-1.2619,-1.1757,-1.0766,-0.97,-0.9485,-0.85,-0.6935,-0.666,-0.6164,-0.558,0.0,0.0,0.0,0.0,0.0,0.0,0.0,0.0,0.0,0.0,0.0,0.0,0.0,0.0,0.0,0.0,0.0,0.0,0.0,0.0,0.0,0.0,0.0,0.0,0.0,0.0,0.0,0.0,0.0,0.0,0.0,0.0,0.0,-1.0478,-1.2411,-1.3695,-1.3199,-1.5311,-1.6455,-1.5382,-1.6407,-1.7205,-1.7318,-1.7694,-1.8087,-1.849,-1.851,-1.8517,-1.8504,-1.8223,-1.8063,-1.805,-1.7749,-1.7595,-1.7582,-1.7582,-1.7435,-1.7154,-1.6867,-1.6567,-1.6266,-1.5979,-1.5845,-1.5805,-1.5524,-1.5244,-1.4957,-1.4643,-1.4689,-1.487,-1.4309,-1.4269,-1.4422,0.0,0.0,0.0,0.0,0.0,0.0,0.0,0.0,-0.4717,-0.4551,-0.4745,-0.4787,-0.4628,-0.4787,-0.49,-0.5009,-0.4951,-0.5121,-0.5504,-0.5585,-0.6007,-0.6876,-0.7687,-0.859,-0.9719,-1.0402,-1.1295,-1.2594,-1.2832,-1.3175,-1.3703,-1.3626,-1.3322,-1.2705,-1.2448,-1.1697,-1.0622,-1.0393,-0.9616,-0.8353,-0.7302,-0.6577,-0.6166,0.0,0.0,0.0,0.0,0.0,0.0,0.0,0.0,0.0,0.0,0.0,0.0,0.0,0.0,0.0,0.0,0.0,0.0,0.0,0.0,0.0,0.0,0.0,0.0,0.0,0.0,0.0,0.0,0.0,0.0,0.0,0.0,-1.3038,-1.2821,-1.4485,-1.5658,-1.5689,-1.6661,-1.7204,-1.6913,-1.701,-1.7243,-1.7469,-1.7843,-1.8036,-1.812,-1.8542,-1.8669,-1.8453,-1.8605,-1.8477,-1.805,-1.7963,-1.7809,-1.7582,-1.7582,-1.7542,-1.7462,-1.7375,-1.7061,-1.658,-1.65,-1.6226,-1.5818,-1.5745,-1.5665,-1.5518,-1.4803,-1.4442,-1.4335,-1.4382,-1.4315,-1.4148,0.0,0.0,0.0,0.0,0.0,0.0,0.0,0.0,-0.5052,-0.4638,-0.4946,-0.5045,-0.4724,-0.4925,-0.5044,-0.4962,-0.4854,-0.4961,-0.5388,-0.5942,-0.6574,-0.7339,-0.8362,-0.9406,-1.0519,-1.1094,-1.1872,-1.2906,-1.3156,-1.3407,-1.3737,-1.4123,-1.3919,-1.3305,-1.3517,-1.2946,-1.1749,-1.1754,-1.1063,-0.9871,-0.8828,-0.7731,-0.6813,-0.6696,-0.6538,-0.6436,-0.6551,-0.695,-0.7283,-0.6644,0.0,0.0,0.0,0.0,0.0,0.0,0.0,0.0,0.0,0.0,0.0,0.0,0.0,0.0,0.0,0.0,0.0,0.0,0.0,0.0,0.0,0.0,0.0,0.0,-1.375,-1.4921,-1.5257,-1.6089,-1.6784,-1.6978,-1.7591,-1.8009,-1.791,-1.7958,-1.7993,-1.8001,-1.8262,-1.83,-1.8186,-1.8674,-1.8803,-1.8633,-1.875,-1.8758,-1.8417,-1.8297,-1.8076,-1.7776,-1.7776,-1.7709,-1.7582,-1.7455,-1.7148,0.0,-1.6573,-1.6259,-1.5832,-1.5832,-1.5758,0.0,0.0,0.0,0.0,0.0,-1.4516,-1.4242,0.0,0.0,0.0,0.0,0.0,0.0,0.0,0.0,-0.5296,-0.4709,-0.4962,-0.5077,-0.4773,-0.4938,-0.5036,-0.5052,-0.4923,-0.4984,-0.5358,-0.6447,-0.7212,-0.7608,-0.8716,-0.9862,-1.1042,-1.1558,-1.2164,-1.3052,-1.3398,-1.3652,-1.3659,-1.4203,-1.4248,-1.408,-1.4652,-1.4244,-1.2985,-1.3259,-1.2614,-1.1513,-1.0881,-0.9402,-0.7656,-0.7423,-0.735,-0.7289,-0.7607,-0.7686,-0.7654,-0.7979,0.0,0.0,0.0,0.0,0.0,0.0,0.0,0.0,0.0,0.0,0.0,0.0,0.0,0.0,0.0,0.0,0.0,0.0,0.0,0.0,0.0,0.0,0.0,0.0,-1.5461,-1.6694,-1.7503,-1.7418,-1.7346,-1.7551,-1.8233,-1.8551,-1.8443,-1.8866,-1.9012,-1.8728,-1.8709,-1.8589,-1.8317,0.0,0.0,0.0,0.0,-1.8958,-1.8925,-1.8664,-1.8377,-1.805,-1.805,-1.7883,-1.7575,-1.7315,-1.7041,-1.674,-1.6446,-1.6152,-1.5879,-1.5845,-1.5678,-1.5438,-1.5378,-1.5524,-1.5712,-1.5164,-1.4816,0.0,0.0,0.0,0.0,0.0,0.0,0.0,0.0,0.0,-0.5517,-0.5067,-0.5053,-0.498,-0.4609,-0.4718,-0.4827,-0.4717,-0.4833,-0.5309,-0.633,-0.6634,-0.7497,-0.9109,-0.9543,-1.0226,-1.1243,-1.1914,-1.2354,-1.2534,-1.2966,-1.3222,-1.3234,-1.3678,-1.3899,-1.3905,-1.4206,-1.428,-1.4198,-1.4106,-1.3531,-1.2862,-1.2797,-1.1302,-0.9154,-0.8585,-0.8122,-0.7918,-0.8208,-0.8818,-0.9426,-0.899,-0.9356,-0.9959,-0.8902,-0.8245,0.0,0.0,0.0,0.0,0.0,0.0,0.0,0.0,0.0,0.0,0.0,0.0,0.0,0.0,0.0,0.0,0.0,0.0,0.0,-1.5116,-1.6408,-1.7533,-1.8342,-1.8408,-1.8318,-1.8155,-1.8227,-1.8392,-1.8343,-1.838,-1.8417,-1.8135,-1.8111,-1.7995,-1.7732,-1.8181,0.0,-1.8532,-1.9074,-1.9165,-1.8925,-1.8871,-1.8571,-1.805,0.0,0.0,-1.7582,-1.7522,-1.7341,-1.7048,-1.6754,-1.6453,-1.6166,-1.5925,-1.5798,-1.5698,-1.5231,-1.5224,-1.5438,-1.509,-1.5077,-1.5157,0.0,0.0,0.0,0.0,0.0,0.0,0.0,0.0,-0.5482,-0.546,-0.5341,-0.5253,-0.5196,-0.5119,-0.5106,-0.5162,-0.5158,-0.5508,-0.6271,-0.6762,-0.7591,-0.8877,-0.968,-1.046,-1.1149,-1.1878,-1.2283,-1.2363,-1.2881,-1.3137,-1.3149,-1.373,-1.4002,-1.4069,-1.4589,-1.4835,-1.4801,-1.4892,-1.4606,-1.4088,-1.3715,-1.278,-1.13,-0.9962,-0.9561,-0.9615,-0.9354,-0.9784,-1.0408,-1.0131,-1.0293,-1.061,-1.0046,-0.9574,-0.9104,0.0,0.0,0.0,0.0,0.0,0.0,0.0,0.0,0.0,0.0,0.0,0.0,0.0,0.0,-1.2626,0.0,0.0,-1.5583,-1.6618,-1.7557,-1.8269,-1.8807,-1.8879,-1.8782,-1.8523,-1.9218,-1.9368,-1.8623,-1.9218,-1.9249,-1.8234,-1.8082,-1.7907,-1.7503,-1.7954,-1.8311,-1.8421,-1.8887,-1.917,-1.9145,-1.9145,-1.8851,-1.827,-1.827,-1.8029,-1.7582,-1.7582,-1.7422,-1.7134,-1.6834,-1.654,-1.6253,-1.5952,-1.5832,-1.5798,-1.5504,-1.5398,-1.5378,-1.5237,-1.5177,-1.5137,0.0,0.0,0.0,0.0,0.0,0.0,0.0,0.0,0.0,-0.5828,-0.5653,-0.5586,-0.5853,-0.5649,-0.5542,-0.5722,-0.558,-0.5661,-0.6239,-0.693,-0.7642,-0.8394,-0.9548,-1.0459,-1.0895,-1.1602,-1.2146,-1.2439,-1.2875,-1.3188,-1.3306,-1.3879,-1.4259,-1.437,-1.5058,-1.5232,-1.5179,-1.5316,-1.5269,-1.5165,-1.4505,-1.4011,-1.3375,-1.1727,-1.1217,-1.1311,-1.0454,-1.0452,-1.093,-1.0902,-1.0794,-1.0697,-1.1004,-1.0768,-1.0229,-0.9631,-0.931,0.0,0.0,0.0,0.0,0.0,0.0,0.0,0.0,0.0,-1.2283,-1.31,-1.3602,-1.4148,-1.5463,-1.6095,-1.6744,-1.7883,-1.8438,-1.8837,-1.9048,-1.9036,-1.8921,-1.871,-1.9909,-2.0239,-1.8902,-2.0245,-2.0426,-1.8532,-1.8655,-1.8545,-1.7587,-1.7923,-1.8139,-1.8421,-1.8765,-1.9004,-1.9366,-1.9312,-1.9018,-1.849,-1.843,-1.8116,-1.7582,-1.7582,-1.7455,-1.7215,-1.686,-1.6506,-1.6166,-1.5925,-1.5832,-1.5832,-1.5832,-1.5651,-1.5404,-1.5464,-1.5331,-1.5117,0.0,0.0,0.0,0.0,0.0,0.0,0.0,0.0,0.0,-0.6013,-0.5944,-0.5912,-0.5831,-0.5723,-0.5761,-0.595,-0.571,-0.6062,-0.7257,-0.7131,-0.7695,-0.9128,-0.9766,-1.0274,-1.0636,-1.1516,-1.2146,-1.2369,-1.2903,-1.3314,-1.3779,-1.4163,-1.4455,-1.4636,-1.4725,-1.4999,-1.5439,-1.4993,-1.5184,-1.5739,-1.5493,-1.5177,-1.4957,-1.3916,-1.2774,-1.1594,-1.0837,-1.0541,-1.0616,-1.0681,-1.0821,-1.1033,-1.1696,-1.1663,-1.1201,-1.0443,-0.9668,-0.9,-0.8313,-0.8672,-0.9485,-1.0697,-1.0975,-1.1717,0.0,0.0,-1.4382,-1.5629,-1.6344,-1.6809,-1.7189,-1.7702,-1.8185,-1.8535,-1.8843,-1.9042,-1.9072,-1.8873,-1.8716,-1.8686,-1.9042,-1.9188,-1.9036,-2.0541,-2.0726,-1.8805,-2.0084,-1.9983,-1.7985,-1.82,-1.8333,-1.8428,-1.8765,-1.9004,-1.9366,-1.9105,-1.8811,-1.849,-1.8223,-1.7916,-1.7582,-1.7582,-1.7562,-1.7502,-1.6947,-1.6393,-1.5879,-1.5845,-1.5832,-1.5832,-1.5832,-1.5651,-1.5431,-1.5685,-1.5758,-1.5658,0.0,0.0,0.0,0.0,0.0,0.0,0.0,0.0,0.0,0.0,0.0,-0.6127,-0.6452,-0.6562,-0.6477,-0.627,-0.6287,-0.6569,-0.7126,-0.7338,-0.7781,-0.8547,-0.9469,-1.0125,-1.0207,-1.1257,-1.1902,-1.2143,-1.2826,-1.3356,-1.3725,-1.4142,-1.4481,-1.4648,-1.4704,-1.4873,-1.5279,-1.5062,-1.5149,-1.5457,-1.5442,-1.5373,-1.5033,-1.4586,-1.3867,-1.2907,-1.1317,-1.0858,0.0,-1.0355,-1.0357,-1.0811,-1.1407,-1.1531,-1.1391,-1.0923,-1.0725,-1.0719,-1.119,-1.1458,0.0,0.0,-1.4078,-1.4785,-1.5397,-1.5611,-1.6012,-1.7032,-1.7521,-1.7919,-1.8336,-1.8595,-1.8782,0.0,-1.9006,-1.9078,-1.9078,-1.8849,-1.8869,-1.9315,-1.9515,-1.9773,-2.0071,-2.2047,-2.2384,-2.0047,-2.0354,-1.9846,-1.8015,-1.7851,-1.8071,-1.8421,-1.8538,-1.8966,-1.9619,-1.9158,-1.8865,-1.8738,-1.827,-1.7883,-1.7582,-1.7582,-1.7395,-1.7061,-1.6814,-1.6373,-1.5832,-1.5832,-1.5832,-1.5832,-1.5832,-1.5752,-1.5665,-1.5785,-1.5718,-1.5545,0.0,0.0,0.0,0.0,0.0,0.0,0.0,0.0,0.0,0.0,0.0,0.0,0.0,-0.716,-0.7083,-0.6617,-0.6732,-0.6856,-0.6899,-0.7447,-0.7847,-0.8155,-0.9358,-1.0178,-1.0299,-1.1207,-1.1849,-1.2148,-1.2854,-1.3327,-1.3654,-1.4109,-1.4453,-1.471,-1.451,-1.466,-1.4965,-1.4791,-1.4909,-1.507,-1.5196,-1.5132,-1.4852,-1.4726,-1.4191,-1.3285,-1.1464,-1.09,-1.0868,-0.9903,-0.9818,-1.0228,-1.0985,-1.1341,-1.1373,-1.1208,-1.1434,-1.1929,-1.2946,0.0,0.0,-1.5153,-1.6321,-1.7177,-1.7007,-1.741,-1.8112,-1.9139,-1.9151,-1.9125,-1.9518,-1.9157,-1.8885,-1.8957,-1.9339,-1.9466,-1.9097,-1.9043,-1.9202,-1.9627,-1.9925,-2.0447,-2.1201,-2.3278,-2.3392,-2.0767,-2.0842,-2.0126,-1.8015,-1.7768,-1.7872,-1.8311,-1.8305,-1.8751,-1.9555,-1.9092,-1.8804,-1.8798,-1.8203,-1.7802,-1.7582,-1.7582,-1.7261,-1.6707,-1.6707,-1.6373,-1.5832,-1.5832,-1.5832,-1.5832,-1.5832,-1.5832,-1.5832,-1.5832,-1.5698,-1.5484,0.0,0.0,0.0,0.0,0.0,0.0,0.0,0.0,0.0,0.0,0.0,0.0,0.0,0.0,-0.7356,-0.7021,-0.6774,-0.6715,-0.6999,-0.7318,-0.7848,-0.8528,-0.9644,-1.053,-1.0964,-1.1467,-1.1932,-1.2398,-1.2822,-1.3391,-1.3893,-1.415,-1.4407,-1.4653,-1.419,-1.4185,-1.4689,-1.4136,-1.4368,-1.4968,-1.4703,-1.4622,-1.4643,-1.4337,-1.3362,-1.2046,-1.1257,-1.081,-1.0397,-0.9373,-0.9087,-0.9364,-1.0677,-1.1132,0.0,-1.1341,-1.1503,-1.1774,-1.2357,-1.3398,-1.465,-1.5807,-1.6599,-1.7631,-1.9449,-2.0275,-2.1033,-2.2697,-2.1803,-2.0635,-2.0655,-1.9341,-1.8402,-1.8656,-1.9799,-2.0165,-1.8943,-1.9434,-1.9666,-1.9256,-1.985,-2.095,0.0,-2.3935,-2.3293,-2.0342,-2.1959,-2.1526,-1.8034,-1.8125,-1.8155,-1.7991,-1.8311,-1.8538,-1.8887,-1.8678,-1.8504,-1.8497,-1.7889,-1.7595,-1.7582,-1.7582,-1.7261,-1.6707,-1.6707,-1.6373,-1.5832,-1.5832,-1.5832,-1.5832,-1.5832,-1.5832,-1.5832,-1.5832,-1.5818,-1.5691,0.0,0.0,0.0,0.0,0.0,0.0,0.0,0.0,0.0,0.0,0.0,0.0,0.0,0.0,0.0,0.0,-0.7163,-0.7148,-0.6908,-0.7495,-0.8022,-0.8197,-0.9351,-1.0253,-1.0648,-1.1315,-1.1854,-1.2355,-1.2877,-1.3356,-1.3599,-1.3768,-1.3836,-1.3922,-1.3529,-1.3588,-1.3872,-1.3703,-1.3927,-1.4453,-1.3989,-1.4084,-1.4289,-1.3187,-1.2469,-1.1885,0.0,-0.9762,-0.9541,-0.8884,-0.9001,-0.9454,-1.0077,-1.0485,-1.0904,-1.2077,-1.2432,-1.3128,-1.5986,-1.7524,-1.858,-2.0152,-2.1323,-2.2052,-2.2004,-2.2302,-2.2584,-2.242,-2.13,-2.0123,-1.9374,-1.8997,-1.8866,-1.922,-2.0568,-2.1376,-2.1211,-2.1554,-2.1756,-2.1583,-2.207,0.0,0.0,0.0,0.0,-2.2676,-2.3268,-2.2527,-1.9464,-1.9361,-1.9118,-1.8589,-1.8399,-1.8745,-1.9528,-1.8951,-1.8778,-1.8771,-1.7969,-1.7582,-1.7575,-1.7382,-1.7081,-1.6693,-1.6506,-1.6192,-1.5832,-1.5832,-1.5832,-1.5832,-1.5832,-1.5832,-1.5805,-1.5611,-1.5665,-1.5785,0.0,0.0,0.0,0.0,0.0,0.0,0.0,0.0,0.0,0.0,0.0,0.0,0.0,0.0,0.0,0.0,0.0,-0.7199,-0.6738,-0.7422,-0.7849,-0.8011,-0.8954,-0.9663,-1.0138,-1.061,-1.105,-1.1472,-1.207,-1.2452,-1.2533,-1.2797,-1.291,-1.291,-1.2718,-1.2904,-1.3171,-1.3085,-1.3224,-1.3523,-1.2965,-1.2935,-1.302,-1.1881,-1.1296,0.0,-0.9649,-0.9055,-0.8953,-0.8768,-0.9088,-0.9642,-1.0152,-1.0873,-1.173,-1.2756,-1.394,-1.5553,-1.8726,-2.0273,-2.1482,-2.2996,-2.3925,-2.4393,-2.412,-2.3973,-2.3678,-2.3035,-2.1331,-1.9742,-1.8898,-1.8441,-1.8317,-1.8918,-2.0564,-2.1784,-2.1986,-2.2334,-2.2594,-2.2414,-2.28,-2.3392,0.0,0.0,0.0,-2.3618,-2.388,-2.3009,-2.0745,-2.0662,-2.0217,-1.9417,-1.9141,-1.9206,-1.9515,-1.8944,-1.8657,-1.8437,-1.7856,-1.7582,-1.7569,-1.7281,-1.6987,-1.6693,-1.64,-1.6106,-1.5832,-1.5832,-1.5832,-1.5832,-1.5832,-1.5832,-1.5805,-1.5618,-1.5671,-1.5798,0.0,0.0,0.0,0.0,0.0,0.0,0.0,0.0,0.0,0.0,0.0,0.0,0.0,0.0,0.0,0.0,0.0,0.0,-0.6543,-0.6993,-0.7489,-0.7929,-0.8397,-0.8908,-0.9458,-0.9554,-0.9694,-0.9817,-1.0599,-1.0881,-1.0744,-1.1458,-1.1793,-1.1793,-1.1793,-1.2059,-1.2481,-1.2212,-1.2148,-1.2292,-1.1819,-1.1371,-1.1034,-1.05,-0.991,-0.9285,-0.8989,-0.8713,-0.8652,-0.8951,-0.9381,-0.9923,-1.085,-1.2304,-1.3631,-1.355,-1.5862,-1.8822,-2.0492,-2.1925,-2.3308,-2.4325,-2.4692,-2.493,-2.5526,-2.4952,-2.4394,-2.4572,-2.1909,-1.9552,0.0,0.0,-1.6966,-1.8005,-2.0031,-2.1386,-2.1284,-2.2209,-2.2607,0.0,0.0,0.0,0.0,0.0,0.0,-2.3231,0.0,-2.3388,-2.1876,-2.2046,-2.172,-2.0482,-2.0308,-1.9924,-1.8991,-1.8658,-1.819,-1.7609,-1.7589,-1.7575,-1.7549,-1.7261,-1.6967,-1.6667,-1.638,-1.6092,-1.5832,-1.5832,-1.5832,-1.5832,-1.5832,-1.5832,-1.5832,-1.5832,-1.5832,-1.5752,0.0,0.0,0.0,0.0,0.0,0.0,0.0,0.0,0.0,0.0,0.0,0.0,0.0,0.0,0.0,0.0,0.0,0.0,-0.6662,-0.6947,-0.7211,-0.7404,-0.805,-0.8592,-0.9047,-0.937,-0.966,-0.9866,-1.0068,-1.0104,-0.9982,-1.0047,-1.0072,-1.0003,-0.9939,-1.0114,-1.0492,-1.0497,-1.0722,-1.1101,-1.0541,-1.0539,-1.0817,-0.9515,-0.915,-0.9202,-0.8606,-0.8321,-0.8482,-0.9577,-1.1051,-1.2434,-1.2725,-1.3755,-1.514,-1.6538,-1.8466,-2.0616,-2.306,-2.4639,-2.578,-2.6613,-2.6844,-2.6603,-2.598,-2.5193,-2.4309,-2.2963,-2.0652,-1.849,0.0,0.0,0.0,-1.9419,-2.181,0.0,-2.4548,-2.5453,0.0,-2.4887,0.0,-2.541,-2.5326,-2.5218,0.0,0.0,-2.5192,-2.4696,-2.3045,-2.3583,-2.3255,-2.2,-2.109,-2.0587,-2.0601,-1.922,-1.8303,-1.7923,-1.7695,-1.7468,-1.7248,-1.6954,-1.666,-1.6366,-1.6072,-1.5899,-1.5832,-1.5832,-1.5832,-1.5832,-1.5832,-1.5832,-1.5832,-1.5832,-1.5832,-1.5805,0.0,0.0,0.0,0.0,0.0,0.0,0.0,0.0,0.0,0.0,0.0,0.0,0.0,0.0,0.0,0.0,0.0,0.0,0.0,-0.6766,-0.6854,-0.6991,-0.7334,-0.7646,-0.7914,-0.8448,-0.8724,-0.8756,-0.9311,-0.9373,-0.9028,-0.9265,-0.9309,-0.926,-0.9313,-0.9512,-0.9878,-0.9891,-0.9995,0.0,0.0,-0.9513,-0.9708,-0.8789,-0.8595,-0.8745,-0.8435,-0.8991,-0.9991,-1.0953,0.0,-1.3784,-1.4381,-1.5433,-1.6847,-1.8746,0.0,-2.2341,-2.4906,-2.6379,-2.7338,-2.7758,-2.7732,-2.7184,-2.5337,-2.4132,-2.2671,-2.0464,-1.8466,0.0,-1.6357,0.0,0.0,0.0,0.0,0.0,-2.5009,-2.5848,-2.6109,0.0,-2.6101,0.0,-2.5583,-2.5585,-2.5617,0.0,-2.566,-2.5239,-2.4326,-2.4729,-2.4515,-2.3391,-2.2116,-2.102,-1.9984,-1.885,-1.8143,-1.7842,-1.7662,-1.7428,-1.7141,-1.684,-1.6547,-1.6259,0.0,-1.5832,-1.5832,-1.5832,-1.5832,-1.5832,-1.5832,-1.5832,-1.5832,-1.5832,-1.5832,-1.5832,0.0,0.0,0.0,0.0,0.0,0.0,0.0,0.0,0.0,0.0,0.0,0.0,0.0,0.0,0.0,0.0,0.0,0.0,0.0,0.0,-0.6538,-0.6715,-0.6617,-0.6617,-0.6715,-0.7348,-0.759,-0.734,-0.8493,-0.8752,-0.813,-0.8812,-0.9042,-0.8941,-0.9181,-0.9427,-0.9703,-0.9614,-0.9447,-0.9264,-0.8875,-0.8584,-0.8374,0.0,-0.8221,-0.8221,-0.8374,-0.986,-1.1898,-1.2472,-1.3543,-1.4786,-1.5906,-1.7258,-1.8824,-2.0554,-2.2288,-2.4169,-2.6202,-2.7475,-2.8254,-2.8203,-2.7783,-2.6687,-2.4166,-2.2289,-2.0334,-1.7876,0.0,-1.5149,-1.5531,-1.5934,-1.6742,-1.8349,0.0,-2.2475,-2.4085,-2.4967,-2.5467,-2.5262,-2.6002,-2.6209,-2.5415,-2.5652,-2.5934,-2.5934,-2.554,-2.5292,-2.5405,-2.5683,-2.5309,-2.417,-2.307,-2.1242,-1.8437,-1.8176,-1.7889,-1.7582,-1.7582,-1.7408,-1.7081,-1.682,-1.6526,-1.6199,0.0,0.0,-1.5832,-1.5832,-1.5832,-1.5832,-1.5832,-1.5832,-1.5832,-1.5832,-1.5832,-1.5832,0.0,0.0,0.0,0.0,0.0,0.0,0.0,0.0,0.0,0.0,-0.7342,-0.7293,0.0,0.0,0.0,0.0,0.0,0.0,0.0,0.0,0.0,-0.6715,-0.6793,-0.6829,-0.6878,-0.7432,-0.767,-0.7623,-0.8166,-0.8338,-0.8201,-0.8199,-0.8216,-0.8174,-0.8035,-0.798,-0.8125,-0.8268,-0.8274,-0.83,-0.8427,-0.8466,-0.8421,-0.8368,0.0,0.0,-0.8521,-0.9482,-1.0913,-1.2515,-1.4685,-1.6967,-1.7669,-1.9428,-2.1526,-2.2744,-2.4417,-2.6236,-2.7569,-2.828,-2.8597,-2.8271,-2.7201,-2.5596,-2.3227,-2.0837,0.0,0.0,-1.531,-1.4525,-1.517,-1.564,-1.6716,-1.909,-2.0602,0.0,0.0,0.0,-2.5903,0.0,0.0,0.0,0.0,0.0,0.0,0.0,0.0,0.0,-2.5214,-2.5881,-2.5181,-2.2878,-2.2577,-2.1118,-1.813,-1.807,-1.7889,-1.7582,-1.7582,-1.7301,-1.678,-1.6727,-1.6413,-1.5905,0.0,0.0,-1.5832,-1.5832,-1.5832,-1.5832,-1.5832,-1.5832,-1.5832,-1.5832,-1.5832,-1.5832,0.0,0.0,0.0,0.0,0.0,0.0,0.0,-0.7829,-0.7836,-0.7587,-0.7663,-0.7572,-0.7209,-0.7286,-0.7412,0.0,0.0,0.0,0.0,0.0,0.0,0.0,0.0,0.0,0.0,-0.7571,0.0,0.0,0.0,-0.8749,-0.8348,0.0,0.0,0.0,-0.8205,-0.8187,-0.8283,-0.8428,-0.8429,-0.8339,-0.8528,-0.8586,0.0,0.0,0.0,0.0,0.0,-0.9522,-1.0822,-1.2081,-1.4259,-1.6728,-1.8284,-2.0091,-2.1877,-2.3435,-2.4874,-2.6371,-2.7753,-2.8331,-2.8383,-2.7989,-2.661,-2.4539,-2.1659,0.0,0.0,0.0,-1.3988,-1.3727,-1.4285,-1.5012,0.0,-1.7622,-1.9067,-2.0762,-2.3001,0.0,0.0,0.0,0.0,0.0,0.0,0.0,0.0,0.0,0.0,0.0,-2.5026,-2.4889,-2.4038,-2.2568,-2.1542,-2.0133,-1.805,-1.7883,-1.7729,-1.7582,-1.7582,-1.7275,-1.6707,-1.6707,-1.6386,-1.5832,0.0,0.0,-1.5832,-1.5832,-1.5832,-1.5832,-1.5832,-1.5832,-1.5832,-1.5832,-1.5832,-1.5832,0.0,0.0,0.0,0.0,0.0,0.0,0.0,-0.807,-0.7995,-0.7836,-0.7987,-0.7987,-0.7628,-0.7614,-0.7677,0.0,0.0,0.0,0.0,0.0,0.0,0.0,0.0,0.0,0.0,0.0,0.0,0.0,0.0,0.0,0.0,0.0,0.0,0.0,0.0,0.0,0.0,-0.9008,-0.8896,0.0,0.0,0.0,0.0,0.0,0.0,0.0,0.0,-0.9649,-1.0788,-1.1602,-1.3219,-1.5376,-1.7522,-1.9375,-2.1133,-2.3099,-2.4477,-2.5919,-2.783,-2.8323,-2.8203,-2.7723,-2.608,-2.3708,-2.0459,-1.8088,0.0,-1.3517,-1.2899,-1.2979,-1.3523,-1.4267,-1.5218,0.0,-1.7458,-1.9098,-2.1502,-2.2817,-2.4213,0.0,0.0,0.0,0.0,0.0,0.0,0.0,0.0,0.0,0.0,-2.3947,-2.3152,-2.2336,-2.0712,-1.9149,-1.7949,-1.7702,-1.7582,-1.7582,-1.7582,-1.7275,-1.6707,-1.6707,-1.6386,-1.5832,0.0,0.0,0.0,-1.5899,-1.5885,-1.5832,-1.5832,-1.5832,-1.5832,-1.5832,-1.5832,-1.5832,0.0,0.0,0.0,0.0,0.0,0.0,0.0,-0.8406,-0.8357,-0.8167,-0.8324,-0.8357,-0.8167,-0.8028,-0.8017,0.0,0.0,0.0,0.0,0.0,0.0,0.0,0.0,0.0,0.0,0.0,0.0,0.0,0.0,0.0,0.0,0.0,0.0,0.0,0.0,0.0,0.0,0.0,0.0,0.0,0.0,0.0,0.0,0.0,0.0,0.0,0.0,-0.9535,-1.0182,-1.1269,0.0,-1.3223,-1.4423,-1.6982,-1.9918,-2.1723,0.0,0.0,-2.8094,-2.8725,-2.8545,-2.7792,-2.5677,-2.3046,-2.0344,0.0,-1.5094,-1.3368,-1.2541,-1.2365,-1.3439,-1.37,-1.4392,-1.6296,-1.6952,-1.8165,-2.0836,-2.2165,0.0,0.0,0.0,0.0,0.0,0.0,0.0,0.0,0.0,0.0,0.0,-2.4356,-2.3137,-2.161,-2.0469,-1.9141,-1.7629,-1.7595,-1.7582,-1.7582,-1.7582,-1.7275,-1.6707,-1.6707,-1.6386,-1.5845,0.0,0.0,0.0,-1.6119,-1.6072,-1.5832,-1.5832,-1.5832,-1.5832,-1.5832,-1.5832,-1.5832,0.0,0.0,0.0,0.0,0.0,0.0,-0.8708,-0.857,-0.8439,-0.8332,-0.8373,-0.8373,-0.8216,-0.8242,-0.8409,-0.8727,0.0,0.0,0.0,0.0,0.0,0.0,0.0,0.0,0.0,0.0,0.0,0.0,0.0,0.0,0.0,0.0,0.0,0.0,0.0,0.0,0.0,0.0,0.0,0.0,0.0,0.0,0.0,0.0,0.0,0.0,0.0,0.0,-0.9993,0.0,0.0,0.0,-1.2136,-1.3683,0.0,0.0,-2.2265,-2.4472,-2.6824,-2.7732,-2.7835,-2.685,-2.4958,-2.2571,-1.9731,0.0,-1.4919,-1.31,-1.235,-1.2175,-1.2833,-1.3078,-1.3592,-1.4703,-1.5064,0.0,-1.8696,0.0,0.0,0.0,0.0,0.0,0.0,0.0,0.0,0.0,0.0,0.0,0.0,-2.312,-2.2338,-2.2461,-1.9829,-1.8527,-1.861,-1.7891,-1.7582,-1.7582,-1.7408,-1.7108,-1.67,-1.6526,-1.6219,-1.5838,0.0,0.0,0.0,-1.5959,-1.5939,-1.5832,-1.5832,-1.5832,-1.5832,-1.5832,-1.5832,-1.5832,0.0,0.0,0.0,0.0,0.0,-0.9056,-0.9024,-0.8854,-0.8692,-0.8578,-0.8578,-0.8578,-0.8373,-0.8529,-0.8791,-0.922,-0.8802,0.0,0.0,0.0,0.0,0.0,0.0,0.0,0.0,0.0,0.0,-0.9554,0.0,0.0,0.0,0.0,0.0,0.0,0.0,0.0,0.0,0.0,0.0,0.0,0.0,0.0,0.0,0.0,0.0,0.0,0.0,0.0,0.0,0.0,0.0,-1.1369,-1.0751,-1.1448,-1.3314,-1.7523,-2.0393,-2.2757,-2.5116,-2.6448,-2.6867,-2.5857,-2.3985,-2.1652,0.0,0.0,-1.4378,-1.2691,-1.2116,-1.2056,-1.2388,-1.2711,-1.3112,-1.3724,-1.3968,-1.4914,-1.7163,-1.8037,0.0,0.0,0.0,0.0,0.0,0.0,0.0,0.0,0.0,0.0,0.0,-2.2848,-2.2144,-2.2929,-1.9762,-1.8401,-1.9228,-1.8101,-1.7542,-1.7455,-1.7248,-1.6947,-1.6573,-1.6366,-1.6112,0.0,0.0,0.0,0.0,-1.5925,-1.5905,-1.5832,-1.5832,-1.5832,-1.5832,-1.5832,-1.5832,-1.5832,0.0,0.0,0.0,0.0,0.0,0.0,-0.9279,-0.9248,-0.9105,-0.8911,-0.9065,-0.9056,-0.8724,-0.8886,-0.9137,-0.9572,-0.9366,0.0,0.0,0.0,0.0,0.0,0.0,0.0,0.0,0.0,-0.9859,-0.9391,-1.0129,-1.038,0.0,0.0,0.0,0.0,0.0,0.0,0.0,0.0,0.0,0.0,0.0,0.0,0.0,0.0,0.0,0.0,0.0,0.0,0.0,0.0,0.0,0.0,0.0,-1.1024,-1.2094,-1.5165,-1.7644,-2.0119,-2.3322,-2.5086,-2.5771,-2.5018,-2.2806,-2.0276,0.0,0.0,-1.3378,-1.224,-1.1914,-1.1914,-1.225,-1.2579,-1.3044,-1.3708,-1.4408,-1.5378,-1.6912,-1.7926,0.0,0.0,0.0,0.0,0.0,0.0,0.0,0.0,0.0,0.0,0.0,0.0,-2.308,-2.2552,-2.0364,-1.9228,-1.9228,-1.8101,-1.7442,-1.7154,-1.7148,-1.684,-1.6279,-1.6273,0.0,0.0,0.0,0.0,0.0,-1.6146,-1.6092,-1.5832,-1.5832,-1.5832,-1.5832,-1.5832,-1.5832,-1.5832,0.0,0.0,0.0,0.0,0.0,0.0,0.0,-0.9408,-0.9208,-0.9105,-0.9145,-0.9177,-0.9056,-0.9128,-0.9261,-0.9383,-0.9163,0.0,0.0,0.0,0.0,0.0,0.0,0.0,0.0,0.0,-1.0106,-1.0169,-1.04,-1.0574,-1.0647,-1.0712,0.0,0.0,0.0,0.0,0.0,0.0,0.0,0.0,0.0,0.0,0.0,0.0,0.0,0.0,0.0,0.0,0.0,0.0,0.0,0.0,0.0,0.0,0.0,-1.3059,-1.5096,-1.7313,-1.952,-2.0732,-2.1213,-2.0467,-1.9389,-1.8021,-1.6237,0.0,-1.3576,-1.2561,-1.2168,-1.2165,-1.2565,-1.2844,-1.3401,-1.4761,-1.5295,-1.5963,0.0,0.0,0.0,0.0,0.0,0.0,0.0,0.0,0.0,0.0,0.0,0.0,0.0,0.0,-2.3948,-2.3764,-2.1517,-2.0364,-2.0364,-1.9228,-1.8151,-1.725,-1.6941,-1.6647,-1.6273,-1.6273,0.0,0.0,0.0,0.0,0.0,-1.6152,-1.6099,-1.5832,-1.5832,-1.5832,-1.5832,-1.5832,-1.5832,-1.5832,0.0,0.0,0.0,0.0,0.0,0.0,0.0,-0.9834,-0.9637,-0.9457,-0.9457,-0.9457,-0.9337,-0.9408,-0.9487,-0.9457,-0.9306,0.0,0.0,0.0,0.0,0.0,0.0,0.0,0.0,-1.0561,-1.0325,-1.0208,-1.0575,-1.078,-1.0773,-1.0855,-1.0871,-1.0769,0.0,0.0,0.0,0.0,0.0,0.0,0.0,0.0,-1.011,0.0,0.0,0.0,0.0,0.0,0.0,0.0,0.0,0.0,0.0,0.0,0.0,0.0,-1.2953,-1.4605,-1.6742,-1.794,-1.8547,-1.7945,-1.7266,0.0,0.0,0.0,-1.3227,-1.2606,-1.2391,-1.2375,-1.272,-1.3079,-1.3747,-1.482,-1.5341,-1.5967,0.0,0.0,0.0,0.0,0.0,0.0,0.0,0.0,0.0,0.0,0.0,0.0,0.0,0.0,-2.4539,-2.4155,-2.2409,-2.1432,-2.1293,-1.9763,-1.8527,-1.7417,-1.6826,-1.6393,-1.6106,0.0,0.0,0.0,0.0,0.0,0.0,-1.6079,-1.5999,-1.5832,-1.5832,-1.5832,-1.5832,-1.5832,-1.5832,-1.5832,0.0,0.0,0.0,0.0,0.0,0.0,0.0,-1.0418,-1.0273,-0.9892,-0.9941,-0.9902,-0.9558,-0.9695,-0.9783,-0.9723,0.0,0.0,0.0,0.0,0.0,0.0,0.0,0.0,0.0,-1.0646,-1.0445,-0.9753,-1.0798,-1.1021,-1.0578,-1.0847,-1.0947,-1.0922,-1.0947,0.0,0.0,0.0,0.0,0.0,0.0,0.0,0.0,0.0,0.0,0.0,0.0,0.0,0.0,0.0,0.0,0.0,0.0,0.0,0.0,0.0,0.0,0.0,0.0,-1.6387,-1.7089,-1.6831,-1.6046,-1.517,-1.4282,-1.3306,0.0,-1.2561,-1.2621,-1.2691,-1.2838,-1.3397,-1.3941,-1.4222,-1.4849,0.0,0.0,0.0,0.0,0.0,0.0,0.0,0.0,0.0,0.0,0.0,0.0,0.0,0.0,0.0,0.0,-2.3905,-2.2976,-2.2287,-2.1944,-1.9953,-1.8537,-1.7816,-1.6752,-1.6119,-1.5832,0.0,0.0,0.0,0.0,0.0,0.0,-1.5965,-1.5845,-1.5832,-1.5832,-1.5832,-1.5832,-1.5832,-1.5832,-1.5832,0.0,0.0,0.0,0.0,0.0,0.0,0.0,0.0,0.0,0.0,-1.0235,-1.0166,-0.9961,-1.0,-1.001,0.0,0.0,0.0,0.0,0.0,0.0,0.0,0.0,0.0,0.0,-1.0658,-1.0517,-1.0383,-1.0913,-1.1195,-1.1256,-1.1645,-1.1662,-1.1385,-1.1567,-1.1335,0.0,0.0,0.0,0.0,0.0,0.0,0.0,0.0,0.0,0.0,-1.0514,-1.0411,0.0,0.0,0.0,0.0,0.0,0.0,0.0,0.0,-1.1585,-1.2069,-1.2742,0.0,-1.323,-1.3353,-1.3416,-1.3427,0.0,-1.3132,-1.3044,-1.2932,-1.2928,-1.3071,-1.3539,-1.3826,-1.4395,-1.5584,-1.6419,-1.7208,0.0,0.0,0.0,0.0,0.0,0.0,0.0,0.0,0.0,0.0,0.0,0.0,0.0,0.0,0.0,-2.3808,-2.3116,-2.254,-2.1936,-2.0651,-1.9322,-1.7816,-1.6752,-1.6119,-1.5838,0.0,0.0,0.0,0.0,0.0,-1.5945,-1.6106,-1.6039,-1.5832,-1.5832,-1.5832,-1.5832,-1.5832,-1.5832,-1.5832,0.0,0.0,0.0,0.0,0.0,0.0,0.0,0.0,0.0,0.0,0.0,0.0,0.0,0.0,0.0,0.0,0.0,0.0,0.0,0.0,0.0,0.0,0.0,0.0,-1.0685,-1.0858,-1.0916,-1.0875,-1.1329,-1.1621,-1.1678,-1.1849,-1.1789,-1.1486,-1.1584,-1.1456,0.0,0.0,0.0,0.0,-1.0871,0.0,0.0,0.0,0.0,0.0,-1.0718,-1.0616,0.0,-1.0565,-1.0565,-1.0553,0.0,0.0,0.0,0.0,-1.1455,-1.1763,-1.203,-1.2149,-1.235,-1.2594,-1.2806,-1.2972,-1.3151,-1.3127,-1.3165,-1.3197,-1.3164,-1.3289,-1.3899,-1.4216,0.0,0.0,-1.6721,0.0,0.0,0.0,0.0,0.0,0.0,0.0,0.0,0.0,0.0,0.0,0.0,0.0,0.0,0.0,0.0,0.0,-2.3253,-2.2949,-2.2381,-2.0735,-1.9414,-1.8244,-1.6731,-1.5985,-1.5832,0.0,0.0,0.0,0.0,0.0,-1.6039,-1.6059,-1.5972,-1.5832,-1.5832,-1.5832,-1.5832,-1.5832,-1.5832,-1.5832,0.0,0.0,0.0,0.0,0.0,0.0,0.0,0.0,0.0,0.0,0.0,0.0,0.0,0.0,0.0,0.0,0.0,0.0,0.0,0.0,0.0,0.0,0.0,-1.0651,-1.0595,-1.1246,-1.1514,-1.1369,-1.2014,-1.2208,-1.2068,-1.2022,-1.187,-1.1657,-1.1495,-1.1528,0.0,0.0,0.0,0.0,-1.1326,0.0,0.0,0.0,0.0,0.0,0.0,0.0,0.0,-1.082,-1.082,-1.0769,-1.0871,0.0,0.0,0.0,0.0,0.0,-1.2184,-1.2732,-1.318,-1.3124,-1.3116,-1.3251,-1.3559,-1.338,-1.3224,-1.3511,-1.3518,-1.3602,-1.4096,-1.4526,0.0,0.0,0.0,0.0,0.0,0.0,0.0,0.0,0.0,0.0,0.0,0.0,0.0,0.0,0.0,0.0,0.0,0.0,0.0,0.0,-2.3135,-2.3134,-2.2765,-2.0695,-1.9317,-1.8788,-1.6943,-1.592,-1.5832,-1.5832,0.0,0.0,0.0,0.0,-1.6186,-1.5932,-1.5832,-1.5832,-1.5832,-1.5832,-1.5832,-1.5832,-1.5832,-1.5832,0.0,0.0,0.0,0.0,0.0,0.0,0.0,0.0,0.0,0.0,0.0,0.0,0.0,0.0,0.0,0.0,0.0,0.0,0.0,0.0,0.0,0.0,-1.1393,-1.1218,-1.1417,-1.1849,-1.2081,-1.2054,-1.2861,-1.3125,-1.2735,-1.314,-1.3007,-1.251,-1.2122,-1.1927,-1.1877,-1.1728,-1.1528,-1.1326,-1.1326,0.0,0.0,0.0,0.0,0.0,0.0,0.0,0.0,-1.1528,-1.1678,-1.1877,-1.1877,0.0,0.0,0.0,0.0,0.0,-1.2648,-1.3893,-1.4841,-1.3576,-1.3369,-1.3483,-1.3735,-1.3813,-1.383,-1.3769,-1.3969,-1.4275,-1.4631,-1.492,-1.5515,0.0,0.0,0.0,0.0,0.0,0.0,0.0,0.0,0.0,0.0,0.0,0.0,0.0,0.0,0.0,0.0,0.0,0.0,0.0,0.0,-2.2144,-2.2419,-2.1238,-2.0079,-1.8796,-1.7598,-1.6574,-1.5832,-1.5832,-1.5852,0.0,0.0,-1.5852,-1.5892,-1.5845,-1.5832,-1.5832,-1.5832,-1.5832,-1.5832,-1.5832,-1.5832,-1.5832,0.0,0.0,0.0,0.0,0.0,0.0,0.0,0.0,0.0,0.0,0.0,0.0,0.0,0.0,0.0,0.0,0.0,0.0,0.0,0.0,0.0,-1.2933,-1.2487,-1.2095,-1.1863,-1.2425,-1.2799,-1.303,-1.3661,-1.3711,-1.324,-1.2903,-1.273,-1.2695,-1.2208,-1.2126,-1.2323,-1.2126,-1.1977,-1.1828,0.0,0.0,0.0,0.0,0.0,0.0,0.0,0.0,0.0,0.0,-1.1977,-1.2076,-1.2076,0.0,0.0,0.0,0.0,0.0,-1.2635,-1.3516,-1.4331,-1.4405,-1.505,-1.5601,-1.521,-1.5463,-1.5708,-1.5377,-1.5464,-1.5659,0.0,0.0,-1.7405,0.0,0.0,0.0,0.0,0.0,0.0,0.0,0.0,0.0,0.0,0.0,0.0,0.0,0.0,0.0,0.0,0.0,0.0,0.0,0.0,0.0,-2.2006,-2.1554,-2.072,-1.9613,-1.8056,-1.7052,-1.6574,-1.6015,-1.5832,-1.5832,0.0,-1.5832,-1.5832,-1.5832,-1.5832,-1.5832,-1.5832,-1.5832,-1.5832,-1.5832,-1.5832,-1.5832,0.0,0.0,0.0,0.0,0.0,0.0,0.0,0.0,0.0,0.0,0.0,0.0,0.0,0.0,0.0,0.0,0.0,0.0,0.0,0.0,-1.2754,-1.3629,-1.3351,-1.2957,-1.2612,-1.3216,-1.3701,-1.3989,-1.4471,-1.4376,-1.3649,-1.301,-1.275,-1.2813,-1.2412,-1.2412,-1.2813,-1.2529,-1.2421,-1.2421,0.0,0.0,0.0,0.0,0.0,0.0,0.0,0.0,0.0,0.0,0.0,0.0,0.0,0.0,0.0,-1.2323,-1.2323,-1.2417,-1.2674,-1.324,-1.3971,-1.4819,-1.6087,-1.7036,-1.6934,-1.7246,-1.7582,-1.7551,-1.7491,-1.7455,0.0,-1.8123,0.0,0.0,0.0,0.0,0.0,0.0,0.0,0.0,0.0,0.0,0.0,0.0,0.0,0.0,0.0,0.0,0.0,0.0,0.0,0.0,0.0,0.0,-2.1741,-2.1741,-2.1266,-2.0249,-1.8703,-1.7878,-1.7606,-1.685,-1.6386,-1.6109,-1.6109,-1.6015,-1.5832,-1.5832,-1.5832,-1.5832,-1.5832,-1.5832,-1.5832,-1.5832,-1.5832,-1.5832,0.0,0.0,0.0,0.0,0.0,0.0,0.0,0.0,0.0,0.0,0.0,0.0,0.0,0.0,0.0,0.0,0.0,0.0,0.0,0.0,-1.2633,-1.3586,-1.3392,-1.3541,-1.4043,-1.4564,-1.484,-1.4795,-1.539,-1.5199,-1.4264,-1.4336,-1.3962,-1.317,-1.3122,-1.3122,-1.317,-1.2958,-1.2822,-1.2764,-1.2578,0.0,0.0,0.0,0.0,0.0,0.0,0.0,0.0,0.0,0.0,0.0,0.0,0.0,-1.3036,-1.3036,-1.3036,-1.3076,-1.3116,-1.4162,-1.4997,-1.4413,-1.4939,-1.6128,-1.8352,-1.8664,-1.8846,-2.0073,-2.0193,-1.9805,0.0,0.0,0.0,0.0,0.0,0.0,0.0,0.0,0.0,0.0,0.0,0.0,0.0,0.0,0.0,0.0,0.0,0.0,0.0,0.0,0.0,0.0,0.0,0.0,-2.1741,-2.1741,-2.1266,-2.0339,-2.0158,-1.9613,-1.8696,-1.8603,-1.8056,-1.7232,-1.7232,-1.6676,-1.5832,-1.5832,-1.5832,-1.5832,-1.5832,-1.5832,-1.5832,-1.5832,-1.5832,-1.5832,0.0,0.0,0.0,0.0,0.0,0.0,0.0,0.0,0.0,0.0,0.0,0.0,0.0,0.0,0.0,0.0,0.0,0.0,0.0,0.0,-1.2722,-1.3913,-1.382,-1.4039,-1.4631,-1.4822,-1.5193,-1.5703,-1.5929,-1.5647,-1.4871,-1.4451,-1.4022,-1.3563,-1.3314,-1.3314,-1.342,-1.319,-1.3084,-1.3035,-1.2987,-1.284,0.0,0.0,0.0,0.0,0.0,0.0,0.0,0.0,-1.2922,-1.3218,-1.3218,-1.317,-1.3142,-1.3142,-1.3142,-1.3172,-1.3175,-1.4358,-1.5615,-1.5594,-1.662,-1.7913,-1.9104,-2.004,-2.0875,-2.1675,-2.2071,-2.2024,0.0,0.0,0.0,0.0,0.0,0.0,0.0,0.0,0.0,0.0,0.0,0.0,0.0,0.0,0.0,0.0,0.0,0.0,0.0,0.0,0.0,0.0,0.0,0.0,0.0,-2.1741,-2.1553,-2.1177,-2.0619,-2.0068,-1.9704,-1.9063,-1.8241,-1.7326,-1.7326,-1.7044,-1.6676,-1.6015,-1.6204,-1.6669,-1.6015,-1.5832,-1.5832,-1.5832,-1.5832,-1.5832,0.0,0.0,0.0,0.0,0.0,0.0,0.0,0.0,0.0,0.0,0.0,0.0,0.0,0.0,0.0,0.0,0.0,0.0,-1.219,-1.2357,-1.2986,-1.414,-1.4141,-1.4485,-1.5136,-1.5126,-1.5497,-1.6135,-1.6334,-1.5974,-1.5046,-1.4676,-1.43,-1.3905,-1.3647,-1.36,-1.3716,-1.342,-1.3362,-1.3362,-1.3314,-1.3233,0.0,0.0,0.0,0.0,0.0,0.0,0.0,0.0,-1.3185,-1.3467,-1.342,-1.3362,-1.3314,-1.3266,-1.3314,-1.3372,-1.3372,-1.4407,-1.5564,-1.6003,-1.7434,-1.9021,-2.0028,-2.1348,-2.2685,-2.3801,-2.3768,-2.3295,-2.2907,0.0,0.0,0.0,0.0,0.0,0.0,0.0,0.0,0.0,0.0,0.0,0.0,0.0,0.0,0.0,0.0,0.0,0.0,0.0,0.0,0.0,0.0,0.0,0.0,-2.1741,-2.1741,-2.1731,-2.1087,-2.0718,-2.0718,-2.0076,-1.9155,-1.8241,-1.8241,-1.8056,-1.7692,-1.7037,-1.6943,-1.7232,-1.6574,-1.6109,-1.5825,-1.6204,-1.6109,-1.5832,0.0,0.0,0.0,0.0,0.0,0.0,0.0,0.0,0.0,0.0,0.0,0.0,0.0,0.0,0.0,0.0,0.0,0.0,-1.221,-1.271,-1.3322,-1.4049,-1.435,-1.4865,-1.5647,-1.5715,-1.5784,-1.5985,-1.6599,-1.6126,-1.4719,-1.5126,-1.4902,-1.4222,-1.4222,-1.414,-1.3973,-1.3716,-1.3668,-1.3773,-1.3515,-1.3294,-1.317,0.0,0.0,0.0,0.0,0.0,0.0,0.0,-1.3868,-1.3973,-1.3821,-1.3716,-1.3563,-1.342,-1.361,-1.3821,-1.3821,-1.4264,-1.4832,-1.5359,-1.6846,-1.8811,-2.1362,-2.2719,-2.4082,-2.6691,-2.5306,-2.3744,-2.4169,0.0,0.0,0.0,0.0,0.0,0.0,0.0,0.0,0.0,0.0,0.0,0.0,0.0,0.0,0.0,0.0,0.0,0.0,0.0,0.0,0.0,0.0,0.0,0.0,-2.1741,-2.1741,-2.1741,-2.1741,-2.1741,-2.1741,-2.1741,-2.1177,-2.0339,-2.0339,-1.9704,-1.8788,-1.8788,-1.8241,-1.7326,-1.7326,-1.6676,-1.592,-1.6951,-1.6676,-1.5832,0.0,0.0,0.0,0.0,0.0,0.0,0.0,0.0,0.0,0.0,0.0,0.0,0.0,0.0,0.0,0.0,0.0,0.0,-1.233,-1.2482,-1.3,-1.3934,-1.4041,-1.4411,-1.5112,-1.5568,-1.5875,-1.615,-1.6619,-1.6341,-1.5353,-1.5463,-1.5129,-1.4477,-1.4373,-1.428,-1.414,-1.3962,-1.3915,-1.3915,-1.3868,-1.3784,-1.3725,0.0,0.0,0.0,0.0,0.0,0.0,0.0,0.0,0.0,-1.3962,-1.3868,-1.3716,-1.3668,-1.3668,-1.3668,-1.3668,-1.4584,-1.5771,-1.6607,-1.8587,-2.083,-2.2994,-2.3201,-2.3523,-2.5716,-2.5563,-2.5013,-2.4925,0.0,0.0,0.0,0.0,0.0,0.0,0.0,0.0,0.0,0.0,0.0,0.0,0.0,0.0,0.0,0.0,0.0,0.0,0.0,0.0,0.0,0.0,0.0,0.0,0.0,-2.1741,-2.1741,-2.1741,-2.1741,-2.1741,-2.1741,-2.1177,-2.0339,-2.0339,-2.0158,-1.9795,-1.9063,-1.8241,-1.7232,-1.6487,-1.6015,-1.5832,-1.6109,-1.6015,-1.5832,0.0,0.0,0.0,0.0,0.0,0.0,0.0,0.0,0.0,0.0,-1.2437,0.0,0.0,0.0,0.0,0.0,0.0,0.0,0.0,-1.2556,-1.3021,-1.403,-1.4089,-1.4475,-1.5301,-1.5768,-1.6082,-1.6305,-1.6658,-1.6349,-1.5473,-1.5715,-1.5414,-1.4684,-1.4722,-1.4653,-1.443,-1.4244,-1.4208,-1.4255,-1.4197,-1.415,-1.415,0.0,0.0,0.0,0.0,0.0,0.0,0.0,0.0,0.0,-1.4104,-1.4057,-1.4057,-1.3952,-1.3952,-1.3952,-1.3999,-1.5165,-1.6547,-1.7564,-1.9576,-2.1761,-2.3452,0.0,0.0,0.0,-2.5994,-2.5825,-2.595,0.0,0.0,0.0,0.0,0.0,0.0,0.0,0.0,0.0,0.0,0.0,0.0,0.0,0.0,0.0,0.0,0.0,0.0,0.0,0.0,0.0,0.0,0.0,0.0,0.0,0.0,-2.1741,-2.1741,-2.1741,-2.1741,-2.1741,-2.1365,-2.0898,-2.0898,-2.0898,-2.0718,-1.9338,-1.8703,-1.8427,-1.7404,-1.6763,-1.6487,-1.685,-1.6756,-1.6298,0.0,0.0,0.0,0.0,0.0,0.0,0.0,0.0,0.0,0.0,-1.2745,-1.2639,0.0,0.0,0.0,0.0,0.0,0.0,0.0,0.0,-1.3277,-1.4347,-1.4465,-1.4962,-1.602,-1.6144,-1.6275,-1.6392,-1.6622,-1.6293,-1.5402,-1.5916,-1.5707,-1.4891,-1.5166,-1.5121,-1.4776,-1.4523,-1.4523,-1.4627,-1.4477,-1.443,-1.443,-1.443,0.0,0.0,0.0,0.0,0.0,0.0,0.0,0.0,-1.4316,-1.4326,-1.4384,-1.4222,-1.428,-1.4419,-1.4605,-1.5735,-1.7111,-1.8167,-2.0133,0.0,-2.3349,-2.5429,-2.707,-2.7024,0.0,0.0,0.0,0.0,0.0,0.0,0.0,0.0,0.0,0.0,0.0,0.0,0.0,0.0,0.0,0.0,0.0,0.0,0.0,0.0,0.0,0.0,0.0,0.0,0.0,0.0,0.0,0.0,0.0,0.0,-2.1621,-2.1621,-2.163,-2.1704,-2.1741,-2.1741,-2.1741,-2.1741,-2.1553,-1.9704,-1.9413,-2.0116,-1.9107,-1.8087,-1.7331,-1.8364,-1.8103,-1.7102,0.0,0.0,0.0,0.0,0.0,0.0,0.0,0.0,0.0,0.0,0.0,0.0,0.0,0.0,0.0,0.0,0.0,0.0,0.0,0.0,-1.335,-1.4359,-1.5294,-1.5954,-1.6306,-1.6349,-1.6392,-1.6479,-1.6386,-1.6242,-1.6064,-1.5945,-1.5676,-1.5345,-1.5223,-1.5039,-1.4787,-1.473,-1.473,-1.473,-1.473,-1.473,-1.4684,-1.4581,-1.4581,0.0,0.0,0.0,0.0,0.0,0.0,0.0,-1.4419,-1.443,-1.4523,-1.4269,-1.4222,-1.4269,-1.4316,-1.5344,0.0,-1.8359,-2.1366,-2.4317,-2.5417,-2.5942,-2.6078,-2.5497,-2.5902,0.0,0.0,0.0,0.0,0.0,0.0,0.0,0.0,0.0,0.0,0.0,0.0,0.0,0.0,0.0,0.0,0.0,0.0,0.0,0.0,0.0,0.0,0.0,0.0,0.0,-2.2931,-2.2026,-2.1333,0.0,-2.0778,-2.0778,-2.0805,-2.1447,-2.1741,-2.1741,-2.1741,-2.1741,-2.1642,-2.0439,-1.9898,-1.9732,-1.875,-1.7596,-1.6683,-1.7838,-1.775,-1.6967,0.0,0.0,0.0,0.0,0.0,0.0,0.0,0.0,0.0,0.0,0.0,0.0,0.0,0.0,0.0,0.0,0.0,0.0,0.0,0.0,0.0,-1.4492,-1.5778,-1.6461,-1.6534,-1.662,-1.6663,-1.6735,-1.662,-1.6436,-1.6324,-1.6781,-1.6712,-1.6197,-1.6091,-1.5881,-1.5603,-1.5085,-1.4891,-1.4949,-1.4949,-1.4903,-1.4846,-1.4789,-1.4754,-1.4776,-1.4627,0.0,0.0,0.0,0.0,0.0,0.0,0.0,-1.4616,-1.4419,-1.4326,-1.4326,-1.4547,-1.5508,0.0,-1.9183,0.0,-2.4376,-2.4696,-2.5213,-2.5218,-2.4137,0.0,0.0,0.0,0.0,0.0,0.0,0.0,0.0,0.0,0.0,0.0,0.0,0.0,0.0,0.0,0.0,0.0,0.0,0.0,0.0,0.0,0.0,0.0,0.0,0.0,0.0,-2.1829,-2.1163,-2.0726,-2.0521,-2.0521,-2.0521,-2.0539,-2.1154,-2.1548,-2.1741,-2.1741,-2.1741,-2.1642,-2.0709,-2.0303,-2.0228,-1.9259,-1.8418,-1.7707,-1.8596,-1.8361,-1.7508,0.0,0.0,0.0,0.0,0.0,0.0,0.0,0.0,0.0,0.0,0.0,0.0,0.0,0.0,0.0,0.0,0.0,0.0,0.0,0.0,0.0,0.0,-1.5939,-1.6629,-1.6718,-1.6846,-1.6918,-1.7002,-1.7002,-1.6871,-1.666,-1.7713,-1.776,-1.693,-1.7062,-1.6872,-1.6334,-1.5451,-1.5096,-1.5198,-1.5153,-1.5062,-1.496,-1.4903,-1.488,-1.4868,-1.4822,-1.4765,-1.4662,-1.4765,0.0,0.0,0.0,0.0,-1.4697,-1.4673,-1.4581,-1.4569,-1.4971,-1.5959,-1.7468,-2.01,-2.2127,0.0,-2.3195,-2.3952,-2.4401,0.0,0.0,0.0,0.0,0.0,0.0,0.0,0.0,0.0,0.0,0.0,0.0,0.0,0.0,0.0,0.0,0.0,0.0,0.0,0.0,0.0,0.0,0.0,0.0,0.0,0.0,-2.0171,-2.0312,-2.0052,-1.9961,-2.0209,-2.0273,-2.0347,-2.0429,-2.075,-2.1126,-2.1539,-2.1676,-2.1695,-2.1542,-2.0872,-2.0758,-2.1012,-2.0158,-1.9471,-1.9093,-1.9575,-1.8979,-1.7966,0.0,0.0,0.0,0.0,0.0,0.0,0.0,0.0,0.0,0.0,0.0,0.0,0.0,0.0,0.0,0.0,0.0,0.0,0.0,0.0,0.0,-1.5095,-1.5732,-1.6347,-1.6876,-1.696,-1.7002,-1.7002,-1.7225,-1.7571,-1.8013,-1.7804,-1.734,-1.6764,-1.7065,-1.679,-1.6054,-1.5772,-1.5659,-1.5582,-1.5357,-1.5267,-1.521,-1.5006,-1.496,-1.5017,-1.4915,-1.4869,-1.4869,-1.4869,-1.496,0.0,0.0,0.0,-1.4869,-1.4765,-1.4776,-1.4822,-1.5028,0.0,-1.8223,0.0,-2.1416,-2.2522,0.0,0.0,0.0,0.0,0.0,0.0,0.0,0.0,0.0,0.0,0.0,0.0,0.0,0.0,0.0,0.0,0.0,0.0,0.0,0.0,0.0,0.0,0.0,0.0,0.0,0.0,-2.0633,-1.9938,-2.0638,0.0,-1.9497,-1.9759,-1.9564,-1.8953,-1.9301,-1.965,-2.0008,-2.0063,-2.0301,-2.0723,-2.1429,-2.153,-2.1218,-2.1398,-2.1396,-2.1071,-2.0562,-1.9676,-1.8748,-1.9567,-1.8809,-1.7397,0.0,0.0,0.0,0.0,0.0,0.0,0.0,0.0,0.0,0.0,0.0,0.0,0.0,0.0,0.0,0.0,0.0,0.0,0.0,0.0,0.0,-1.4797,-1.5647,-1.6279,-1.6675,-1.7055,-1.7253,-1.7282,-1.7406,-1.7752,-1.8379,-1.849,-1.8584,-1.8649,-1.8528,-1.8092,-1.7426,-1.6741,-1.6223,-1.5881,-1.5836,-1.5869,-1.5932,-1.5724,-1.5712,-1.5832,-1.5501,-1.5322,-1.5232,-1.5232,-1.5244,-1.5165,-1.5028,0.0,0.0,0.0,-1.4787,-1.4868,-1.5131,-1.6185,-1.7446,0.0,-1.9773,-2.0899,-2.1139,0.0,0.0,0.0,0.0,0.0,0.0,0.0,0.0,0.0,0.0,0.0,0.0,0.0,0.0,0.0,0.0,0.0,0.0,0.0,0.0,0.0,0.0,0.0,0.0,-1.8649,-1.8674,-1.8183,-1.8786,0.0,-1.8332,-1.8665,-1.8854,-1.8715,-1.9118,-1.9402,-1.9595,-2.0053,-2.0356,-2.0539,-2.0897,-2.108,-2.1117,-2.131,-2.1273,-2.1089,-2.0915,-2.0214,-1.9368,-2.0007,-1.9252,-1.8045,0.0,0.0,0.0,0.0,0.0,0.0,0.0,0.0,0.0,0.0,0.0,0.0,0.0,0.0,0.0,0.0,0.0,0.0,0.0,0.0,0.0,-1.4518,-1.5529,-1.6205,-1.6494,-1.7128,-1.7461,-1.7516,-1.7516,-1.7864,-1.8452,-1.911,-1.9712,-2.0261,-1.9869,-1.924,-1.8448,-1.7604,-1.6908,-1.6448,-1.6368,-1.6423,-1.657,-1.6466,-1.6497,-1.6557,-1.6163,-1.5901,-1.568,-1.5635,-1.5513,-1.5345,-1.5244,-1.5153,0.0,0.0,0.0,-1.496,0.0,0.0,-1.6586,-1.7015,-1.8199,-1.9318,0.0,0.0,0.0,0.0,0.0,0.0,0.0,0.0,0.0,0.0,0.0,0.0,0.0,0.0,0.0,0.0,0.0,0.0,0.0,0.0,0.0,0.0,0.0,0.0,-1.7203,-1.7278,-1.7273,-1.689,-1.7293,-1.7449,-1.7348,-1.7761,-1.8164,-1.8568,-1.8962,-1.9201,-1.932,-1.9934,-2.0209,-2.0218,-2.0429,-2.0631,-2.0814,-2.0915,-2.1016,-2.1089,-2.0888,-2.0512,-2.009,-2.0182,-1.9422,-1.8411,0.0,0.0,0.0,0.0,0.0,0.0,0.0,0.0,0.0,0.0,0.0,0.0,-1.3788,-1.3661,-1.3547,-1.348,0.0,0.0,0.0,0.0,0.0,-1.4572,-1.5336,0.0,-1.6481,-1.7142,-1.7475,-1.7516,-1.7625,-1.7974,-1.862,-1.9314,-1.9953,-2.0495,-2.0261,-1.9495,-1.8302,-1.7987,-1.7784,-1.7663,-1.7012,-1.6795,-1.6782,-1.6995,-1.7008,-1.6951,-1.671,-1.6497,-1.6238,-1.6032,-1.5768,-1.5468,-1.5468,-1.5232,-1.4949,0.0,0.0,0.0,0.0,-1.5626,0.0,-1.6315,-1.7128,0.0,0.0,0.0,0.0,0.0,0.0,0.0,0.0,0.0,0.0,0.0,0.0,0.0,0.0,0.0,0.0,0.0,0.0,0.0,0.0,0.0,0.0,0.0,0.0,0.0,-1.6427,-1.7025,-1.7273,-1.689,-1.7293,-1.7312,-1.6936,-1.733,-1.7734,-1.8164,-1.855,-1.8935,-1.9301,-1.9347,-1.9366,-1.9402,-2.0182,-2.0319,-2.0017,-2.0393,-2.0769,-2.1034,-2.0283,-2.0191,-2.0393,-1.9641,-1.878,-1.8031,0.0,0.0,0.0,0.0,0.0,0.0,0.0,0.0,0.0,0.0,0.0,0.0,0.0,-1.4297,-1.4371,-1.4689,-1.4728,0.0,0.0,0.0,0.0,-1.473,-1.5777,-1.6464,-1.6676,-1.7317,-1.7666,-1.7747,-1.7788,-1.8153,-1.8735,-1.8995,-1.9415,-2.0026,-2.022,-1.9833,-1.9057,-1.8451,-1.7952,-1.7555,-1.7499,-1.757,-1.7733,-1.7787,-1.7868,0.0,0.0,0.0,0.0,-1.7073,-1.649,-1.5703,-1.5659,-1.539,-1.5165,-1.5108,-1.521,-1.5312,0.0,0.0,0.0,-1.5671,-1.6232,-1.6882,0.0,0.0,0.0,0.0,0.0,0.0,0.0,0.0,0.0,0.0,0.0,0.0,0.0,0.0,0.0,0.0,0.0,0.0,0.0,0.0,0.0,0.0,0.0,0.0,-1.6539,-1.6354,-1.6477,-1.689,-1.7046,-1.7055,-1.6908,-1.7046,-1.7458,-1.8128,-1.8265,-1.8678,-1.9301,-1.9301,-1.9301,-1.932,-1.9604,-1.9815,-1.9943,-2.009,-2.0374,-2.0704,-2.042,-2.0246,-2.0108,-1.9815,-1.9281,-1.8851,0.0,0.0,0.0,0.0,0.0,0.0,0.0,0.0,0.0,-1.5606,0.0,0.0,0.0,0.0,-1.5165,-1.5485,-1.5524,-1.5367,-1.4951,-1.5451,-1.5551,-1.5154,-1.6144,-1.6741,-1.6792,-1.745,-1.7801,-1.7882,-1.7882,-1.8126,-1.8507,-1.8725,-1.9024,-1.9402,-1.9705,-1.9773,-1.9512,-1.8976,-1.8502,-1.8116,-1.8072,-1.8316,-1.8769,-1.8933,0.0,0.0,0.0,0.0,0.0,0.0,0.0,-1.6935,-1.6495,-1.5846,-1.5255,-1.5153,-1.5165,-1.521,-1.5165,0.0,0.0,0.0,0.0,-1.5881,0.0,0.0,0.0,0.0,0.0,0.0,0.0,0.0,0.0,0.0,0.0,0.0,0.0,0.0,0.0,0.0,0.0,0.0,0.0,0.0,0.0,0.0,0.0,0.0,-1.6393,-1.5925,-1.6001,-1.6688,-1.6569,-1.6569,-1.6707,-1.6707,-1.711,-1.7917,-1.7917,-1.833,-1.91,-1.8962,-1.8981,-1.91,-1.8962,-1.9146,-1.9522,-1.9522,-1.9677,-1.9897,-1.9769,-1.9714,-1.9705,-1.9567,-1.943,-1.9347,0.0,0.0,0.0,0.0,0.0,0.0,0.0,0.0,-1.6451,-1.6451,0.0,0.0,0.0,0.0,0.0,-1.5875,-1.5875,-1.5861,-1.5848,-1.5861,-1.5861,-1.5835,0.0,0.0,0.0,-1.753,-1.7882,-1.7882,-1.7882,-1.7882,-1.7896,-1.8507,-1.8793,-1.8806,-1.8806,-1.916,-1.97,-1.9543,-1.9472,-1.9435,0.0,-1.8907,-1.9839,0.0,0.0,0.0,-2.1063,-2.1032,0.0,-2.0089,0.0,0.0,0.0,-1.6504,-1.5255,-1.5153,-1.5108,-1.5062,0.0,0.0,0.0,0.0,0.0,0.0,0.0,0.0,0.0,0.0,0.0,0.0,0.0,0.0,0.0,0.0,0.0,0.0,0.0,0.0,0.0,0.0,0.0,0.0,0.0,0.0,0.0,0.0,0.0,-1.6219,-1.6016,-1.5839,-1.5881,-1.6303,-1.5909,-1.5881,-1.6294,-1.6312,-1.6707,-1.7477,-1.7486,-1.7917,-1.8678,-1.8302,-1.833,-1.8678,-1.8293,-1.833,-1.8678,-1.8687,-1.8696,-1.866,-1.8284,-1.8605,-1.9219,-1.8861,-1.8962,-1.9283,0.0,0.0,0.0,0.0,0.0,0.0,-1.7371,-1.7301,-1.7264,0.0,0.0,0.0,-1.6913,-1.7211,-1.7314,-1.7183,-1.7183,-1.6969,-1.6464,-1.6915,-1.6995,-1.6539,-1.722,-1.7584,-1.7584,-1.7787,-1.7882,-1.7882,-1.7935,-1.7935,-1.7882,-1.8099,-1.8412,-1.8806,-1.8848,-1.9203,-1.9646,-1.8708,0.0,-1.9024,-1.9072,-1.9291,0.0,0.0,0.0,0.0,0.0,-2.1254,-2.0639,0.0,-2.0034,-1.8721,0.0,0.0,-1.5312,-1.5267,-1.5165,-1.5108,-1.5051,0.0,0.0,0.0,0.0,0.0,0.0,0.0,0.0,0.0,0.0,0.0,0.0,0.0,0.0,0.0,0.0,0.0,0.0,0.0,0.0,0.0,0.0,0.0,0.0,0.0,0.0,0.0,0.0,-1.5762,-1.6016,-1.5839,-1.5881,-1.6303,-1.5909,-1.5744,-1.5863,-1.6166,-1.6569,-1.7073,-1.7358,-1.777,-1.8284,-1.8174,-1.8183,-1.8284,-1.8174,-1.8018,-1.7853,-1.8164,-1.8284,-1.8302,-1.8485,-1.8513,-1.8504,-1.8971,-1.9026,-1.8916,0.0,0.0,0.0,0.0,0.0,-1.8686,-1.8158,-1.8247,-1.824,0.0,0.0,0.0,-1.7636,-1.8149,-1.8289,-1.7936,-1.7922,-1.7733,-1.7354,-1.7638,-1.7706,-1.7392,-1.7745,-1.7989,-1.8003,-1.8043,-1.8043,-1.8043,-1.8055,-1.8055,-1.8043,-1.8055,-1.8248,-1.8563,0.0,0.0,-1.9041,0.0,0.0,0.0,-1.9196,0.0,0.0,-2.0654,-2.1021,0.0,0.0,0.0,-2.2226,-2.2055,-2.0706,0.0,0.0,0.0,0.0,0.0,0.0,-1.5153,-1.5108,-1.4983,-1.4846,0.0,0.0,0.0,0.0,-1.5691,0.0,0.0,0.0,0.0,0.0,0.0,0.0,0.0,0.0,0.0,0.0,0.0,0.0,0.0,0.0,0.0,0.0,0.0,0.0,0.0,-1.5638,-1.5284,-1.559,-1.5334,-1.5386,-1.5799,-1.5414,-1.5276,-1.5441,-1.5689,-1.601,-1.6404,-1.6817,-1.722,-1.7614,-1.7614,-1.7706,-1.7853,-1.7688,-1.7477,-1.7266,-1.7513,-1.7614,-1.7651,-1.8045,-1.8064,-1.7935,-1.8577,-1.877,-1.8724,0.0,0.0,-1.8764,-1.8884,-1.9211,-1.9343,-1.8995,-1.9313,-1.9387,0.0,-1.8621,-1.8528,-1.8476,-1.892,-1.9003,-1.8394,-1.8339,-1.8271,-1.8202,-1.8095,-1.8095,-1.8189,-1.8095,-1.8095,-1.8202,-1.8202,-1.8202,-1.8202,-1.8202,-1.8202,-1.8202,-1.8189,-1.8202,-1.8202,0.0,0.0,0.0,0.0,0.0,-2.0484,-1.9404,-1.9796,0.0,0.0,-2.16,-2.2546,-2.25,-2.3353,-2.4409,-2.3219,-2.1431,0.0,0.0,0.0,0.0,0.0,-1.5392,-1.5382,-1.5176,-1.5006,-1.4903,0.0,0.0,0.0,-1.5457,-1.5647,0.0,0.0,0.0,0.0,0.0,0.0,0.0,0.0,0.0,0.0,0.0,0.0,0.0,0.0,0.0,0.0,0.0,0.0,0.0,-1.6181,-1.5269,-1.485,-1.5118,-1.4726,-1.4689,-1.5093,-1.4717,-1.468,-1.5029,-1.5084,-1.5276,-1.5634,-1.6046,-1.6431,-1.6771,-1.6771,-1.6991,-1.7348,-1.6991,-1.6862,-1.6908,-1.6908,-1.6908,-1.6945,-1.7339,-1.7495,-1.755,-1.8018,-1.8412,-1.8669,0.0,0.0,-1.8955,-1.9523,-1.9695,-1.991,-2.0269,-2.0482,-2.0525,-2.0314,-2.016,-2.0077,-2.0035,-2.0119,-1.9866,-1.9141,-1.9085,-1.8836,-1.823,-1.8189,-1.8149,-1.8202,-1.8149,-1.8149,-1.8202,-1.8202,-1.8202,-1.8202,0.0,-1.8254,-1.8202,-1.8254,-1.8254,-1.8202,0.0,0.0,0.0,0.0,0.0,-2.1139,-2.1096,0.0,-2.186,-2.1943,-2.2146,-2.2322,-2.2236,-2.2643,-2.3175,-2.2686,-2.1431,-1.9956,0.0,0.0,0.0,0.0,0.0,0.0,0.0,0.0,0.0,0.0,0.0,0.0,-1.5142,-1.5379,0.0,0.0,0.0,0.0,0.0,0.0,0.0,0.0,0.0,0.0,0.0,0.0,0.0,0.0,0.0,0.0,0.0,0.0,-1.4716,-1.4292,-1.4369,-1.4647,-1.5241,-1.4888,-1.4791,-1.5084,-1.4717,-1.4552,-1.4625,-1.4937,-1.5139,-1.5221,-1.5625,-1.5854,-1.5927,-1.5927,-1.6156,-1.6541,-1.6594,-1.6868,-1.7166,-1.7166,-1.7038,-1.6945,-1.7339,-1.7495,-1.7587,-1.833,-1.865,-1.8742,-1.8936,-1.8912,-1.9128,-1.9879,-2.0215,-2.0518,-2.0876,-2.1167,-2.1225,-2.0867,-2.0927,-2.0955,-2.0642,-2.0855,-2.0712,-2.0076,-1.9936,-1.9627,-1.8929,-1.8806,-1.8641,-1.8375,-1.8307,-1.8293,-1.8361,-1.8361,-1.8361,-1.8361,0.0,0.0,0.0,-1.8372,-1.845,-1.8489,0.0,0.0,0.0,0.0,-2.0471,-2.1437,-2.1327,0.0,-2.2017,-2.1963,-2.2037,-2.2247,-2.2147,-2.2484,-2.2946,-2.3112,-2.2079,0.0,0.0,-1.9396,-1.8336,0.0,-1.6447,-1.622,0.0,0.0,0.0,-1.5062,0.0,0.0,0.0,-1.5424,0.0,0.0,0.0,0.0,0.0,0.0,0.0,0.0,0.0,0.0,0.0,0.0,0.0,0.0,0.0,0.0,0.0,0.0,-1.4471,-1.3821,-1.4086,-1.4468,-1.4775,-1.4843,-1.4877,-1.5042,-1.4846,-1.4684,-1.4616,-1.481,-1.486,-1.4808,-1.5212,-1.5458,-1.5531,-1.5725,-1.6048,-1.6579,-1.6637,-1.6938,-1.7323,-1.7323,-1.7323,-1.7222,-1.741,-1.7567,-1.7703,-1.811,-1.8462,-1.8704,-1.9101,-1.9055,-1.9257,-2.006,-2.0637,-2.1032,-2.1222,-2.1755,-2.1932,-2.1382,-2.186,-2.2047,-2.1541,-2.1859,-2.2019,-2.1828,-2.1079,-2.0536,-2.0407,0.0,-1.9272,-1.8793,-1.8618,-1.8562,-1.8556,-1.8517,-1.8517,-1.8517,0.0,0.0,0.0,0.0,0.0,0.0,0.0,0.0,0.0,0.0,0.0,-2.1642,0.0,-2.1671,-2.2091,-2.1786,-2.1948,-2.2352,-2.2352,-2.2527,-2.2815,-2.3392,0.0,-2.1407,-2.1212,-2.0361,0.0,0.0,0.0,0.0,0.0,0.0,0.0,0.0,0.0,-1.5153,0.0,0.0,0.0,0.0,0.0,0.0,0.0,0.0,0.0,0.0,0.0,0.0,0.0,0.0,0.0,0.0,0.0,0.0,0.0,0.0,-1.4301,-1.3781,-1.397,-1.4231,-1.4336,-1.4725,-1.4953,-1.5029,-1.497,-1.4911,-1.4775,-1.4775,-1.4666,-1.4565,-1.4888,-1.5106,-1.5176,-1.5564,-1.6047,-1.6713,-1.6722,-1.7073,-1.7529,-1.7529,-1.7529,-1.7567,-1.7469,-1.7583,-1.7872,-1.781,-1.818,-1.8675,-1.9101,-1.9101,-1.9304,-2.006,-2.0837,-2.1344,-2.1304,-2.2433,-2.3201,-2.2878,-2.3777,-2.4402,-2.4268,0.0,0.0,-2.5744,0.0,0.0,-2.3113,0.0,-2.0128,-1.9746,-1.9561,-1.9225,-1.876,-1.8581,-1.8517,-1.8517,0.0,0.0,0.0,0.0,0.0,0.0,-1.8683,0.0,0.0,0.0,-2.1323,0.0,-2.2717,-2.2863,0.0,-2.2307,-2.2468,-2.2847,-2.2965,-2.2615,-2.2149,0.0,-2.2302,-2.1801,0.0,-2.1306,-2.1241,0.0,0.0,0.0,0.0,0.0,0.0,0.0,-1.521,0.0,0.0,0.0,0.0,0.0,0.0,-1.4915,-1.4754,0.0,0.0,0.0,0.0,0.0,0.0,0.0,0.0,0.0,0.0,0.0,0.0,0.0,0.0,-1.3518,-1.3594,-1.3879,-1.4513,-1.46,-1.4744,-1.4961,-1.497,-1.497,-1.497,-1.497,-1.4843,-1.4656,-1.4899,-1.4918,-1.479,-1.5025,-1.5538,-1.6268,-1.6469,-1.6985,-1.7706,-1.7706,-1.7706,-1.7647,-1.7361,-1.7535,-1.8005,-1.7881,-1.8303,-1.8909,-1.925,-1.9265,-1.9493,-2.0239,-2.0748,-2.1177,-2.1644,-2.2828,-2.3581,-2.3378,-2.4134,-2.4657,0.0,0.0,0.0,0.0,0.0,-2.3692,0.0,0.0,-2.0808,-2.0489,0.0,0.0,-1.929,-1.9171,-1.8908,-1.8517,-1.8517,0.0,0.0,0.0,0.0,0.0,-1.9458,0.0,-2.0368,0.0,-2.1569,0.0,0.0,0.0,0.0,-2.3098,-2.3068,-2.3127,-2.3023,-2.2773,-2.254,0.0,-2.2624,0.0,0.0,0.0,0.0,0.0,0.0,0.0,0.0,0.0,0.0,0.0,0.0,0.0,-1.5222,0.0,-1.5062,0.0,0.0,0.0,0.0,0.0,0.0,0.0,0.0,0.0,0.0,0.0,0.0,0.0,0.0,0.0,0.0,0.0,0.0,0.0,0.0,-1.3821,-1.4266,-1.4593,-1.4867,-1.5235,-1.5254,-1.5196,-1.5098,-1.5098,-1.5029,-1.4902,-1.497,-1.5029,-1.4961,-1.5088,-1.5616,-1.6465,-1.6602,-1.7077,-1.7862,-1.7862,-1.7862,-1.7862,-1.7579,-1.7846,-1.8199,-1.7872,-1.8095,-1.8597,-1.9545,-1.956,-1.9745,-2.0266,0.0,-2.1462,-2.2404,0.0,0.0,0.0,0.0,0.0,-2.5137,-2.6112,0.0,0.0,-2.6725,-2.5743,0.0,0.0,-2.2024,0.0,0.0,0.0,0.0,0.0,-1.9466,-1.9063,-1.8894,0.0,0.0,0.0,0.0,0.0,0.0,-2.0165,-2.0922,0.0,0.0,-2.3024,-2.3068,-2.3316,-2.3635,-2.3482,-2.3348,-2.3275,-2.3023,-2.2831,-2.2656,-2.274,-2.2727,0.0,-2.274,0.0,0.0,0.0,0.0,0.0,-1.6806,0.0,0.0,0.0,0.0,0.0,0.0,0.0,0.0,0.0,0.0,0.0,0.0,0.0,-1.4373,0.0,0.0,0.0,0.0,0.0,0.0,0.0,0.0,0.0,0.0,0.0,0.0,0.0,0.0,0.0,-1.4083,-1.4419,-1.4805,-1.5225,-1.5352,-1.5362,-1.5264,-1.5264,-1.5205,-1.5039,-1.5088,-1.5147,-1.5215,-1.5264,-1.5788,-1.6665,-1.6665,-1.7217,-1.8008,-1.8008,-1.8008,-1.8008,-1.7852,-1.7987,-1.8238,-1.7831,-1.7995,-1.8299,-2.008,-2.001,-1.997,0.0,0.0,0.0,0.0,0.0,0.0,0.0,0.0,0.0,0.0,0.0,0.0,0.0,0.0,-2.7597,-2.8388,0.0,-2.3983,0.0,0.0,-2.1787,0.0,0.0,0.0,-2.043,0.0,0.0,0.0,0.0,-1.9404,0.0,-1.9606,-2.0084,-2.0783,-2.1812,-2.2656,-2.3319,-2.3523,-2.3566,-2.3538,0.0,-2.3083,-2.3275,-2.3112,0.0,0.0,-2.2309,-2.2245,0.0,0.0,0.0,0.0,0.0,0.0,0.0,0.0,0.0,0.0,-1.6606,0.0,0.0,0.0,0.0,-1.5028,0.0,0.0,0.0,0.0,-1.4373,-1.4373,-1.4373,0.0,0.0,0.0,0.0,0.0,0.0,0.0,0.0,0.0,0.0,0.0,0.0,0.0,0.0,-1.4183,-1.4178,-1.4355,-1.4785,-1.5205,-1.541,-1.541,-1.541,-1.5303,-1.5215,-1.5303,-1.5313,-1.5215,-1.5303,-1.5898,-1.6665,-1.6665,-1.7217,-1.8008,-1.8008,-1.8008,-1.8008,-1.8008,-1.8018,-1.7959,-1.7794,-1.7846,-1.8019,-2.1961,-2.1976,-2.1728,0.0,0.0,0.0,0.0,-2.3881,0.0,0.0,0.0,0.0,0.0,-3.1348,-3.2406,0.0,0.0,-3.033,-2.9074,-2.7307,0.0,0.0,0.0,-2.3216,0.0,0.0,0.0,0.0,0.0,0.0,0.0,-2.0809,-2.0864,-2.1229,0.0,-2.1141,0.0,0.0,0.0,0.0,0.0,-2.3925,-2.3392,0.0,0.0,-2.3275,-2.3023,-2.2802,0.0,-2.268,-2.2653,-2.2613,-2.268,-2.2661,-2.2395,-2.1485,-2.1018,0.0,0.0,0.0,-1.8559,-1.7318,0.0,0.0,0.0,0.0,0.0,0.0,0.0,0.0,0.0,0.0,-1.4373,-1.4373,-1.4373,-1.4233,0.0,0.0,0.0,0.0,0.0,0.0,0.0,0.0,0.0,0.0,0.0,0.0,0.0,-1.4175,-1.434,-1.4821,-1.4922,-1.5127,-1.541,-1.541,-1.5362,-1.5303,-1.5362,-1.5362,-1.5303,-1.5362,-1.5898,-1.6665,-1.6665,-1.7061,-1.7598,-1.7598,-1.7598,-1.7598,-1.7598,-1.7598,-1.7627,-1.7833,-1.788,-1.7839,-2.2992,0.0,0.0,0.0,0.0,0.0,0.0,0.0,0.0,0.0,-2.878,0.0,-3.1275,0.0,-3.3597,0.0,-3.3222,-3.2126,-2.9835,-2.8946,0.0,-2.4112,-2.4955,0.0,0.0,0.0,0.0,0.0,0.0,-2.1437,0.0,-2.1473,-2.1527,0.0,0.0,-2.1656,-2.196,0.0,-2.292,0.0,0.0,-2.3911,0.0,0.0,-2.3275,0.0,0.0,-2.2788,-2.2687,-2.292,-2.2832,-2.2717,-2.292,-2.2797,-2.2529,-2.1993,-2.1626,-2.1286,-2.058,-2.0147,0.0,0.0,-1.7793,0.0,-1.6209,0.0,0.0,0.0,0.0,0.0,0.0,0.0,-1.4485,-1.4744,-1.4576,-1.4291,0.0,-1.3973,0.0,0.0,0.0,0.0,0.0,0.0,0.0,0.0,-1.4316,0.0,0.0,0.0,-1.442,-1.4805,-1.4808,-1.498,-1.541,-1.541,-1.541,-1.541,-1.541,-1.541,-1.541,-1.541,-1.5898,-1.6719,-1.6562,-1.6914,-1.7598,-1.7451,-1.7471,-1.7598,-1.7441,-1.7471,-1.7637,-1.791,-1.7765,-1.7504,0.0,0.0,0.0,0.0,-2.2456,0.0,0.0,0.0,-2.8224,0.0,-2.9788,-3.087,-3.1027,-3.1922,-3.2826,-3.3576,-3.3813,0.0,-3.0766,-3.1295,0.0,0.0,-2.5683,-2.5253,-2.348,0.0,0.0,0.0,0.0,0.0,0.0,0.0,0.0,0.0,-2.1358,0.0,-2.2033,-2.2628,-2.3157,-2.3595,-2.3595,-2.3595,-2.3551,-2.3538,0.0,-2.2889,-2.2933,-2.2644,-2.2365,-2.2922,-2.2746,-2.2422,-2.2922,-2.3127,-2.3082,-2.2947,-2.2947,-2.2797,-2.2324,-2.1365,-2.0281,-1.959,0.0,0.0,0.0,0.0,-1.7277,0.0,0.0,0.0,0.0,0.0,0.0,-1.5322,-1.4868,-1.4291,-1.4067,0.0,0.0,0.0,0.0,0.0,0.0,0.0,-1.3779,-1.5017,-1.4444,-1.4351,0.0,0.0,0.0,-1.4851,-1.4825,-1.498,-1.541,-1.541,-1.541,-1.541,-1.541,-1.541,-1.541,-1.541,-1.5898,-1.6709,-1.6279,-1.6816,-1.7949,-1.7529,-1.7588,-1.791,-1.748,-1.7588,-1.7978,-1.8008,-1.76,-1.7148,-2.4991,-2.4863,-2.4824,0.0,-2.4728,-2.5013,0.0,0.0,0.0,0.0,-3.1821,-3.3268,-3.4543,-3.5382,-3.5745,-3.5365,-3.5397,0.0,0.0,0.0,0.0,-2.6912,-2.7876,-2.6688,-2.2855,-2.3955,0.0,-2.2323,0.0,0.0,-2.2689,0.0,0.0,0.0,0.0,0.0,-2.1989,-2.2628,-2.3157,-2.3595,-2.3595,-2.3523,0.0,0.0,-2.3319,-2.3083,-2.3142,-2.3128,-2.3054,-2.3187,-2.3172,-2.3054,-2.3231,-2.3157,-2.3127,-2.3201,-2.3112,-2.2933,-2.2526,-2.1876,-2.103,-1.9826,-1.9016,-1.8302,0.0,0.0,0.0,0.0,0.0,0.0,0.0,0.0,0.0,-1.4744,-1.4449,-1.4222,0.0,0.0,0.0,-1.3915,0.0,0.0,0.0,0.0,-1.4468,-1.4801,-1.4915,-1.4823,0.0,0.0,0.0,-1.4334,-1.4615,-1.498,-1.541,-1.541,-1.541,-1.541,-1.541,-1.541,-1.541,-1.541,-1.5898,-1.6665,-1.6611,-1.6934,-1.751,-1.708,-1.6963,-1.7021,-1.6572,-1.6875,-1.7578,-1.79,-1.76,-1.711,-2.6037,0.0,0.0,-2.7051,0.0,0.0,-2.8239,0.0,0.0,-3.2015,-3.3373,0.0,-3.5429,-3.5893,-3.5976,-3.5562,-3.5214,0.0,-3.3036,0.0,0.0,-2.8264,-2.8372,-2.7055,-2.3911,-2.4282,0.0,-2.2629,0.0,0.0,-2.2377,0.0,0.0,0.0,0.0,-2.2218,0.0,-2.2848,-2.3216,-2.348,-2.3551,0.0,0.0,-2.3523,-2.3436,-2.3348,-2.3392,-2.3392,-2.3363,-2.3363,-2.3407,-2.3451,-2.3407,-2.3334,-2.329,-2.329,-2.3246,-2.3053,-2.2558,-2.1988,-2.1335,-2.0276,-1.9634,-1.907,-1.861,-1.8349,-1.8295,0.0,0.0,0.0,0.0,0.0,0.0,0.0,0.0,0.0,0.0,0.0,0.0,0.0,0.0,0.0,0.0,0.0,-1.4698,-1.4698,-1.4903,-1.4869,0.0,0.0,0.0,0.0,-1.5014,-1.5362,-1.5137,-1.5508,-1.5596,-1.541,-1.541,-1.541,-1.541,-1.541,-1.5898,-1.6709,-1.6328,-1.6621,-1.7334,-1.6699,-1.6553,-1.6709,-1.6455,-1.6543,-1.6855,-1.7295,-1.7229,-1.6951,0.0,0.0,0.0,0.0,0.0,0.0,0.0,-3.077,0.0,-3.3436,0.0,-3.4947,-3.4947,-3.48,-3.475,-3.475,0.0,-3.3375,-3.2729,-3.2318,-3.1255,-2.9418,-2.8263,-2.6995,-2.5588,-2.4164,0.0,0.0,0.0,0.0,0.0,0.0,0.0,0.0,0.0,0.0,0.0,-2.301,-2.3231,0.0,-2.3508,-2.3595,-2.3595,-2.3595,-2.3595,-2.3595,-2.3595,-2.3566,-2.3494,-2.3494,-2.3538,-2.361,-2.3538,-2.3509,-2.3466,-2.3363,-2.3319,-2.3172,-2.2466,-2.1941,-2.1465,-2.0696,-2.0156,-1.9798,-1.9798,-1.9604,-1.9473,-1.942,-1.8678,0.0,0.0,0.0,0.0,0.0,0.0,0.0,0.0,0.0,0.0,0.0,0.0,0.0,0.0,0.0,-1.4663,-1.4698,-1.4698,0.0,0.0,0.0,0.0,0.0,-1.5792,0.0,-1.5223,0.0,-1.593,-1.5605,-1.5498,-1.541,-1.541,-1.541,-1.5859,-1.6602,-1.583,-1.6211,-1.7314,-1.6426,-1.626,-1.6562,-1.6562,-1.6357,-1.6103,-1.6436,-1.6592,-1.665,0.0,0.0,0.0,0.0,0.0,-3.0929,-3.1933,-3.2475,-3.3034,-3.381,-3.4575,-3.5041,-3.5041,-3.4399,-3.3988,-3.3988,-3.3309,0.0,0.0,0.0,0.0,-3.0626,-2.951,-2.7823,-2.5505,-2.4232,-2.3212,0.0,0.0,0.0,0.0,0.0,0.0,0.0,0.0,0.0,-2.2815,-2.2571,0.0,-2.3566,-2.361,-2.3595,-2.3595,-2.3595,-2.3595,-2.3595,-2.3595,-2.361,-2.3566,-2.3566,-2.361,-2.3595,-2.361,-2.3538,-2.3509,-2.3523,-2.3494,-2.3275,-2.2221,-2.1819,-2.1424,-2.0372,-1.9965,-1.9798,-1.9798,-1.9759,-1.9708,-1.9617,-1.9334,-1.8955,-1.8358,0.0,0.0,0.0,0.0,0.0,0.0,0.0,0.0,0.0,0.0,0.0,0.0,0.0,0.0,0.0,0.0,0.0,0.0,0.0,0.0,0.0,0.0,0.0,0.0,0.0,0.0,-1.6801,-1.5869,-1.541,-1.541,-1.541,-1.5693,-1.6172,-1.6016,-1.6494,-1.7314,-1.6426,-1.5898,-1.5644,-1.5644,-1.5811,-1.6086,-1.5752,-1.5869,-1.623,0.0,0.0,0.0,0.0,0.0,0.0,0.0,-3.4141,0.0,-3.4751,-3.4631,-3.4672,-3.5055,-3.4678,-3.422,-3.3822,-3.311,-3.2531,-3.215,-3.1534,-3.0773,-2.9793,-2.8981,0.0,-2.5407,-2.4429,-2.3588,-2.2803,0.0,0.0,0.0,0.0,0.0,0.0,0.0,-2.1996,0.0,0.0,0.0,-2.3436,-2.3566,-2.3595,-2.3595,-2.3595,-2.3595,-2.3595,-2.3595,-2.3595,-2.3595,-2.3595,-2.3595,-2.3595,-2.3595,-2.3566,-2.3566,-2.361,-2.3377,-2.2979,-2.2067,-2.1582,-2.1113,-2.0156,-1.9862,-1.9798,-1.9798,-1.9759,-1.9656,-1.9617,-1.946,-1.9242,-1.8778,-1.7875,0.0,0.0,0.0,0.0,0.0,0.0,0.0,0.0,0.0,0.0,0.0,0.0,0.0,0.0,0.0,0.0,0.0,0.0,0.0,0.0,0.0,0.0,0.0,0.0,0.0,-1.6234,-1.5964,-1.569,-1.541,-1.541,-1.595,-1.6941,-1.6345,-1.6858,-1.7988,-1.6992,-1.6098,-1.543,-1.5664,-1.5732,-1.5703,-1.5488,-1.5537,-1.5791,0.0,-3.1274,0.0,0.0,-3.3073,0.0,0.0,-3.5232,-3.5594,-3.5492,-3.4834,-3.4547,-3.5131,-3.4758,-3.4233,-3.3653,-3.279,-3.1984,-3.1378,-3.0484,-2.9615,-2.8884,-2.8265,-2.7139,-2.5505,-2.4544,-2.3857,0.0,0.0,0.0,0.0,0.0,0.0,0.0,0.0,0.0,0.0,0.0,-2.3319,-2.3407,-2.3523,-2.3595,-2.3595,-2.3595,-2.3595,-2.3595,-2.3595,-2.3595,-2.3595,-2.3595,-2.3595,-2.3595,-2.3595,-2.3595,-2.3595,-2.3595,-2.3246,-2.2694,-2.1899,-2.1342,-2.0795,-2.0003,-1.9798,-1.9798,-1.9798,-1.9708,-1.9656,-1.9656,-1.9565,-1.942,-1.9275,-1.861,0.0,0.0,0.0,0.0,0.0,0.0,0.0,0.0,0.0,0.0,0.0,0.0,0.0,0.0,0.0,0.0,0.0,0.0,0.0,0.0,0.0,0.0,-1.6371,0.0,-1.7352,0.0,-1.6353,-1.6255,-1.5806,-1.5896,-1.6573,-1.7641,-1.6829,-1.716,-1.811,-1.7402,-1.6475,-1.5459,-1.5889,-1.5791,-1.541,-1.541,-1.5468,-1.5654,0.0,0.0,0.0,0.0,0.0,0.0,0.0,-3.502,-3.5594,-3.5492,-3.5424,-3.5379,-3.5446,-3.4041,-3.3056,-3.299,-3.1563,-3.0692,-3.0626,-3.0518,-3.0096,-2.9353,-2.8315,-2.7153,-2.5977,-2.4253,-2.3412,0.0,0.0,0.0,0.0,0.0,0.0,0.0,0.0,0.0,0.0,-2.3246,-2.3392,-2.3551,-2.3595,-2.3595,-2.3595,-2.3595,-2.3595,-2.3595,-2.3595,-2.3595,-2.3595,-2.3595,-2.3595,-2.3595,-2.3595,-2.3595,-2.3595,-2.3595,-2.3201,-2.2558,-2.1899,-2.1245,-2.0646,-1.9952,-1.9798,-1.9798,-1.9798,-1.9798,-1.9798,-1.9798,-1.9656,-1.9565,-1.942,-1.9239,-1.9044,0.0,0.0,0.0,0.0,0.0,0.0,0.0,0.0,0.0,0.0,0.0,0.0,0.0,0.0,0.0,0.0,0.0,0.0,0.0,0.0,-1.8795,-1.8589,-1.8235,0.0,-1.8533,-1.7578,-1.709,-1.7045,-1.7535,-1.7546,-1.7298,-1.7633,-1.7348,-1.6555,-1.7245,-1.6698,-1.5459,-1.5889,-1.5791,-1.541,-1.541,-1.5748,-1.6263,0.0,0.0,0.0,0.0,0.0,0.0,0.0,-3.5695,-3.5577,-3.5549,-3.552,-3.5492,-3.5492,-3.4354,-3.3356,-3.295,-3.1855,-3.0808,-2.9914,-2.9466,-2.8704,-2.7545,-2.7048,-2.6146,-2.4713,-2.4398,-2.3994,0.0,0.0,0.0,0.0,0.0,0.0,0.0,0.0,-2.2571,-2.2801,-2.3273,-2.3523,-2.3595,-2.3595,-2.3595,-2.3595,-2.3595,-2.3595,-2.3595,-2.3595,-2.3595,-2.3595,-2.3595,-2.3595,-2.3595,-2.3595,-2.3595,-2.3595,-2.3595,-2.295,-2.2114,-2.1805,-2.1015,-2.022,-1.9901,-1.9798,-1.9798,-1.9798,-1.9798,-1.9798,-1.9798,-1.9708,-1.9517,-1.908,-1.8878,-1.8724,0.0,0.0,0.0,0.0,0.0,0.0,0.0,0.0,0.0,0.0,0.0,0.0,0.0,0.0,0.0,0.0,0.0,0.0,-1.7526,0.0,-1.862,-1.8895,-1.874,-1.8739,-1.8843,-1.8148,-1.7812,-1.782,-1.8123,-1.8267,-1.8239,-1.8428,-1.8043,-1.7269,-1.7653,-1.7068,-1.6019,-1.6475,-1.6374,-1.5911,-1.5911,-1.6083,-1.6347,-3.5135,0.0,-3.4714,0.0,-3.5311,-3.5037,-3.6282,-3.5977,-3.5622,-3.5622,-3.5549,-3.5436,-3.5217,-3.4348,-3.3445,-3.271,-3.1606,-3.0526,-2.9483,-2.8754,-2.7827,-2.6584,-2.6518,0.0,-2.4176,-2.465,-2.4461,-2.3538,-2.3407,0.0,0.0,0.0,0.0,0.0,-2.2405,-2.2683,-2.2782,-2.3372,-2.3595,-2.3595,-2.3595,-2.3595,-2.3595,-2.3595,-2.3595,-2.3595,-2.3595,-2.3595,-2.3595,-2.3595,-2.3595,-2.3595,-2.3595,-2.3595,-2.3595,-2.3595,-2.2815,-2.1894,-2.1771,-2.093,-2.0029,-1.9862,-1.9862,-1.9862,-1.9811,-1.9798,-1.9798,-1.9798,-1.9708,-1.9544,-1.9145,-1.8796,-1.8496,0.0,0.0,0.0,0.0,0.0,0.0,0.0,-1.8855,-1.851,-1.7883,0.0,0.0,0.0,0.0,0.0,0.0,0.0,0.0,0.0,0.0,0.0,0.0,0.0,-1.8967,-1.8883,-1.8832,-1.8713,-1.852,-1.8688,-1.8965,-1.9239,-1.9088,-1.8632,-1.8023,-1.7926,-1.7352,-1.6581,-1.6877,-1.6832,-1.6528,-1.6368,-1.6415,-1.6591,-3.5577,-3.556,-3.556,-3.5639,-3.5577,-3.556,-3.5639,-3.5622,-3.5622,-3.5622,-3.5622,-3.5334,-3.459,-3.3674,-3.2823,-3.2077,-3.0418,-2.9433,-2.9417,-2.8754,-2.808,0.0,0.0,-2.6547,-2.4902,-2.4902,-2.4461,-2.3595,0.0,0.0,-2.3494,0.0,0.0,-2.348,-2.3348,-2.3377,-2.3595,-2.3595,-2.3595,-2.3595,-2.3595,-2.3595,-2.3595,-2.3595,-2.3595,-2.3595,-2.3595,-2.3595,-2.3595,-2.3595,-2.3595,-2.3595,-2.3595,-2.3595,-2.3595,-2.3595,-2.2815,-2.1894,-2.1894,-2.1091,-2.0182,-2.0042,-1.999,-1.9978,-1.985,-1.9798,-1.9798,-1.9798,-1.9798,-1.9798,-1.9798,-1.9258,-1.8747,-1.8609,0.0,0.0,0.0,0.0,0.0,0.0,-1.853,-1.8205,-1.8205,0.0,0.0,0.0,0.0,0.0,0.0,0.0,0.0,-1.8081,-1.8655,0.0,-1.8104,-1.8709,-1.8999,-1.9023,-1.9667,-1.9709,-1.9182,-1.9328,-1.9674,-2.0153,-1.9466,-1.8851,-1.8271,-1.8023,-1.7639,-1.719,-1.7053,-1.7064,-1.7146,-1.6528,-1.6698,-1.7099,-3.5622,-3.5622,-3.5622,-3.5622,-3.5622,-3.5622,-3.5622,-3.5622,-3.5436,-3.4912,-3.4844,-3.4327,-3.3018,-3.3085,-3.2882,0.0,-3.0482,-2.9297,0.0,-2.7578,-2.6568,-2.5822,-2.5789,-2.5445,-2.4638,-2.5088,-2.4887,-2.4078,0.0,0.0,0.0,-2.3407,-2.3451,-2.3566,-2.3523,-2.3566,-2.3595,-2.3595,-2.3595,-2.3595,-2.3595,-2.3595,-2.3595,-2.3595,-2.3595,-2.3595,-2.3595,-2.3595,-2.3595,-2.3595,-2.3595,-2.3595,-2.3595,-2.3595,-2.3595,-2.3595,-2.2815,-2.1894,-2.1894,-2.1091,-2.0182,-2.0131,-2.0093,-1.999,-1.9926,-1.9862,-1.9698,-1.9346,-1.9271,-1.9045,-1.8292,-1.7897,-1.7703,-1.7669,0.0,0.0,0.0,0.0,0.0,0.0,0.0,-1.7664,0.0,-1.782,0.0,0.0,0.0,0.0,0.0,0.0,0.0,0.0,-1.8584,0.0,-1.9242,-1.9473,-1.9775,-2.0261,-2.0531,-2.0871,-2.1294,-2.0866,-2.0791,-2.0872,-1.9824,-1.9173,-1.8851,-1.8398,-1.8022,-1.7776,-1.7309,-1.7164,-1.7146,-1.6528,-1.6698,-1.7112,-3.5622,-3.5622,-3.5622,-3.5622,-3.5622,-3.5622,-3.5622,-3.5622,-3.5351,-3.459,-3.4489,-3.3931,-3.236,-3.263,0.0,-3.1583,-3.0082,0.0,-2.8445,-2.7015,-2.6005,-2.5541,-2.5524,-2.5316,-2.4871,0.0,0.0,-2.4302,-2.4036,-2.3782,-2.3538,-2.3538,-2.3566,-2.3595,-2.3595,-2.3595,-2.3595,-2.3595,-2.3595,-2.3595,-2.3595,-2.3595,-2.3595,-2.3595,-2.3595,-2.3595,-2.3595,-2.3445,-2.3295,-2.352,-2.3281,-2.2966,-2.3445,-2.343,-2.3295,-2.3535,-2.2965,-2.2221,-2.2035,-2.1334,-2.0586,-2.0398,-2.0195,-2.0029,-1.9926,-1.9862,-1.966,-1.9133,-1.8983,-1.8756,-1.7852,-1.7468,-1.7272,-1.7194,0.0,0.0,0.0,0.0,0.0,0.0,0.0,0.0,0.0,-1.7592,0.0,0.0,0.0,0.0,0.0,0.0,0.0,-1.8478,-1.8874,0.0,-2.0193,-2.0,-2.0225,-2.0885,-2.1043,-2.1555,-2.2284,-2.1475,-2.1081,-2.0989,-1.9928,-1.9407,-1.9223,-1.856,-1.8321,-1.8375,-1.7534,-1.7479,-1.7765,-1.6922,-1.6866,-1.709,-3.5622,-3.5571,0.0,0.0,-3.5504,0.0,-3.547,-3.547,-3.5199,-3.4438,-3.4336,-3.3795,-3.2357,-3.2205,-3.178,-3.0716,0.0,0.0,0.0,-2.6965,-2.6203,-2.622,-2.622,0.0,-2.554,-2.554,-2.516,-2.4343,-2.3867,-2.3595,-2.3595,-2.3595,-2.358,-2.3535,-2.358,-2.358,-2.3535,-2.358,-2.3595,-2.3595,-2.3595,-2.3595,-2.3595,-2.3595,-2.3565,-2.3535,-2.3535,-2.3131,-2.2739,-2.3266,-2.2712,-2.1964,-2.3116,-2.3101,-2.2802,-2.3415,-2.3246,-2.274,-2.2221,-2.1732,-2.1229,-2.0662,-2.0347,-2.0118,-1.985,-1.9798,-1.9648,-1.9083,-1.892,-1.8794,-1.8191,-1.7664,-1.7313,-1.7152,-1.7029,-1.6892,-1.6788,0.0,0.0,0.0,0.0,0.0,0.0,-1.7845,-1.7953,0.0,0.0,0.0,0.0,0.0,0.0,-1.9744,-1.9485,-1.9782,-2.0815,-2.0365,-2.0526,-2.1235,-2.1299,-2.1731,-2.2334,-2.1267,-2.0806,-2.069,-1.9967,-1.955,-1.9368,-1.8655,-1.8614,-1.8934,-1.7699,-1.7929,-1.8827,-1.7644,-1.7257,-1.7202,0.0,0.0,-3.4759,-3.4759,-3.4303,-3.3931,-3.3931,-3.3931,-3.366,-3.2899,-3.2797,-3.2442,-3.1426,-3.1404,-3.1061,-3.0012,-2.9219,-2.8193,-2.6892,-2.6476,-2.6241,-2.6203,-2.622,-2.6132,-2.6043,-2.6026,-2.5605,-2.4759,-2.3964,-2.3595,-2.3595,-2.3595,-2.334,-2.2921,-2.3385,-2.3325,-2.2921,-2.34,-2.3595,-2.3595,-2.3595,-2.3595,-2.3595,-2.3595,-2.331,-2.2892,-2.2892,-2.2473,-2.1949,-2.2099,-2.2278,-2.2413,-2.2218,-2.2383,-2.2802,-2.3415,-2.3024,-2.231,-2.2142,-2.1492,-2.0848,-2.0712,-2.0448,-2.0118,-1.985,-1.9798,-1.9535,-1.8593,-1.8405,-1.8091,-1.7099,-1.681,-1.6722,-1.6666,-1.6516,-1.6384,-1.634,0.0,0.0,0.0,-1.6642,-1.6763,-1.6763,-1.7291,-1.7712,0.0,0.0,0.0,0.0,0.0,-1.8935,-1.9909,-1.9934,-2.0324,-2.0998,-2.1293,-2.1814,-2.2464,-2.2205,-2.2351,-2.2865,-2.2234,-2.1694,-2.1255,-2.0553,-2.0014,-1.9512,-1.9158,-1.9105,-1.921,-1.8255,-1.8093,-1.8387,-1.7479,-1.7479,-1.782,-3.4607,-3.4269,-3.3998,-3.3998,-3.3677,-3.3406,-3.3406,-3.3406,-3.3136,-3.2374,-3.2313,-3.1867,-3.0723,-3.0644,-3.007,-2.8491,-2.8605,-2.8193,-2.6895,-2.6476,-2.6222,-2.622,-2.622,-2.622,-2.622,-2.599,-2.5476,-2.4639,-2.3937,-2.3595,-2.3595,-2.3595,-2.3415,-2.3116,-2.3445,-2.3415,-2.3116,-2.346,-2.3595,-2.3595,-2.3595,-2.3595,-2.3595,-2.3595,-2.3385,-2.3056,-2.2787,-2.2263,-2.1695,-2.1695,-2.1515,-2.135,-2.162,-2.1739,-2.1904,-2.2547,-2.2391,-2.1859,-2.1389,-2.1112,-2.0893,-2.0633,-2.0398,-2.0054,-1.9649,-1.9497,-1.9145,-1.8053,-1.7827,-1.7564,-1.6672,-1.6522,-1.6522,-1.6522,-1.6318,-1.62,-1.62,-1.5969,0.0,-1.6452,-1.6763,-1.7087,-1.7327,-1.7604,-1.7893,-1.8181,0.0,0.0,-1.972,-1.9787,-2.006,-2.0706,-2.0723,-2.1107,-2.191,-2.2266,-2.2611,-2.2909,-2.2718,-2.2711,-2.2736,-2.2184,-2.1631,-2.1079,-2.0473,-1.9942,-1.9565,-1.9368,-1.9328,-1.9223,-1.8429,-1.8321,-1.8548,-1.7875,-1.7875,-1.8104,-3.3406,-3.3322,-3.3237,-3.3237,-3.3136,-3.3068,-3.3068,-3.3068,-3.2848,-3.2205,-3.2019,-3.1478,-3.0243,-3.0006,-2.911,-2.7046,-2.783,-2.8068,-2.7164,-2.6504,-2.6132,-2.6132,-2.6059,-2.6007,-2.6007,-2.5572,-2.4981,-2.4302,-2.3824,-2.3595,-2.3595,-2.3595,-2.355,-2.346,-2.355,-2.355,-2.346,-2.3565,-2.3595,-2.3595,-2.3595,-2.3595,-2.3595,-2.3653,-2.3533,-2.3251,-2.2753,-2.2079,-2.1395,-2.1395,-2.0707,-2.0019,-2.1066,-2.1081,-2.0797,-2.1261,-2.1395,-2.1228,-2.0514,-2.0564,-2.0745,-2.0319,-2.0089,-1.9798,-1.9241,-1.8992,-1.8606,-1.7589,-1.7388,-1.7212,-1.6622,-1.6522,-1.6522,-1.6522,-1.6362,-1.6244,-1.62,0.0,-1.6281,-1.7183,-1.7436,-1.7712,-1.8157,-1.8277,-1.835,-1.8434,-1.8855,0.0,0.0,-2.0633,-2.1223,-2.1484,-2.1477,-2.1948,-2.2896,-2.3017,-2.3017,-2.2909,-2.3078,-2.2887,-2.241,-2.1782,-2.123,-2.0752,-2.01,-1.9708,-1.9604,-1.942,-1.9328,-1.9223,-1.8548,-1.859,-1.904,-1.8483,-1.8375,-1.8387,-3.3406,-3.2899,-3.2459,-3.2459,-3.1952,-3.1529,-3.1529,-3.1529,-3.1495,-3.1376,-3.0835,-3.0362,-3.0125,-2.9533,-2.8738,-2.774,-2.7448,-2.6906,-2.5849,-2.582,-2.5848,-2.5775,-2.5346,-2.5114,-2.5114,-2.4695,-2.4426,-2.4302,-2.3824,-2.3595,-2.3595,-2.3595,-2.3325,-2.2847,-2.337,-2.331,-2.2847,-2.337,-2.3595,-2.3595,-2.3739,-2.3696,-2.3595,-2.3839,-2.3119,-2.1979,-2.1939,-2.1113,-1.9989,-1.9989,-2.0243,-2.0483,-2.0109,-2.0333,-2.0617,-2.0139,-1.9989,-2.0042,-2.0272,-1.9806,-1.9193,-1.9019,-1.8952,-1.8879,-1.8579,-1.8507,-1.8282,-1.7559,-1.7388,-1.7212,-1.6622,-1.6522,-1.6522,-1.6522,-1.6436,-1.6318,0.0,0.0,-1.6638,-1.6726,-1.7532,-1.8109,-1.8193,-1.8602,-1.9047,-1.9504,-1.9612,-1.9901,-2.0454,-2.1158,-2.1384,-2.1109,-2.1753,-2.2439,-2.3065,-2.3078,-2.3078,-2.3078,-2.3078,-2.3027,-2.2915,-2.1945,-2.1443,-2.1305,-2.0157,-1.9656,-1.9759,-1.9368,-1.942,-1.9656,-1.921,-1.9198,-1.946,-1.9251,-1.9198,-1.9146,-3.2222,-3.1935,-3.1698,-3.1698,-3.141,-3.119,-3.119,-3.119,-3.119,-3.119,-3.0565,-2.9956,-2.955,-2.8822,-2.8044,-2.7283,-2.6797,-2.6336,-2.5847,-2.5562,-2.5422,-2.54,-2.5075,-2.4799,-2.4574,-2.4385,-2.4177,-2.3909,-2.3696,-2.3595,-2.3595,-2.3595,-2.3445,-2.3191,-2.3475,-2.3445,-2.3191,-2.3475,-2.3595,-2.3565,-2.3348,-2.3212,-2.3125,-2.2903,-2.2365,-2.1714,-2.1353,-2.1015,-2.0662,-1.9929,-2.0154,-2.0587,-1.9899,-1.9899,-2.0094,-1.9779,-1.9384,-1.9161,-1.9639,-1.9144,-1.8545,-1.8741,-1.8727,-1.8557,-1.8137,-1.7969,-1.7713,-1.7068,-1.6923,-1.6835,-1.6572,-1.6522,-1.6522,-1.6522,-1.6436,0.0,0.0,-1.6553,-1.6854,-1.7015,-1.7724,-1.8422,-1.8999,-1.9275,-1.9636,-2.0189,-2.0225,-2.0523,-2.1124,-2.1555,-2.182,-2.2033,-2.1931,-2.2133,-2.2686,-2.2686,-2.2535,-2.2246,-2.2548,-2.2385,-2.1782,-2.128,-2.0878,-2.0552,-1.9972,-1.9759,-1.9798,-1.9512,-1.9512,-1.9656,-1.942,-1.9368,-1.9423,-1.9089,-1.8824,-1.8582,-3.097,-3.1072,-3.114,-3.097,-3.1089,-3.119,-3.119,-3.119,-3.114,-3.097,-3.0311,-2.955,-2.8789,-2.8027,-2.7334,-2.6742,-2.6315,-2.6052,-2.598,-2.5384,-2.5013,-2.5013,-2.4799,-2.4477,-2.4135,-2.4135,-2.3952,-2.3595,-2.3595,-2.3595,-2.3595,-2.3595,-2.3595,-2.3595,-2.3595,-2.3595,-2.3595,-2.3638,-2.3638,-2.355,-2.3239,-2.2953,-2.2716,-2.2244,-2.1853,-2.1458,-2.094,-2.0946,-2.1066,-2.0034,-2.0034,-2.0378,-1.9854,-1.969,-1.969,-1.969,-1.9109,-1.8641,-1.9179,-1.8628,-1.7996,-1.8401,-1.8416,-1.8177,-1.7619,-1.7428,-1.7156,-1.6597,-1.6522,-1.6522,-1.6522,-1.6522,-1.6522,-1.6522,0.0,0.0,0.0,-1.6858,-1.7374,-1.7724,-1.8253,-1.8939,-1.9877,-1.9973,-2.0201,-2.0754,-2.0791,-2.1088,-2.1546,-2.193,-2.2307,-2.2896,-2.2138,-2.1882,-2.2309,-2.2184,-2.1907,-2.1493,-2.192,-2.1681,-2.0853,-2.0781,-2.0426,-1.9987,-1.9861,-1.9798,-1.9798,-1.9656,-1.9604,-1.9604,-1.9512,-1.9473,-1.9451,-1.8919,-1.8458,-1.7981,-3.0328,-3.0734,-3.097,-3.0311,-3.0751,-3.119,-3.119,-3.119,-3.0954,-3.0277,-2.9533,-2.8772,-2.7994,-2.7232,-2.6759,-2.6691,-2.6315,-2.5944,-2.5577,-2.5114,-2.4815,-2.4815,-2.4245,-2.3824,-2.3638,-2.3638,-2.3638,-2.3595,-2.3595,-2.3595,-2.3595,-2.3595,-2.3595,-2.3595,-2.3595,-2.3595,-2.3595,-2.3739,-2.3696,-2.3638,-2.3837,-2.3417,-2.2709,-2.2854,-2.2028,-2.0782,-2.0865,-2.0459,-1.9809,-1.972,-1.972,-1.975,-1.9741,-1.969,-1.969,-1.969,-1.9109,-1.8641,-1.922,-1.8357,-1.7277,-1.7316,-1.7203,-1.7118,-1.6995,-1.6867,-1.6713,-1.6534,-1.6522,-1.6522,-1.6522,-1.6522,-1.6522,-1.6522,0.0,0.0,-1.6995,-1.7835,-1.8594,-1.8871,-1.9336,-1.9901,-2.0502,-2.0526,-2.0742,-2.1308,-2.1451,-2.1522,-2.1618,-2.2285,-2.2702,-2.2909,-2.2443,-2.2272,-2.2309,-2.1807,-2.1531,-2.1493,-2.1531,-2.1506,-2.1405,-2.0957,-2.0693,-2.0618,-2.0037,-1.9798,-1.9798,-1.9656,-1.9656,-1.9747,-1.9656,-1.9656,-1.9697,-1.9171,-1.8659,-1.8109,-3.0835,-3.1004,-3.097,-3.0243,-3.0345,-3.0362,-2.9905,-2.982,-2.9719,-2.9448,-2.8738,-2.8146,-2.7823,-2.7148,-2.6691,-2.6691,-2.6315,-2.6033,-2.5872,-2.5465,-2.4942,-2.4204,-2.3952,-2.3739,-2.3595,-2.3595,-2.3595,-2.3595,-2.3595,-2.3595,-2.3595,-2.3595,-2.3595,-2.3595,-2.3595,-2.3595,-2.3595,-2.3653,-2.3696,-2.3664,-2.3031,-2.2561,-2.2164,-2.1409,-2.0699,-2.0152,-2.0152,-2.022,-2.0258,-1.9824,-1.9974,-2.0243,-1.9824,-1.969,-1.969,-1.969,-1.931,-1.8879,-1.8835,-1.8045,-1.7282,-1.7516,-1.7352,-1.7073,-1.6918,-1.7044,-1.7073,-1.6607,-1.6723,-1.6863,-1.6552,-1.6522,-1.6635,-1.6999,0.0,-1.7318,-1.7466,-1.8056,-1.8493,-1.8482,-1.9263,-1.9985,-2.0538,-2.0887,-2.1367,-2.1958,-2.2056,-2.2177,-2.2418,-2.2676,-2.2909,-2.3017,-2.2493,-2.2205,-2.2309,-2.1769,-2.1317,-2.0978,-2.0978,-2.079,-2.0439,-2.0225,-2.0125,-2.0125,-1.9899,-1.9798,-1.9773,-1.9409,-1.9459,-1.9773,-1.9396,-1.9271,-1.9296,-1.9095,-1.8239,-1.7147,-3.0548,-3.07,-3.0615,-2.9871,-2.9956,-2.9854,-2.9093,-2.9194,-2.9161,-2.8687,-2.8146,-2.7653,-2.7311,-2.6807,-2.647,-2.6315,-2.5889,-2.5527,-2.5419,-2.4976,-2.4548,-2.4063,-2.3994,-2.3867,-2.3595,-2.3595,-2.3595,-2.3595,-2.3595,-2.3595,-2.3595,-2.3595,-2.3595,-2.3595,-2.3595,-2.3595,-2.3595,-2.3428,-2.3501,-2.3634,-2.243,-2.1916,-2.1795,-2.0639,-2.0029,-1.9762,-1.9726,-1.9989,-2.0318,-1.9854,-2.0004,-2.0318,-1.9839,-1.969,-1.969,-1.969,-1.9435,-1.9064,-1.8936,-1.8147,-1.7434,-1.7557,-1.7352,-1.7115,-1.7115,-1.7157,-1.7186,-1.6976,-1.6934,-1.6999,-1.6964,-1.6872,-1.6974,-1.7551,-1.7697,-1.784,-1.8007,-1.8435,-1.8736,-1.8674,-1.9336,-2.0057,-2.0767,-2.1234,-2.1729,-2.2384,-2.2482,-2.2665,-2.2969,-2.2969,-2.3017,-2.3078,-2.2655,-2.238,-2.2309,-2.1769,-2.1305,-2.097,-2.0806,-2.0552,-2.0313,-1.9962,-1.9899,-2.0062,-1.9874,-1.9798,-1.9773,-1.9409,-1.9384,-1.9522,-1.9171,-1.8821,-1.8499,-1.8313,-1.7448,-1.6316,-2.9127,-2.9583,-2.9871,-2.911,-2.96,-2.9837,-2.9076,-2.96,-2.9533,-2.7975,-2.7772,-2.738,-2.6222,-2.6104,-2.5944,-2.554,-2.4891,-2.4325,-2.3951,-2.3413,-2.3563,-2.4552,-2.4477,-2.4147,-2.3595,-2.3595,-2.3595,-2.3595,-2.3595,-2.3595,-2.3595,-2.3595,-2.3595,-2.3595,-2.3595,-2.3595,-2.355,-2.3032,-2.3095,-2.3475,-2.2295,-2.1744,-2.162,-2.0961,-2.0288,-1.969,-1.969,-1.969,-1.969,-1.969,-1.969,-1.969,-1.969,-1.969,-1.969,-1.969,-1.9435,-1.9213,-1.9581,-1.8755,-1.772,-1.7323,-1.7115,-1.7073,-1.7434,-1.7073,-1.6918,-1.7639,-1.7089,-1.6815,-1.7813,-1.7677,-1.7564,-1.8129,-1.8668,-1.8921,-1.8621,-1.9076,-1.9511,-1.9763,-1.978,-2.0201,-2.1296,-2.1511,-2.1849,-2.2384,-2.2726,-2.2969,-2.3078,-2.3078,-2.3078,-2.3078,-2.3078,-2.2874,-2.2322,-2.1769,-2.1493,-2.1481,-2.0928,-2.0953,-2.1443,-2.0313,-2.0125,-2.068,-2.0049,-1.9798,-1.9798,-1.9798,-1.9484,-1.897,-1.897,-1.8376,-1.7424,-1.6833,-1.6291,-1.5845,-2.9025,-2.9161,-2.9076,-2.8298,-2.8349,-2.8247,-2.7486,-2.7571,-2.7554,-2.7097,-2.7029,-2.6911,-2.6572,-2.628,-2.6052,-2.5944,-2.5036,-2.4398,-2.42,-2.401,-2.406,-2.444,-2.4131,-2.3867,-2.3595,-2.3595,-2.3385,-2.2951,-2.3385,-2.3131,-2.2278,-2.2742,-2.2951,-2.2993,-2.302,-2.3303,-2.3694,-2.3088,-2.2964,-2.308,-2.1657,-2.1106,-2.1061,-2.0332,-1.9906,-1.969,-1.969,-1.969,-1.969,-1.969,-1.969,-1.969,-1.969,-1.969,-1.969,-1.969,-1.9617,-1.9508,-1.9325,-1.9011,-1.8669,-1.8553,-1.8028,-1.7557,-1.7516,-1.7828,-1.7948,-1.7047,-1.7486,-1.7968,-1.7638,-1.7781,-1.8141,-1.8694,-1.8808,-1.8946,-1.9125,-1.9218,-1.9271,-1.9257,-1.9552,-2.0113,-2.0882,-2.1352,-2.1909,-2.258,-2.2787,-2.2909,-2.2969,-2.2969,-2.3017,-2.3078,-2.3017,-2.2755,-2.2322,-2.1769,-2.1292,-2.097,-2.0806,-2.0539,-2.0313,-2.0376,-2.0275,-2.0049,-1.9874,-1.9597,-1.9233,-1.8844,-1.8593,-1.8405,-1.8028,-1.7672,-1.7455,-1.7666,-1.7107,-1.6279,-2.8924,-2.9011,-2.8924,-2.8755,-2.8484,-2.794,-2.7024,-2.6907,-2.6736,-2.6279,-2.6245,-2.6158,-2.6016,-2.5762,-2.5577,-2.5389,-2.4505,-2.3808,-2.3412,-2.355,-2.3678,-2.3718,-2.3716,-2.3696,-2.3595,-2.3595,-2.3295,-2.2724,-2.3295,-2.2951,-2.171,-2.2368,-2.2574,-2.2359,-2.2385,-2.2636,-2.2968,-2.2305,-2.2184,-2.236,-2.0941,-2.0542,-2.0723,-2.0032,-1.9726,-1.969,-1.969,-1.969,-1.969,-1.969,-1.969,-1.969,-1.969,-1.969,-1.969,-1.969,-1.969,-1.9654,-1.9398,-1.9213,-1.9139,-1.9288,-1.8693,-1.8028,-1.7814,-1.8147,-1.8316,-1.7652,-1.7948,-1.8309,-1.8265,-1.8323,-1.8634,-1.9208,-1.9271,-1.9231,-1.9371,-1.9328,-1.9223,-1.8999,-1.951,-2.0096,-2.071,-2.143,-2.2075,-2.2811,-2.2848,-2.2909,-2.2969,-2.2758,-2.2693,-2.2752,-2.2493,-2.2106,-2.1669,-2.133,-2.1104,-2.0991,-2.0819,-2.0602,-2.0464,-2.0363,-2.0263,-2.0125,-1.9899,-1.951,-1.8945,-1.8668,-1.8279,-1.784,-1.7513,-1.7147,-1.6794,-1.6898,-1.6524,-1.5915,-2.8636,-2.8808,-2.8991,-2.9685,-2.9296,-2.8511,-2.7424,-2.7197,-2.6838,-2.5793,-2.5572,-2.5351,-2.4981,-2.4902,-2.4759,-2.4385,-2.359,-2.2797,-2.2024,-2.2481,-2.2776,-2.2709,-2.3266,-2.3595,-2.3595,-2.3595,-2.3295,-2.2724,-2.3295,-2.2921,-2.162,-2.2278,-2.2344,-2.1807,-2.1762,-2.1792,-2.1853,-2.1129,-2.1113,-2.15,-2.0198,-2.0064,-2.0557,-1.9929,-1.969,-1.969,-1.969,-1.969,-1.969,-1.969,-1.969,-1.969,-1.969,-1.969,-1.969,-1.969,-1.969,-1.969,-1.969,-1.9398,-1.9176,-1.9493,-1.9116,-1.8584,-1.8321,-1.8226,-1.8316,-1.886,-1.8467,-1.833,-1.927,-1.9159,-1.9158,-1.9686,-1.9798,-1.9708,-1.9473,-1.942,-1.9316,-1.9052,-1.957,-2.0159,-2.0767,-2.1584,-2.2374,-2.304,-2.2919,-2.2834,-2.3002,-2.2535,-2.2234,-2.2234,-2.1744,-2.123,-2.0731,-2.0718,-2.0891,-2.133,-2.0932,-2.0903,-2.1305,-2.0326,-2.0137,-2.0605,-1.9987,-1.9434,-1.8895,-1.8907,-1.8254,-1.73,-1.73,-1.6695,-1.5788,-1.5367,-1.5244,-1.5198,-2.7148,-2.7182,-2.7232,-2.7402,-2.7791,-2.7975,-2.77,-2.7398,-2.711,-2.6871,-2.6031,-2.5465,-2.5389,-2.5098,-2.4863,-2.4799,-2.3736,-2.2757,-2.1907,-2.244,-2.2776,-2.2709,-2.3266,-2.3595,-2.3595,-2.3595,-2.3295,-2.2724,-2.3295,-2.2682,-2.0946,-2.1605,-2.1854,-2.1792,-2.1356,-2.1758,-2.2652,-2.1455,-2.1008,-2.0986,-2.0055,-1.9779,-1.9884,-1.975,-1.969,-1.969,-1.969,-1.969,-1.969,-1.969,-1.969,-1.969,-1.969,-1.969,-1.969,-1.969,-1.969,-1.969,-1.969,-1.9398,-1.9064,-1.8808,-1.9272,-1.9555,-1.8835,-1.8669,-1.8539,-1.8147,-1.8962,-1.958,-1.9041,-1.963,-2.0124,-1.9863,-1.9798,-1.9759,-1.9565,-1.9473,-1.9328,-1.917,-1.9267,-1.977,-2.073,-2.175,-2.2482,-2.2896,-2.2379,-2.2132,-2.2322,-2.1913,-2.1669,-2.1669,-2.1556,-2.123,-2.0731,-2.0718,-2.0501,-2.0175,-2.0501,-2.0489,-2.0175,-2.0388,-2.03,-1.9962,-1.9422,-1.8882,-1.8355,-1.7915,-1.7325,-1.671,-1.671,-1.6535,-1.6337,-1.6207,-1.6207,-1.6076,-2.7165,-2.7232,-2.7351,-2.7723,-2.7807,-2.7754,-2.7542,-2.6862,-2.6335,-2.6146,-2.5438,-2.4942,-2.4942,-2.4759,-2.4599,-2.4599,-2.402,-2.3107,-2.1961,-2.2783,-2.2957,-2.2233,-2.3101,-2.3638,-2.3696,-2.3381,-2.3065,-2.2735,-2.3065,-2.2389,-2.0813,-2.1181,-2.1189,-2.0948,-2.0637,-2.0916,-2.1523,-2.0736,-2.0412,-2.0272,-1.9876,-1.969,-1.969,-1.969,-1.969,-1.969,-1.969,-1.969,-1.969,-1.969,-1.969,-1.969,-1.969,-1.969,-1.969,-1.969,-1.969,-1.969,-1.969,-1.9545,-1.9362,-1.9124,-1.9604,-1.9831,-1.8811,-1.9128,-1.9498,-1.903,-1.9634,-2.0189,-1.9962,-2.0435,-2.0708,-2.0257,-2.0156,-2.0055,-1.9656,-1.946,-1.9368,-1.9328,-1.9495,-2.0189,-2.1383,-2.1694,-2.2048,-2.2546,-2.1944,-2.1646,-2.1806,-2.135,-2.1091,-2.1091,-2.0828,-2.0539,-2.0263,-2.025,-2.01,-1.9798,-2.0112,-2.01,-1.9811,-2.0112,-1.9949,-1.9409,-1.9096,-1.8568,-1.779,-1.7501,-1.7036,-1.6522,-1.6522,-1.6522,-1.6436,-1.5988,-1.568,-1.54,-2.7503,-2.7621,-2.7824,-2.8484,-2.8163,-2.7666,-2.7271,-2.6335,-2.5529,-2.5116,-2.4651,-2.4302,-2.4302,-2.4302,-2.4317,-2.4261,-2.4208,-2.3605,-2.2212,-2.316,-2.3212,-2.1919,-2.3023,-2.3696,-2.3797,-2.319,-2.2843,-2.2843,-2.2737,-2.2073,-2.091,-2.097,-2.0704,-2.0193,-2.0086,-2.0102,-2.0157,-1.9929,-1.9797,-1.9726,-1.969,-1.969,-1.969,-1.969,-1.969,-1.969,-1.969,-1.969,-1.969,-1.969,-1.969,-1.969,-1.969,-1.969,-1.969,-1.969,-1.969,-1.969,-1.969,-1.9654,-1.9617,-1.9617,-1.9847,-1.9835,-1.8821,-1.9609,-2.0519,-2.0416,-2.0465,-2.0698,-2.1121,-2.1299,-2.1218,-2.0815,-2.066,-2.0409,-1.9862,-1.9565,-1.9457,-1.9608,-2.0035,-2.0798,-2.1901,-2.1512,-2.143,-2.2133,-2.1556,-2.1188,-2.1355,-2.0815,-2.0567,-2.058,-2.0049,-1.9798,-1.985,-1.9798,-1.9798,-1.9798,-1.9798,-1.9798,-1.9798,-1.9798,-1.9522,-1.897,-1.8883,-1.8317,-1.7375,-1.7275,-1.6948,-1.6479,-1.6423,-1.638,-1.6293,-1.5412,-1.4834,-1.4373,-2.6826,-2.6843,-2.6877,-2.6979,-2.7452,-2.7666,-2.7271,-2.676,-2.6324,-2.5901,-2.4947,-2.4302,-2.4302,-2.4302,-2.4219,-2.4067,-2.4024,-2.3622,-2.2675,-2.3248,-2.3323,-2.2619,-2.3363,-2.3782,-2.3797,-2.3273,-2.298,-2.298,-2.2404,-2.1736,-2.1007,-2.1007,-2.0968,-2.092,-2.034,-2.0401,-2.0904,-2.0233,-1.9884,-1.9762,-1.9726,-1.969,-1.969,-1.969,-1.969,-1.969,-1.969,-1.969,-1.969,-1.969,-1.969,-1.969,-1.969,-1.969,-1.969,-1.969,-1.969,-1.969,-1.969,-1.9435,-1.9176,-1.9176,-1.9657,-2.0069,-1.9889,-2.0367,-2.0913,-2.1035,-2.1518,-2.1772,-2.1276,-2.1678,-2.1885,-2.1369,-2.0894,-2.056,-2.0459,-1.9965,-1.975,-2.0287,-2.0656,-2.0909,-2.0916,-2.0965,-2.1181,-2.1594,-2.0914,-2.0603,-2.0778,-2.0225,-1.9976,-2.0104,-1.99,-1.9862,-1.9978,-1.9862,-1.9798,-1.9798,-1.9798,-1.9798,-1.9798,-1.9798,-1.9522,-1.8945,-1.853,-1.7953,-1.735,-1.6835,-1.6584,-1.6479,-1.6064,-1.5876,-1.5844,-1.5277,-1.4903,-1.4663,-2.6401,-2.635,-2.628,-2.6068,-2.6297,-2.6475,-2.6274,-2.5895,-2.56,-2.5401,-2.4948,-2.4533,-2.4302,-2.4302,-2.4261,-2.4193,-2.4109,-2.3793,-2.3056,-2.3519,-2.3553,-2.2903,-2.3186,-2.3364,-2.339,-2.2452,-2.1973,-2.2064,-2.1683,-2.134,-2.1036,-2.0742,-2.0559,-2.0528,-2.0238,-2.0268,-2.0528,-2.0147,-1.997,-1.9919,-1.9884,-1.9797,-1.9762,-1.9762,-1.9726,-1.969,-1.969,-1.969,-1.969,-1.969,-1.969,-1.969,-1.969,-1.969,-1.969,-1.969,-1.969,-1.969,-1.969,-1.9849,-1.9996,-1.9996,-2.0803,-2.1543,-2.1543,-2.199,-2.2302,-2.199,-2.2125,-2.2264,-2.2248,-2.246,-2.231,-2.1513,-2.1175,-2.0845,-2.0258,-1.985,-1.9703,-1.9964,-2.0188,-2.0416,-2.0652,-2.0482,-2.0515,-2.1004,-2.0448,-2.0122,-2.0175,-1.9936,-1.9862,-1.999,-1.9862,-1.9862,-1.999,-1.9862,-1.9798,-1.9798,-1.9798,-1.9798,-1.9798,-1.9798,-1.9346,-1.8555,-1.8304,-1.776,-1.6986,-1.6734,-1.6522,-1.6367,-1.602,-1.5611,-1.5152,-1.4949,-1.472,-1.4547]}]]